[[{"header":{"parameterUnit":"m.s-1","parameterCategory":1,"la1":31.0,"la2":29.5877,"lo1":-88.7671,"lo2":-86.6584,"dy":0.0162,"dx":0.0185,"nx":115,"ny":88,"refTime":"2023-10-02T06:00:00:Z","depth":0,"parameterNumber":2,"parameterNumberName":"U-component_of_WINDS"},"data":[0.0,0.0,0.0,0.0,0.0,0.0,0.0,0.0,0.0,0.0,0.0,0.0,0.0,0.0,0.0,0.0,0.0,0.0,0.0,0.0,0.0,0.0,0.0,0.0,0.0,0.0,0.0,0.0,0.0,0.0,0.0,0.0,0.0,0.0,0.0,0.0,0.0,0.0,0.0,0.0,0.0,0.0,0.0,0.0,0.0,0.0,0.0,0.0,0.0,0.0,0.0,0.0,0.0,0.0,0.0,0.0,0.0,0.0,0.0,0.0,0.0,0.0,0.0,0.0,0.0,0.0,0.0,0.0,0.0,0.0,0.0,0.0,0.0,0.0,0.0,0.0,0.0,0.0,0.0,0.0,0.0,0.0,0.0,0.0,0.0,0.0,0.0,0.0,0.0,0.0,0.0,0.0,0.0,0.0,0.0,0.0,0.0,0.0,0.0,0.0,0.0,0.0,0.0,0.0,0.0,0.0,0.0,0.0,0.0,0.0,0.0,0.0,0.0,0.0,0.0,0.0,0.0,0.0,0.0,0.0,0.0,0.0,0.0,0.0,0.0,0.0,0.0,0.0,0.0,0.0,0.0,0.0,0.0,0.0,0.0,0.0,0.0,0.0,0.0,0.0,0.0,0.0,0.0,0.0,0.0,0.0,0.0,0.0,0.0,0.0,0.0,0.0,0.0,0.0,0.0,0.0,0.0,0.0,0.0,0.0,0.0,0.0,0.0,0.0,0.0,0.0,0.0,0.0,0.0,0.0,0.0,0.0,0.0,0.0,0.0,0.0,0.0,0.0,0.0,0.0,0.0,0.0,0.0,0.0,0.0,0.0,0.0,0.0,0.0,0.0,0.0,0.0,0.0,0.0,0.0,0.0,0.0,0.0,0.0,0.0,0.0,0.0,0.0,0.0,0.0,0.0,0.0,0.0,0.0,0.0,0.0,0.0,0.0,0.0,0.0,0.0,0.0,0.0,0.0,0.0,0.0,0.0,0.0,0.0,0.0,0.0,0.0,0.0,0.0,0.0,0.0,0.0,0.0,0.0,0.0,0.0,0.0,0.0,0.0,0.0,0.0,0.0,0.0,0.0,0.0,0.0,0.0,0.0,0.0,0.0,0.0,0.0,0.0,0.0,0.0,0.0,0.0,0.0,0.0,0.0,0.0,0.0,0.0,0.0,0.0,0.0,0.0,0.0,0.0,0.0,0.0,0.0,0.0,0.0,0.0,0.0,0.0,0.0,0.0,0.0,0.0,0.0,0.0,0.0,0.0,0.0,0.0,0.0,0.0,0.0,0.0,0.0,0.0,0.0,0.0,0.0,0.0,0.0,0.0,0.0,0.0,0.0,0.0,0.0,0.0,0.0,0.0,0.0,0.0,0.0,0.0,0.0,0.0,0.0,0.0,0.0,0.0,0.0,0.0,0.0,0.0,0.0,0.0,0.0,0.0,0.0,0.0,0.0,0.0,0.0,0.0,0.0,0.0,0.0,0.0,0.0,0.0,0.0,0.0,0.0,0.0,0.0,0.0,0.0,0.0,0.0,0.0,0.0,0.0,0.0,0.0,0.0,0.0,0.0,0.0,0.0,0.0,0.0,0.0,0.0,0.0,0.0,0.0,0.0,0.0,0.0,0.0,0.0,0.0,0.0,0.0,0.0,0.0,0.0,0.0,0.0,0.0,0.0,0.0,0.0,0.0,0.0,0.0,0.0,0.0,0.0,0.0,0.0,0.0,0.0,0.0,0.0,0.0,0.0,0.0,0.0,0.0,0.0,0.0,0.0,0.0,0.0,0.0,0.0,0.0,0.0,0.0,0.0,0.0,0.0,0.0,0.0,0.0,0.0,0.0,0.0,0.0,0.0,0.0,0.0,0.0,0.0,0.0,0.0,0.0,0.0,0.0,0.0,0.0,0.0,0.0,0.0,0.0,0.0,0.0,0.0,0.0,0.0,0.0,0.0,0.0,0.0,0.0,0.0,0.0,0.0,0.0,0.0,0.0,0.0,0.0,0.0,0.0,0.0,0.0,0.0,0.0,0.0,0.0,0.0,0.0,0.0,0.0,0.0,0.0,0.0,0.0,0.0,0.0,0.0,0.0,0.0,0.0,0.0,0.0,0.0,0.0,0.0,0.0,0.0,0.0,0.0,0.0,0.0,0.0,0.0,0.0,0.0,0.0,0.0,0.0,0.0,0.0,0.0,0.0,0.0,0.0,0.0,0.0,0.0,0.0,0.0,0.0,0.0,0.0,0.0,0.0,0.0,0.0,0.0,0.0,0.0,0.0,0.0,0.0,0.0,0.0,0.0,0.0,0.0,0.0,0.0,0.0,0.0,0.0,0.0,0.0,0.0,0.0,0.0,0.0,0.0,0.0,0.0,0.0,0.0,0.0,0.0,0.0,0.0,0.0,0.0,0.0,0.0,0.0,0.0,0.0,0.0,0.0,0.0,0.0,0.0,0.0,0.0,0.0,0.0,0.0,0.0,0.0,0.0,0.0,0.0,0.0,0.0,0.0,0.0,0.0,0.0,0.0,0.0,0.0,0.0,0.0,0.0,0.0,0.0,0.0,0.0,0.0,0.0,0.0,0.0,0.0,0.0,0.0,0.0,0.0,0.0,0.0,0.0,0.0,0.0,0.0,0.0,0.0,0.0,0.0,0.0,0.0,0.0,0.0,0.0,0.0,0.0,0.0,0.0,0.0,0.0,0.0,0.0,0.0,0.0,0.0,0.0,0.0,0.0,0.0,0.0,0.0,0.0,0.0,0.0,0.0,0.0,0.0,0.0,0.0,0.0,0.0,0.0,0.0,0.0,0.0,0.0,0.0,0.0,0.0,0.0,0.0,0.0,0.0,0.0,0.0,0.0,0.0,0.0,0.0,0.0,0.0,0.0,0.0,0.0,0.0,0.0,0.0,0.0,0.0,0.0,0.0,0.0,0.0,0.0,0.0,0.0,0.0,0.0,0.0,0.0,0.0,0.0,0.0,0.0,0.0,0.0,0.0,0.0,0.0,0.0,0.0,0.0,0.0,0.0,0.0,0.0,0.0,0.0,0.0,0.0,0.0,0.0,0.0,0.0,0.0,0.0,0.0,0.0,0.0,0.0,0.0,0.0,0.0,0.0,0.0,0.0,0.0,0.0,0.0,0.0,0.0,0.0,0.0,0.0,0.0,0.0,0.0,0.0,0.0,0.0,0.0,0.0,0.0,0.0,0.0,0.0,0.0,0.0,0.0,0.0,0.0,0.0,0.0,0.0,0.0,0.0,0.0,0.0,0.0,0.0,0.0,0.0,0.0,0.0,0.0,0.0,0.0,0.0,0.0,0.0,0.0,0.0,0.0,0.0,0.0,0.0,0.0,0.0,0.0,0.0,0.0,0.0,0.0,0.0,0.0,0.0,0.0,0.0,0.0,0.0,0.0,0.0,0.0,0.0,0.0,0.0,0.0,0.0,0.0,0.0,0.0,0.0,0.0,0.0,0.0,0.0,0.0,0.0,0.0,0.0,0.0,0.0,0.0,0.0,0.0,0.0,0.0,0.0,0.0,0.0,0.0,0.0,0.0,0.0,0.0,0.0,0.0,0.0,0.0,0.0,0.0,0.0,0.0,0.0,0.0,0.0,0.0,0.0,0.0,0.0,0.0,0.0,0.0,0.0,0.0,0.0,0.0,0.0,0.0,0.0,0.0,0.0,0.0,0.0,0.0,0.0,0.0,0.0,0.0,0.0,0.0,0.0,0.0,0.0,0.0,0.0,0.0,0.0,0.0,0.0,0.0,0.0,0.0,0.0,0.0,0.0,0.0,0.0,0.0,0.0,0.0,0.0,0.0,0.0,0.0,0.0,0.0,0.0,0.0,0.0,0.0,0.0,0.0,0.0,0.0,0.0,0.0,0.0,0.0,0.0,0.0,0.0,0.0,0.0,0.0,0.0,0.0,0.0,0.0,0.0,0.0,0.0,0.0,0.0,0.0,0.0,0.0,0.0,0.0,0.0,0.0,0.0,0.0,0.0,0.0,0.0,0.0,0.0,0.0,0.0,0.0,0.0,0.0,0.0,0.0,0.0,0.0,0.0,0.0,0.0,0.0,0.0,0.0,0.0,0.0,0.0,0.0,0.0,0.0,0.0,0.0,0.0,0.0,0.0,0.0,0.0,0.0,0.0,0.0,0.0,0.0,0.0,0.0,0.0,0.0,0.0,0.0,0.0,0.0,0.0,0.0,0.0,0.0,0.0,0.0,0.0,0.0,0.0,0.0,0.0,0.0,0.0,0.0,0.0,0.0,0.0,0.0,0.0,-0.2216,0.0,0.0,0.0,0.0,0.0,0.0,0.0,0.0,0.0,0.0,0.0,0.0,0.0,0.0,0.0,0.0,0.0,0.0,0.0,0.0,0.0,0.0,0.0,0.0,0.0,0.0,0.0,0.0,0.0,0.0,0.0,0.0,0.0,0.0,0.0,0.0,0.0,0.0,0.0,0.0,0.0,0.0,0.0,0.0,0.0,0.0,0.0,0.0,0.0,0.0,0.0,0.0,0.0,0.0,0.0,0.0,0.0,0.0,0.0,0.0,0.0,0.0,0.0,0.0,0.0,0.0,0.0,0.0,0.0,0.0,0.0,0.0,0.0,0.0,0.0,0.0,0.0,0.0,0.0,0.0,0.0,0.0,0.0,0.0,0.0,0.0,0.0,0.0,0.0,0.0,0.0,0.0,0.0,0.0,0.0,0.0,0.0,0.0,0.0,0.0,0.0,0.0,0.0,0.0,0.0,0.0,0.0,0.0,0.0,0.0,-0.3116,-0.3136,-0.2924,-0.2725,-0.2529,0.0,0.0,0.0,0.0,0.0,0.0,0.0,0.0,0.0,0.0,0.0,0.0,0.0,0.0,0.0,0.0,0.0,0.0,0.0,0.0,0.0,0.0,0.0,0.0,0.0,0.0,0.0,0.0,0.0,0.0,0.0,0.0,0.0,0.0,0.0,0.0,0.0,0.0,0.0,0.0,0.0,0.0,0.0,0.0,0.0,0.0,0.0,0.0,0.0,0.0,0.0,0.0,0.0,0.0,0.0,0.0,0.0,0.0,0.0,0.0,0.0,0.0,0.0,0.0,0.0,0.0,0.0,0.0,0.0,0.0,0.0,0.0,0.0,0.0,0.0,0.0,0.0,0.0,0.0,0.0,0.0,0.0,0.0,0.0,0.0,0.0,0.0,0.0,0.0,0.0,0.0,0.0,0.0,0.0,0.0,0.0,0.0,0.0,0.0,0.0,0.0,0.0,0.0,0.0,0.0,0.0,0.0,0.0,0.0,0.0,0.0,0.0,-0.3374,-0.3159,-0.2924,0.0,0.0,0.0,0.0,0.0,0.0,0.0,0.0,0.0,0.0,0.0,0.0,0.0,0.0,0.0,0.0,0.0,0.0,0.0,0.0,0.0,0.0,0.0,0.0,0.0,0.0,0.0,0.0,0.0,0.0,0.0,0.0,0.0,0.0,0.0,0.0,0.0,0.0,0.0,0.0,0.0,0.0,0.0,0.0,0.0,0.0,0.0,0.0,0.0,0.0,0.0,0.0,0.0,0.0,0.0,0.0,0.0,0.0,0.0,0.0,0.0,0.0,0.0,0.0,0.0,0.0,0.0,0.0,0.0,0.0,0.0,0.0,0.0,0.0,0.0,0.0,0.0,0.0,0.0,0.0,0.0,0.0,0.0,0.0,0.0,0.0,0.0,0.0,0.0,0.0,0.0,0.0,0.0,0.0,0.0,0.0,0.0,0.0,0.0,0.0,0.0,0.0,0.0,0.0,0.0,0.0,0.0,0.0,0.0,0.0,-0.4038,-0.4038,-0.3843,0.0,-0.337,0.0,0.0,0.0,0.0,0.0,0.0,0.0,0.0,0.0,0.0,0.0,0.0,0.0,0.0,0.0,0.0,0.0,0.0,0.0,0.0,0.0,0.0,0.0,0.0,0.0,0.0,0.0,0.0,0.0,0.0,0.0,0.0,0.0,0.0,0.0,0.0,0.0,0.0,0.0,0.0,0.0,0.0,0.0,0.0,0.0,0.0,0.0,0.0,0.0,0.0,0.0,0.0,0.0,0.0,0.0,0.0,0.0,0.0,0.0,0.0,0.0,0.0,0.0,0.0,0.0,0.0,0.0,0.0,0.0,0.0,0.0,0.0,0.0,0.0,0.0,0.0,0.0,0.0,0.0,0.0,0.0,0.0,0.0,0.0,0.0,0.0,0.0,0.0,0.0,0.0,0.0,0.0,0.0,0.0,0.0,0.0,0.0,0.0,0.0,0.0,0.0,0.0,0.0,0.0,0.0,0.0,0.0,0.0,0.0,0.0,-0.4818,-0.4818,-0.4384,-0.4058,0.0,0.0,0.0,0.0,0.0,0.0,0.0,0.0,0.0,0.0,0.0,0.0,0.0,0.0,0.0,0.0,0.0,0.0,0.0,0.0,0.0,0.0,0.0,0.0,0.0,0.0,0.0,0.0,0.0,0.0,0.0,0.0,0.0,0.0,0.0,0.0,0.0,0.0,0.0,0.0,0.0,0.0,0.0,0.0,0.0,0.0,0.0,0.0,0.0,0.0,0.0,0.0,0.0,0.0,0.0,0.0,0.0,0.0,0.0,0.0,0.0,0.0,0.0,0.0,0.0,0.0,0.0,0.0,0.0,0.0,0.0,0.0,0.0,0.0,0.0,0.0,0.0,0.0,0.0,0.0,0.0,0.0,0.0,0.0,0.0,0.0,0.0,0.0,0.0,0.0,0.0,0.0,0.0,0.0,0.0,0.0,0.0,0.0,0.0,0.0,0.0,0.0,0.0,0.0,0.0,0.0,0.0,0.0,0.0,0.0,-0.5789,-0.5628,-0.5531,-0.5065,-0.4715,-0.4521,0.0,0.0,0.0,0.0,0.0,0.0,0.0,0.0,0.0,0.0,0.0,0.0,0.0,0.0,0.0,0.0,0.0,0.0,0.0,0.0,0.0,0.0,0.0,0.0,0.0,0.0,0.0,0.0,0.0,0.0,0.0,0.0,0.0,0.0,0.0,0.0,0.0,0.0,0.0,0.0,0.0,0.0,0.0,0.0,0.0,0.0,0.0,0.0,0.0,0.0,0.0,0.0,0.0,0.0,0.0,0.0,0.0,0.0,0.0,0.0,0.0,0.0,0.0,0.0,0.0,0.0,0.0,0.0,0.0,0.0,0.0,0.0,0.0,0.0,0.0,0.0,0.0,0.0,0.0,0.0,0.0,0.0,0.0,0.0,0.0,0.0,0.0,0.0,0.0,0.0,0.0,0.0,0.0,0.0,0.0,0.0,0.0,0.0,0.0,0.0,0.0,0.0,0.0,0.0,0.0,0.0,0.0,0.0,-0.7123,-0.6737,-0.6421,-0.6183,-0.5977,-0.5744,0.0,0.0,0.0,0.0,0.0,0.0,0.0,0.0,0.0,0.0,0.0,0.0,0.0,0.0,0.0,0.0,0.0,0.0,0.0,0.0,0.0,0.0,0.0,0.0,0.0,0.0,0.0,0.0,0.0,0.0,0.0,0.0,0.0,0.0,0.0,0.0,0.0,0.0,0.0,0.0,0.0,0.0,0.0,0.0,0.0,0.0,0.0,0.0,0.0,0.0,0.0,0.0,0.0,0.0,0.0,0.0,0.0,0.0,0.0,0.0,0.0,0.0,0.0,0.0,0.0,0.0,0.0,0.0,0.0,0.0,0.0,0.0,0.0,0.0,0.0,0.0,0.0,0.0,0.0,0.0,0.0,0.0,0.0,0.0,0.0,0.0,0.0,0.0,0.0,0.0,0.0,0.0,0.0,0.0,0.0,0.0,0.0,0.0,0.0,0.0,0.0,0.0,0.0,0.0,0.0,0.0,0.0,0.0,0.0,-0.7759,-0.7499,-0.7211,-0.6857,-0.6645,-0.6305,0.0,0.0,0.0,0.0,0.0,0.0,0.0,0.0,0.0,0.0,0.0,0.0,0.0,0.0,0.0,0.0,0.0,0.0,0.0,0.0,0.0,0.0,0.0,0.0,0.0,0.0,0.0,0.0,0.0,0.0,0.0,0.0,0.0,0.0,0.0,0.0,0.0,0.0,0.0,0.0,0.0,0.0,0.0,0.0,0.0,0.0,0.0,0.0,0.0,0.0,0.0,0.0,0.0,0.0,0.0,0.0,0.0,0.0,0.0,0.0,0.0,0.0,0.0,0.0,0.0,0.0,0.0,0.0,0.0,0.0,0.0,0.0,0.0,0.0,0.0,0.0,0.0,0.0,0.0,0.0,0.0,0.0,0.0,0.0,0.0,0.0,0.0,0.0,0.0,0.0,0.0,0.0,0.0,0.0,0.0,0.0,0.0,0.0,0.0,0.0,0.0,0.0,0.0,0.0,0.0,0.0,0.0,0.0,0.0,-0.8485,0.0,-0.8093,-0.7702,-0.7442,-0.7076,0.0,0.0,0.0,0.0,0.0,0.0,0.0,0.0,0.0,0.0,0.0,0.0,0.0,0.0,0.0,0.0,0.0,0.0,0.0,0.0,0.0,0.0,0.0,0.0,0.0,0.0,0.0,0.0,0.0,0.0,0.0,0.0,0.0,0.0,0.0,0.0,0.0,0.0,0.0,0.0,0.0,0.0,0.0,0.0,0.0,0.0,0.0,0.0,0.0,0.0,0.0,0.0,0.0,0.0,0.0,0.0,0.0,0.0,0.0,0.0,0.0,0.0,0.0,0.0,0.0,0.0,0.0,0.0,0.0,0.0,0.0,0.0,0.0,0.0,0.0,0.0,0.0,0.0,0.0,0.0,0.0,0.0,0.0,0.0,0.0,0.0,0.0,0.0,0.0,0.0,0.0,0.0,0.0,0.0,0.0,0.0,0.0,0.0,0.0,0.0,0.0,0.0,0.0,0.0,0.0,0.0,0.0,0.0,-0.9738,-0.9351,-0.9332,-0.9123,-0.8703,-0.8321,-0.8111,0.0,0.0,0.0,0.0,0.0,0.0,0.0,0.0,0.0,0.0,0.0,0.0,0.0,0.0,0.0,0.0,0.0,0.0,0.0,0.0,0.0,0.0,0.0,0.0,0.0,0.0,0.0,0.0,0.0,0.0,0.0,0.0,0.0,0.0,0.0,0.0,0.0,0.0,0.0,0.0,0.0,0.0,0.0,0.0,0.0,0.0,0.0,0.0,0.0,0.0,0.0,0.0,0.0,0.0,0.0,0.0,0.0,0.0,0.0,0.0,0.0,0.0,0.0,0.0,0.0,0.0,0.0,0.0,0.0,0.0,0.0,0.0,0.0,0.0,0.0,0.0,0.0,0.0,0.0,0.0,0.0,0.0,0.0,0.0,0.0,0.0,0.0,0.0,0.0,0.0,0.0,0.0,0.0,0.0,0.0,0.0,0.0,0.0,0.0,0.0,0.0,0.0,0.0,0.0,0.0,0.0,0.0,0.0,0.0,-1.0638,-1.0473,-1.0134,-0.9611,-0.935,-0.8855,0.0,0.0,0.0,0.0,0.0,0.0,0.0,0.0,0.0,0.0,0.0,0.0,0.0,0.0,0.0,0.0,0.0,0.0,0.0,0.0,0.0,0.0,0.0,0.0,0.0,0.0,0.0,0.0,0.0,0.0,0.0,0.0,0.0,0.0,0.0,0.0,0.0,0.0,0.0,0.0,0.0,0.0,0.0,0.0,0.0,0.0,0.0,0.0,0.0,0.0,0.0,0.0,0.0,0.0,0.0,0.0,0.0,0.0,0.0,0.0,0.0,0.0,0.0,0.0,0.0,0.0,0.0,0.0,0.0,0.0,0.0,0.0,0.0,0.0,0.0,0.0,0.0,0.0,0.0,0.0,0.0,0.0,0.0,0.0,0.0,0.0,0.0,0.0,0.0,0.0,0.0,0.0,0.0,0.0,0.0,0.0,0.0,0.0,0.0,0.0,0.0,0.0,0.0,0.0,0.0,0.0,0.0,0.0,0.0,-1.2359,-1.1807,-1.1316,-1.0875,-1.0354,-0.9682,-0.8826,0.0,0.0,0.0,0.0,0.0,0.0,0.0,0.0,0.0,0.0,0.0,0.0,0.0,0.0,0.0,0.0,0.0,0.0,0.0,0.0,0.0,0.0,0.0,0.0,0.0,0.0,0.0,0.0,0.0,0.0,0.0,0.0,0.0,0.0,0.0,0.0,0.0,0.0,0.0,0.0,0.0,0.0,0.0,0.0,0.0,0.0,0.0,0.0,0.0,0.0,0.0,0.0,0.0,0.0,0.0,0.0,0.0,0.0,0.0,0.0,0.0,0.0,0.0,0.0,0.0,0.0,0.0,0.0,0.0,0.0,0.0,0.0,0.0,0.0,0.0,0.0,0.0,0.0,0.0,0.0,0.0,0.0,0.0,0.0,0.0,0.0,0.0,0.0,0.0,0.0,0.0,0.0,0.0,0.0,0.0,0.0,0.0,0.0,0.0,0.0,0.0,0.0,0.0,0.0,0.0,0.0,0.0,0.0,-1.4366,-1.334,-1.2657,-1.2353,-1.1382,-1.0598,0.0,0.0,0.0,0.0,0.0,0.0,0.0,0.0,0.0,0.0,0.0,0.0,0.0,0.0,0.0,0.0,0.0,0.0,0.0,0.0,0.0,0.0,0.0,0.0,0.0,0.0,0.0,0.0,0.0,0.0,0.0,0.0,0.0,0.0,0.0,0.0,0.0,0.0,0.0,0.0,0.0,0.0,0.0,0.0,0.0,0.0,0.0,0.0,0.0,0.0,0.0,0.0,0.0,0.0,0.0,0.0,0.0,0.0,0.0,0.0,0.0,0.0,0.0,0.0,0.0,0.0,0.0,0.0,0.0,0.0,0.0,0.0,0.0,0.0,0.0,0.0,0.0,0.0,0.0,0.0,0.0,0.0,0.0,0.0,0.0,0.0,0.0,0.0,0.0,0.0,0.0,0.0,0.0,0.0,0.0,0.0,0.0,0.0,0.0,0.0,0.0,0.0,0.0,0.0,0.0,0.0,0.0,0.0,0.0,-1.5238,-1.5194,-1.4595,-1.3365,-1.2741,-1.1862,0.0,0.0,0.0,0.0,0.0,0.0,0.0,0.0,0.0,0.0,0.0,0.0,0.0,0.0,0.0,0.0,0.0,0.0,0.0,0.0,0.0,0.0,0.0,0.0,0.0,0.0,0.0,0.0,0.0,0.0,0.0,0.0,0.0,0.0,0.0,0.0,0.0,0.0,0.0,0.0,0.0,0.0,0.0,0.0,0.0,0.0,0.0,0.0,0.0,0.0,0.0,0.0,0.0,0.0,0.0,0.0,0.0,0.0,0.0,0.0,0.0,0.0,0.0,0.0,0.0,0.0,0.0,0.0,0.0,0.0,0.0,0.0,0.0,0.0,0.0,0.0,0.0,0.0,0.0,0.0,0.0,0.0,0.0,0.0,0.0,0.0,0.0,0.0,0.0,0.0,0.0,0.0,0.0,0.0,0.0,0.0,0.0,0.0,0.0,0.0,0.0,0.0,0.0,0.0,0.0,0.0,0.0,0.0,-1.5532,-1.617,-1.6412,-1.6062,-1.5114,-1.3817,-1.2574,0.0,0.0,0.0,0.0,0.0,0.0,0.0,0.0,0.0,0.0,0.0,0.0,0.0,0.0,0.0,0.0,0.0,0.0,0.0,0.0,0.0,0.0,0.0,0.0,0.0,0.0,0.0,0.0,0.0,0.0,0.0,0.0,0.0,0.0,0.0,0.0,0.0,0.0,0.0,0.0,0.0,0.0,0.0,0.0,0.0,0.0,0.0,0.0,0.0,0.0,0.0,0.0,0.0,0.0,0.0,0.0,0.0,0.0,0.0,0.0,0.0,0.0,0.0,0.0,0.0,0.0,0.0,0.0,0.0,0.0,0.0,0.0,0.0,0.0,0.0,0.0,0.0,0.0,0.0,0.0,0.0,0.0,0.0,0.0,0.0,0.0,0.0,0.0,0.0,0.0,0.0,0.0,0.0,0.0,0.0,0.0,0.0,0.0,0.0,0.0,0.0,0.0,0.0,0.0,0.0,0.0,0.0,0.0,-1.603,-1.7095,-1.7188,-1.7155,-1.7006,-1.4774,-1.3,0.0,0.0,0.0,0.0,0.0,0.0,0.0,0.0,0.0,0.0,0.0,0.0,0.0,0.0,0.0,0.0,0.0,0.0,0.0,0.0,0.0,0.0,0.0,0.0,0.0,0.0,0.0,0.0,0.0,0.0,0.0,0.0,0.0,0.0,0.0,0.0,0.0,0.0,0.0,0.0,0.0,0.0,0.0,0.0,0.0,0.0,0.0,0.0,0.0,0.0,0.0,0.0,0.0,0.0,0.0,0.0,0.0,0.0,0.0,0.0,0.0,0.0,0.0,0.0,0.0,0.0,0.0,0.0,0.0,0.0,0.0,0.0,0.0,0.0,0.0,0.0,0.0,0.0,0.0,0.0,0.0,0.0,0.0,0.0,0.0,0.0,0.0,0.0,0.0,0.0,0.0,0.0,0.0,0.0,0.0,0.0,0.0,0.0,0.0,0.0,0.0,0.0,0.0,0.0,0.0,0.0,0.0,0.0,-1.6708,-1.7846,-1.7884,-1.776,-1.7482,-1.5496,-1.3803,0.0,0.0,0.0,0.0,0.0,0.0,0.0,0.0,0.0,0.0,0.0,0.0,0.0,0.0,0.0,0.0,0.0,0.0,0.0,0.0,0.0,0.0,0.0,0.0,0.0,0.0,0.0,0.0,0.0,0.0,0.0,0.0,0.0,0.0,0.0,0.0,0.0,0.0,0.0,0.0,0.0,0.0,0.0,0.0,0.0,0.0,0.0,0.0,0.1375,0.0,0.0,0.0,0.0,0.0,0.0,0.0,0.0,0.0,0.0,0.0,0.0,0.0,0.0,0.0,0.0,0.0,0.0,0.0,0.0,0.0,0.0,0.0,0.0,0.0,0.0,0.0,0.0,0.0,0.0,0.0,0.0,0.0,0.0,0.0,0.0,0.0,0.0,0.0,0.0,0.0,0.0,0.0,0.0,0.0,0.0,0.0,0.0,0.0,0.0,0.0,0.0,0.0,0.0,0.0,0.0,0.0,0.0,0.0,-1.7185,-1.8337,-1.8403,-1.8218,-1.7685,-1.6166,-1.4524,0.0,0.0,0.0,0.0,0.0,0.0,0.0,0.0,0.0,0.0,0.0,0.0,0.0,0.0,0.0,0.0,0.0,0.0,0.0,0.0,0.0,0.0,0.0,0.0,0.0,0.0,0.0,0.0,0.0,0.0,0.0,0.0,0.0,0.0,0.0,0.0,0.0,0.0,0.0,0.0,0.0,0.0,0.0,0.0,0.0,0.0,0.0,0.0,0.0,0.0,0.0,0.0,0.0,0.0,0.0,0.0,0.0,0.0,0.0,0.0,0.0,0.0,0.0,0.0,0.0,0.0,0.0,0.0,0.0,0.0,0.0,0.0,0.0,0.0,0.0,0.0,0.0,0.0,0.0,0.0,0.0,0.0,0.0,0.0,0.0,0.0,0.0,0.0,0.0,0.0,0.0,0.0,0.0,0.0,0.0,0.0,0.0,0.0,0.0,0.0,0.0,0.0,0.0,0.0,0.0,0.0,0.0,-1.6661,-1.7599,-1.8862,-1.8957,-1.8687,-1.8077,-1.6733,-1.5098,-1.3147,0.0,0.0,0.0,0.0,0.0,0.0,0.0,0.0,0.0,0.0,0.0,0.0,0.0,0.0,0.0,0.0,0.0,0.0,0.0,0.0,0.0,0.0,0.0,0.0,0.0,0.0,0.0,0.0,0.0,0.0,0.0,0.0,0.0,0.0,0.0,0.0,0.0,0.0,-0.9772,-0.9433,0.0,0.0,0.0,0.0,0.0,0.0,0.0,0.0,0.0349,0.0,0.0,0.0,0.0,0.0,0.0,0.0,0.0,0.0,0.0,0.0,0.0,0.0,0.0,0.0,0.0,0.0,0.0,0.0,0.0,0.0,0.0,0.0,0.0,0.0,0.0,0.0,0.0,0.0,0.0,0.0,0.0,0.0,0.0,0.0,0.0,0.0,0.0,0.0,0.0,0.0,0.0,0.0,0.0,0.0,0.0,0.0,0.0,0.0,0.0,0.0,0.0,0.0,0.0,0.0,0.0,-1.7437,-1.7582,-1.8431,-1.9991,-1.9822,-1.9435,-1.8802,-1.703,-1.5247,-1.3472,0.0,0.0,0.0,0.0,0.0,0.0,0.0,0.0,0.0,0.0,0.0,0.0,0.0,0.0,0.0,0.0,0.0,0.0,0.0,0.0,0.0,0.0,0.0,0.0,0.0,0.0,0.0,0.0,0.0,0.0,0.0,0.0,0.0,0.0,0.0,0.0,0.0,0.0,0.0,-1.1821,-1.1227,0.0,0.0,0.0,0.0,0.0,0.0,0.0,0.0,0.0028,0.0,0.0,0.0,0.0,0.0,0.0,0.0,0.0,0.0,0.0,0.0,0.0,0.0,0.0,0.0,0.0,0.0,0.0,0.0,0.0,0.0,0.0,0.0,0.0,0.0,0.0,0.0,0.0,0.0,0.0,0.0,0.0,0.0,0.0,0.0,0.0,0.0,0.0,0.0,0.0,0.0,0.0,0.0,0.0,0.0,0.0,0.0,0.0,0.0,0.0,0.0,0.0,0.0,0.0,0.0,-1.7942,-1.8305,-1.9062,-2.0235,-2.0178,-1.9698,-1.884,-1.732,-1.5526,0.0,0.0,0.0,0.0,0.0,0.0,0.0,0.0,0.0,0.0,0.0,0.0,0.0,0.0,0.0,0.0,0.0,0.0,0.0,0.0,0.0,0.0,0.0,0.0,0.0,0.0,0.0,0.0,0.0,0.0,0.0,0.0,0.0,0.0,0.0,0.0,0.0,0.0,0.0,0.0,-1.369,-1.345,-1.2992,0.0,0.0,0.0,0.0,0.0,0.0,-0.2651,-0.1304,0.0,0.0,0.0,0.0,0.0,0.0,0.0,0.0,0.0,0.0,0.0,0.0,0.0,0.0,0.0,0.0,0.0,0.0,0.0,0.0,0.0,0.0,0.0,0.0,0.0,0.0,0.0,0.0,0.0,0.0,0.0,0.0,0.0,0.0,0.0,0.0,0.0,0.0,0.0,0.0,0.0,0.0,0.0,0.0,0.0,0.0,0.0,0.0,0.0,0.0,0.0,0.0,0.0,0.0,0.0,-1.8469,-1.9085,-1.9822,-2.0726,-2.0629,-2.0099,-1.9075,-1.7552,-1.5792,0.0,0.0,0.0,0.0,0.0,0.0,0.0,0.0,0.0,0.0,0.0,0.0,0.0,0.0,0.0,0.0,0.0,0.0,0.0,0.0,0.0,0.0,0.0,0.0,0.0,0.0,0.0,0.0,0.0,0.0,0.0,0.0,0.0,0.0,0.0,0.0,0.0,0.0,0.0,0.0,0.0,-1.5529,-1.5501,-1.4541,0.0,0.0,0.0,0.0,-0.6189,-0.4513,0.0,0.0,0.0,0.0,0.0,0.0,0.0,0.0,0.0,0.0,0.0,0.0,0.0,0.0,0.0,0.0,0.0,0.0,0.0,0.0,0.0,0.0,0.0,0.0,0.0,0.0,0.0,0.0,0.0,0.0,0.0,0.0,0.0,0.0,0.0,0.0,0.0,0.0,0.0,0.0,0.0,0.0,0.0,0.0,0.0,0.0,0.0,0.0,0.0,0.0,0.0,0.0,0.0,0.0,0.0,0.0,-1.9553,-2.004,-2.0915,-2.2231,-2.1753,-2.1073,-2.0285,-1.7852,-1.5908,0.0,0.0,0.0,0.0,0.0,0.0,0.0,0.0,0.0,0.0,0.0,0.0,0.0,0.0,0.0,0.0,0.0,0.0,0.0,0.0,0.0,0.0,0.0,0.0,0.0,0.0,0.0,0.0,0.0,0.0,0.0,0.0,0.0,0.0,0.0,0.0,0.0,0.0,0.0,0.0,0.0,-1.7318,-1.7293,-1.653,-1.5314,0.0,0.0,-1.0739,-0.8842,-0.7491,0.0,0.0,0.0,0.0,0.0,0.0,0.0,0.0,0.0,0.0,0.0,0.0,0.0,0.0,0.0,0.0,0.0,0.0,0.0,0.0,0.0,0.0,0.0,0.0,0.0,0.0,0.0,0.0,0.0,0.0,0.0,0.0,0.0,0.0,0.0,0.0,0.0,0.0,0.0,0.0,0.0,0.0,0.0,0.0,0.0,0.0,0.0,0.0,0.0,0.0,0.0,0.0,0.0,0.0,0.0,-1.8257,-1.9771,-2.0513,-2.1479,-2.2552,-2.2173,-2.1462,-2.053,-1.8494,-1.6643,0.0,0.0,0.0,0.0,0.0,0.0,0.0,0.0,0.0,0.0,0.0,0.0,0.0,0.0,0.0,0.0,0.0,0.0,0.0,0.0,0.0,0.0,0.0,0.0,0.0,0.0,0.0,0.0,0.0,0.0,0.0,0.0,0.0,0.0,0.0,0.0,0.0,0.0,0.0,0.0,0.0,0.0,-1.9332,-1.9037,0.0,0.0,0.0,-1.3659,-1.1579,0.0,0.0,0.0,0.0,0.0,0.0,0.0,0.0,0.0,0.0,0.0,0.0,0.0,0.0,0.0,0.0,0.0,0.0,0.0,0.0,0.0,0.0,0.0,0.0,0.0,0.0,0.0,0.0,0.0,0.0,0.0,0.0,0.0,0.0,0.0,0.0,0.0,0.0,0.0,0.0,0.0,0.0,0.0,0.0,0.0,0.0,0.0,0.0,0.0,0.0,0.0,0.0,0.0,0.0,0.0,0.0,0.0,-2.0058,-2.1113,-2.212,-2.2931,-2.2572,-2.19,-2.0877,-1.9219,0.0,0.0,0.0,0.0,0.0,0.0,0.0,0.0,0.0,0.0,0.0,0.0,0.0,0.0,0.0,0.0,0.0,0.0,0.0,0.0,0.0,0.0,0.0,0.0,0.0,0.0,0.0,-0.9631,0.0,0.0,0.0,0.0,0.0,0.0,0.0,0.0,0.0,0.0,0.0,0.0,0.0,0.0,-2.0701,-2.1119,-2.1185,-2.0621,0.0,0.0,-1.6331,-1.4104,-1.2083,-0.9985,0.0,0.0,0.0,0.0,0.0,0.0,0.0,0.0,0.0,0.0,0.0,0.0,0.0,0.0,0.0,0.0,0.0,0.0,0.0,0.0,0.0,0.0,0.0,0.0,0.0,0.0,0.0,0.0,0.0,0.0,0.0,0.0,0.0,0.0,0.0,0.0,0.0,0.0,0.0,0.0,0.0,0.0,0.0,0.0,0.0,0.0,0.0,0.0,0.0,0.0,0.0,0.0,0.0,0.0,0.0,-2.0722,-2.202,-2.3121,-2.4042,-2.3224,-2.2498,-2.1892,-1.9917,-1.8197,0.0,0.0,0.0,0.0,0.0,0.0,0.0,0.0,0.0,0.0,0.0,0.0,0.0,0.0,0.0,0.0,0.0,0.0,0.0,0.0,0.0,0.0,0.0,0.0,0.0,0.0,0.0,0.0,0.0,0.0,0.0,0.0,0.0,0.0,0.0,0.0,0.0,0.0,0.0,0.0,0.0,-2.1536,-2.2369,-2.2467,-2.2052,0.0,0.0,-1.8327,-1.6153,-1.4936,-1.324,-1.0229,0.0,0.0,0.0,0.0,0.0,0.0,0.0,0.0,0.0,0.0,0.0,0.0,0.0,0.0,0.0,0.0,0.0,0.0,0.0,0.0,0.0,0.0,0.0,0.0,0.0,0.0,0.0,0.0,0.0,0.0,0.0,0.0,0.0,0.0,0.0,0.0,0.0,0.0,0.0,0.0,0.0,0.0,0.0,0.0,0.0,0.0,0.0,0.0,0.0,0.0,0.0,0.0,0.0,-1.9225,-2.0674,-2.1758,-2.2769,-2.3662,-2.3345,-2.2705,-2.1773,-2.0649,-1.9174,0.0,0.0,0.0,0.0,0.0,0.0,0.0,0.0,0.0,0.0,0.0,0.0,0.0,0.0,0.0,0.0,0.0,0.0,0.0,0.0,0.0,0.0,0.0,0.0,0.0,0.0,0.0,0.0,-1.0636,-1.0733,-1.0819,0.0,0.0,0.0,0.0,0.0,0.0,0.0,0.0,0.0,0.0,-2.1895,-2.2777,-2.3255,0.0,0.0,-2.1546,-2.0389,-1.8606,-1.678,-1.4787,-1.2352,-1.0638,0.0,0.0,0.0,0.0,0.0,0.0,0.0,0.0,0.0,0.0,0.0,0.0,0.0,0.0,0.0,0.0,0.0,0.0,0.0,0.0,0.0,0.0,0.0,0.0,0.0,0.0,0.0,0.0,0.0,0.0,0.0,0.0,0.0,0.0,0.0,0.0,0.0,0.0,0.0,0.0,0.0,0.0,0.0,0.0,0.0,0.0,0.0,0.0,0.0,0.0,0.0,0.0,-1.9251,-2.0459,-2.1494,-2.2403,-2.3113,-2.3038,-2.259,-2.167,-2.108,-1.9838,0.0,0.0,0.0,0.0,0.0,0.0,0.0,0.0,0.0,0.0,0.0,0.0,0.0,0.0,0.0,0.0,0.0,0.0,0.0,0.0,0.0,0.0,0.0,0.0,0.0,0.0,0.0,0.0,-1.0707,-1.0791,-1.0791,0.0,0.0,0.0,0.0,0.0,0.0,0.0,0.0,0.0,0.0,-2.2045,-2.2989,-2.3599,-2.3726,-2.3046,-2.2334,-2.1307,-1.987,-1.7928,-1.5968,-1.4134,0.0,0.0,0.0,0.0,0.0,0.0,0.0,0.0,0.0,0.0,0.0,0.0,0.0,0.0,0.0,0.0,0.0,0.0,0.0,0.0,0.0,0.0,0.0,0.0,0.0,0.0,0.0,0.0,0.0,0.0,-1.7002,0.0,0.0,0.0,0.0,0.0,0.0,0.0,0.0,0.0,0.0,0.0,0.0,0.0,0.0,0.0,0.0,0.0,0.0,0.0,0.0,0.0,0.0,-1.9627,-2.0235,-2.1436,-2.224,-2.251,-2.2257,-2.1988,-2.1692,-2.1112,-2.0124,-1.8686,0.0,0.0,0.0,0.0,0.0,0.0,0.0,0.0,0.0,0.0,0.0,0.0,0.0,0.0,0.0,0.0,0.0,0.0,0.0,0.0,0.0,0.0,0.0,0.0,0.0,0.0,-1.0309,-1.0716,-1.098,0.0,0.0,0.0,0.0,0.0,0.0,0.0,0.0,0.0,0.0,-2.0716,-2.2023,-2.2928,-2.336,-2.3326,-2.2711,-2.1828,-2.0788,-1.9546,-1.8282,-1.6985,0.0,0.0,0.0,0.0,0.0,0.0,0.0,0.0,0.0,0.0,0.0,0.0,0.0,0.0,0.0,0.0,0.0,0.0,0.0,0.0,0.0,0.0,0.0,0.0,0.0,0.0,0.0,-1.8961,-1.8673,0.0,0.0,0.0,0.0,0.0,0.0,0.0,0.0,0.0,0.0,0.0,-1.9152,-1.8889,0.0,0.0,0.0,0.0,0.0,0.0,0.0,0.0,0.0,0.0,0.0,0.0,-1.9129,-1.9982,-2.1047,-2.17,-2.1954,-2.1878,-2.1623,-2.119,-2.0976,-2.0006,-1.8213,0.0,0.0,0.0,0.0,0.0,0.0,0.0,0.0,0.0,0.0,0.0,0.0,0.0,0.0,0.0,0.0,0.0,0.0,0.0,0.0,0.0,0.0,0.0,0.0,0.0,-1.0417,0.0,0.0,0.0,0.0,0.0,0.0,0.0,0.0,0.0,0.0,0.0,-1.7071,-1.8364,-1.9497,-2.06,-2.173,-2.2009,-2.2038,0.0,0.0,0.0,0.0,0.0,0.0,0.0,0.0,0.0,0.0,0.0,0.0,0.0,0.0,-0.9738,-0.8441,-0.7886,-0.7433,-0.6874,0.0,0.0,0.0,0.0,0.0,0.0,0.0,0.0,0.0,0.0,0.0,0.0,0.0,0.0,-1.9336,0.0,-1.8336,0.0,0.0,0.0,0.0,0.0,0.0,0.0,0.0,-1.9128,-1.9365,-1.925,-1.9224,-1.8988,0.0,-1.7151,-1.5889,0.0,0.0,0.0,0.0,0.0,0.0,0.0,0.0,-1.8413,-1.9216,-2.0315,-2.098,-2.1177,-2.1392,-2.1211,-2.0659,-2.0246,-1.9335,-1.7855,-1.6495,-1.5308,0.0,0.0,0.0,0.0,0.0,0.0,0.0,0.0,0.0,0.0,0.0,0.0,0.0,0.0,0.0,0.0,0.0,0.0,0.0,0.0,0.0,0.0,0.0,-1.0241,0.0,0.0,0.0,0.0,0.0,0.0,0.0,0.0,0.0,-1.402,-1.5244,-1.6392,-1.7533,-1.8576,-1.9562,-2.047,0.0,0.0,0.0,0.0,0.0,0.0,0.0,-1.683,-1.6204,-1.5159,-1.4222,-1.3613,-1.3111,-1.2738,-1.255,0.0,0.0,-0.9995,-0.9367,-0.883,-0.8119,-0.7659,-0.724,-0.6801,-0.6075,-0.5321,0.0,0.0,0.0,0.0,0.0,0.0,0.0,0.0,-1.9913,-1.9689,0.0,-1.8475,0.0,0.0,0.0,0.0,0.0,-1.7081,0.0,0.0,-1.9211,-1.9431,-1.9175,-1.9459,-1.9192,-1.8394,-1.773,-1.6895,-1.5828,-1.5088,0.0,0.0,0.0,0.0,0.0,0.0,-1.7612,-1.7953,-1.9413,-2.0181,-2.0222,-2.0764,-2.0779,-2.0154,-1.9014,-1.817,-1.7575,-1.6413,-1.5311,-1.4352,-1.3298,0.0,0.0,0.0,0.0,0.0,0.0,0.0,0.0,0.0,0.0,0.0,0.0,0.0,0.0,0.0,0.0,0.0,0.0,0.0,0.0,-0.9943,0.0,0.0,0.0,0.0,0.0,0.0,0.0,0.0,0.0,0.0,-1.3639,-1.474,-1.5742,-1.6736,0.0,0.0,0.0,0.0,-1.9581,-1.9283,-1.8706,-1.8135,-1.7562,-1.6844,-1.6238,-1.5914,0.0,0.0,-1.3761,-1.3403,-1.303,-1.275,-1.2202,-1.1643,-1.1156,-1.0476,-0.9777,-0.8918,-0.8468,-0.8011,-0.7311,-0.6949,-0.6419,-2.0644,0.0,0.0,0.0,0.0,-1.9022,-1.932,-1.9409,-1.9483,-1.9309,-1.8916,-1.8082,0.0,0.0,0.0,0.0,0.0,0.0,-1.6823,-1.7291,-1.8187,-1.8539,-1.8472,-1.8584,-1.8464,-1.8173,-1.7169,-1.6672,-1.6531,-1.5545,-1.4854,-1.4447,0.0,0.0,0.0,0.0,-1.7268,-1.7938,-1.9002,-1.9655,-1.986,-2.0192,-2.0124,-1.9575,-1.8614,-1.7834,-1.7252,-1.6176,-1.5183,-1.4328,-1.3325,0.0,0.0,0.0,0.0,0.0,0.0,0.0,0.0,0.0,0.0,0.0,0.0,0.0,0.0,0.0,0.0,0.0,0.0,0.0,-0.9869,-0.9517,-0.9257,0.0,0.0,0.0,0.0,0.0,0.0,0.0,0.0,0.0,-1.1946,-1.3558,-1.4972,0.0,0.0,-1.709,-1.7581,-1.7594,-1.7523,-1.7577,0.0,0.0,0.0,-1.5872,-1.5449,-1.5329,-1.4468,-1.3723,-1.3576,-1.304,-1.26,-1.2507,-1.2165,-1.1713,-1.1201,-1.0635,-1.0069,-0.9586,-0.932,-0.9004,-0.839,-0.7902,-0.7343,-2.0377,-1.9628,-1.9094,-1.8694,-1.8417,-1.8909,-1.9057,-1.9015,-1.8924,-1.8721,-1.8396,-1.7675,-1.6934,-1.6249,-1.5639,0.0,0.0,0.0,-1.6296,-1.6669,-1.7432,-1.7776,-1.778,-1.7872,-1.7884,-1.775,-1.6832,-1.6478,-1.6543,-1.5477,-1.4761,-1.4397,0.0,0.0,-1.5066,-1.5892,-1.6644,-1.7222,-1.8238,-1.892,-1.9167,-1.9348,-1.9264,-1.8959,-1.799,-1.7256,-1.6794,-1.5706,-1.4833,-1.4115,-1.3107,-1.2278,0.0,0.0,0.0,0.0,0.0,0.0,0.0,0.0,0.0,0.0,0.0,-1.0961,-1.0992,0.0,0.0,0.0,-1.0107,-0.9739,-0.9289,-0.8872,0.0,0.0,0.0,0.0,0.0,0.0,0.0,-0.8934,-0.9428,-1.0024,-1.0756,-1.2098,-1.34,-1.4499,-1.5135,-1.5624,-1.6002,0.0,-1.6148,-1.6022,-1.5707,-1.5396,-1.5123,-1.4741,-1.441,-1.4139,-1.3475,-1.2939,-1.2817,-1.2351,-1.1891,-1.1611,-1.1301,-1.0898,-1.0348,-0.9944,-0.9792,-0.9792,-0.9633,-0.9273,-0.8696,-0.8241,-0.7714,-1.9906,-1.9434,-1.9025,-1.8647,-1.8319,-1.8567,-1.8642,-1.8528,-1.8361,-1.8079,-1.7745,-1.7262,-1.6594,-1.5762,-1.5195,0.0,-1.5772,-1.5805,-1.6071,-1.6573,-1.6912,-1.7047,-1.7081,-1.7375,-1.7403,-1.7223,-1.6662,-1.6271,-1.6043,-1.5125,-1.462,-1.46,-1.4777,-1.474,-1.4548,-1.5265,-1.583,-1.6144,-1.7269,-1.7983,-1.8334,-1.8334,-1.8293,-1.8239,-1.7224,-1.6499,-1.619,-1.5098,-1.4256,-1.3757,-1.2737,-1.1961,-1.15,0.0,0.0,0.0,0.0,0.0,0.0,0.0,0.0,0.0,0.0,0.0,0.0,0.0,0.0,0.0,-0.9432,0.0,-0.8603,-0.8184,0.0,0.0,0.0,-0.8015,-0.8142,-0.8315,-0.84,-0.8371,0.0,0.0,-0.9914,0.0,-1.1286,-1.2552,-1.3753,-1.4471,-1.4471,-1.5029,-1.5198,-1.466,-1.4481,-1.4241,-1.3767,-1.3493,-1.3185,-1.2667,-1.2182,-1.1848,-1.1657,-1.1315,-1.0853,-1.0322,-0.9943,-0.9585,-0.8976,-0.8915,-0.9007,-0.9518,-0.9396,-0.9055,-0.8465,-0.8094,-0.7662,-1.9578,-1.9316,-1.8706,-1.836,-1.8214,-1.8291,-1.823,-1.8077,-1.8016,-1.7857,-1.7602,-1.7047,-1.6382,-1.5615,-1.5499,-1.5509,-1.5658,-1.5929,-1.6093,-1.6244,-1.6573,-1.6709,-1.6743,-1.68,-1.6814,-1.6752,-1.6471,-1.6181,-1.5915,-1.5306,-1.4832,-1.4538,-1.458,-1.446,-1.4223,-1.4393,-1.4844,-1.5591,-1.606,-1.6772,-1.7661,-1.7703,-1.7518,-1.7109,-1.6388,-1.5795,-1.5297,-1.4218,-1.353,-1.3332,-1.2358,-1.167,-1.1283,-1.0707,0.0,0.0,0.0,0.0,0.0,0.0,0.0,0.0,0.0,-1.0012,-1.0019,0.0,-0.9918,0.0,-0.8797,-0.8361,-0.8288,-0.8182,0.0,0.0,-0.7932,-0.7904,-0.7707,-0.8111,-0.8304,-0.8062,-0.8378,-0.8741,-0.8999,-0.9287,-0.9705,-1.044,-1.2026,-1.3239,-1.3496,-1.3651,-1.3806,-1.3828,-1.3478,-1.3123,-1.2919,-1.2472,-1.2041,-1.1805,-1.107,-1.0462,-1.0299,-0.9822,-0.9403,-0.9251,-0.919,-0.8946,-0.8604,-0.8513,-0.8452,-0.8385,-0.8482,-0.8507,-0.808,-0.775,-0.7393,-1.871,-1.8394,-1.7969,-1.7696,-1.7549,-1.7587,-1.7406,-1.7141,-1.7056,-1.6942,-1.6809,-1.6299,-1.5813,-1.5353,-1.5318,-1.5318,-1.5353,-1.5526,-1.563,-1.563,-1.5804,-1.5863,-1.5898,-1.5898,-1.5851,-1.5746,-1.5581,-1.5371,-1.512,-1.4664,-1.4338,-1.4092,-1.402,-1.3854,-1.3645,-1.4086,-1.4591,-1.511,-1.5442,-1.5936,-1.6614,-1.6655,-1.6382,-1.5872,-1.5301,-1.4762,-1.4259,-1.3153,-1.2518,-1.2463,-1.1576,-1.0886,-1.0482,-1.0023,-0.9503,0.0,0.0,0.0,0.0,0.0,0.0,0.0,0.0,0.0,0.0,0.0,-0.9116,-0.8877,-0.8333,-0.7974,-0.7974,-0.7681,-0.7466,-0.7462,-0.7322,-0.7227,-0.7224,-0.7529,-0.7725,-0.7689,-0.787,-0.8152,-0.85,-0.8719,-0.9005,-0.9456,-1.054,-1.155,-1.217,-1.2445,-1.2563,-1.2572,-1.2154,-1.1744,-1.1525,-1.1012,-1.06,-1.0463,-0.9873,-0.9377,-0.9234,-0.899,-0.8763,-0.8618,-0.8508,-0.833,-0.8025,-0.7811,-0.7658,-0.7536,-0.7475,-0.75,-0.7439,-0.7169,-0.6834,-1.7682,-1.7305,-1.7022,-1.6799,-1.6559,-1.6465,-1.6336,-1.6195,-1.6019,-1.5913,-1.5852,-1.5429,-1.5166,-1.5017,-1.5017,-1.5017,-1.5017,-1.5017,-1.5017,-1.5017,-1.5017,-1.5017,-1.5017,-1.5017,-1.492,-1.4754,-1.4587,-1.4445,-1.4278,-1.3857,-1.3655,-1.3629,-1.3436,-1.3242,-1.3089,-1.3984,-1.452,-1.4659,-1.4961,-1.5202,-1.5353,-1.5332,-1.5066,-1.4562,-1.4013,-1.3511,-1.3026,-1.1963,-1.1362,-1.1325,-1.0539,-0.9874,-0.9443,-0.9129,-0.8642,0.0,-0.7618,0.0,0.0,0.0,0.0,0.0,0.0,0.0,0.0,-0.8273,-0.8286,-0.8286,-0.7879,-0.7646,-0.7617,-0.7026,-0.6778,-0.7105,-0.6695,-0.6522,-0.6858,-0.6912,-0.704,-0.7347,-0.7347,-0.7598,-0.8158,-0.8375,-0.8629,-0.8973,-0.9337,-0.9909,-1.0704,-1.1236,-1.1378,-1.1109,-1.0809,-1.0538,-1.0089,-0.9583,-0.9246,-0.9093,-0.8762,-0.8468,-0.8277,-0.8313,-0.8295,-0.8039,-0.7829,-0.7626,-0.7301,-0.6975,-0.6775,-0.6683,-0.6464,-0.6372,-0.6644,-0.6503,-0.6141,-1.7232,-1.6804,-1.6251,-1.5755,-1.5217,-1.4735,-1.5184,-1.6203,-1.616,-1.5975,-1.5659,-1.5236,-1.5043,-1.5017,-1.5017,-1.5017,-1.5017,-1.5017,-1.5017,-1.5017,-1.5017,-1.5017,-1.5017,-1.5017,-1.499,-1.4947,-1.4754,-1.464,-1.4596,-1.4253,-1.3989,-1.3774,-1.3605,-1.3444,-1.3251,0.0,0.0,0.0,-1.4059,-1.4139,-1.4072,-1.3898,-1.3616,-1.319,-1.2599,0.0,-1.1524,-1.063,-1.0097,-0.9967,-0.9265,0.0,0.0,0.0,0.0,0.0,0.0,0.0,0.0,0.0,0.0,0.0,-0.5635,-0.6178,-0.7307,-0.7594,-0.7679,-0.7656,-0.7439,-0.7302,-0.7272,-0.702,-0.6881,-0.6926,-0.6839,-0.6818,-0.6903,-0.7,-0.7084,-0.7146,-0.7146,-0.7238,-0.7465,-0.7665,-0.7849,-0.8007,-0.8535,-0.8994,-0.9226,-0.9883,-1.0375,-1.0536,-1.0171,-0.9812,-0.95,-0.9077,-0.867,-0.8334,-0.79,-0.7506,-0.7122,-0.7027,-0.7023,-0.6935,-0.6966,-0.689,-0.6559,-0.6289,-0.6004,-0.5759,-0.5425,-0.5364,-0.5943,-0.5794,-0.5384,-1.5707,0.0,-1.4697,-1.4301,0.0,-1.354,-1.3781,-1.4478,-1.4623,-1.4356,-1.3876,-1.366,-1.3488,-1.3325,-1.3325,-1.3325,-1.3325,-1.3503,-1.3611,-1.3654,-1.4003,-1.4154,-1.4154,-1.4368,-1.4474,-1.4466,-1.4245,-1.4126,-1.4152,-1.3703,-1.3418,-1.3302,-1.3036,-1.2831,-1.2661,-1.2605,-1.2853,-1.3444,-1.3435,-1.3474,-1.3487,-1.3305,-1.2901,-1.2322,0.0,0.0,0.0,0.0,0.0,0.0,0.0,0.0,0.0,0.0,0.0,-0.654,-0.6154,-0.5876,-0.5666,-0.5382,-0.5223,-0.5268,-0.5091,-0.5353,-0.6203,-0.6551,-0.6701,-0.6701,-0.6598,-0.6566,-0.654,-0.6346,-0.6223,-0.6377,-0.6101,-0.5978,-0.6105,-0.6077,-0.6075,-0.6261,-0.6385,-0.6531,-0.6603,-0.7012,-0.7209,-0.7207,-0.7606,-0.797,-0.813,-0.8831,-0.9382,-0.915,-0.8756,-0.8391,-0.8228,-0.8021,-0.7785,-0.7403,-0.7165,-0.6887,-0.656,-0.6392,-0.6305,-0.6281,-0.6179,-0.5958,-0.5833,-0.5547,-0.5315,-0.5165,-0.4872,-0.4684,-0.493,-0.5021,-0.4989,-1.4027,-1.379,-1.3179,-1.2867,-1.2739,-1.2403,-1.2226,-1.2168,0.0,0.0,0.0,-1.2074,-1.1925,-1.1681,-1.1653,-1.164,-1.164,-1.1936,-1.2101,-1.2101,-1.2717,-1.3003,-1.3003,-1.3325,-1.3511,-1.3496,-1.3326,-1.3263,-1.322,-1.2777,-1.2555,-1.2513,-1.2172,-1.1962,-1.183,-1.1703,-1.2048,-1.2817,-1.2795,-1.2807,-1.2909,-1.2676,-1.2214,-1.1518,-1.1232,-1.0575,-0.9538,-0.9155,-0.88,-0.8422,-0.7834,-0.7436,-0.7253,-0.6637,-0.6058,-0.5511,-0.5219,-0.5071,-0.5042,-0.4808,-0.4777,-0.5111,-0.4882,-0.4889,-0.5294,-0.562,-0.5855,-0.5929,-0.5871,-0.5844,-0.583,-0.5555,-0.5466,-0.5718,-0.5284,-0.506,-0.5293,-0.5104,-0.5108,-0.5302,-0.5582,-0.5732,-0.5763,-0.6228,-0.6588,-0.6474,-0.6679,-0.692,-0.7131,-0.7801,-0.8124,-0.7548,-0.719,-0.6923,-0.6883,-0.6841,-0.6677,-0.6499,-0.6389,-0.6284,-0.6107,-0.5895,-0.5744,-0.5687,-0.5355,-0.5167,-0.5086,-0.4846,-0.4617,-0.4624,-0.438,-0.4071,-0.3835,-0.4105,-0.4301,-1.3365,-1.2858,-1.2424,-1.193,-1.14,-1.093,-1.039,-1.0002,-1.16,-1.2277,-1.2199,-1.2077,-1.2003,-1.1949,-1.182,-1.1759,-1.1789,-1.1739,-1.1671,0.0,-1.1785,-1.185,-1.1857,-1.1893,-1.1929,-1.1922,-1.1901,-1.1858,-1.1844,-1.1642,-1.1531,-1.1482,-1.133,-1.1255,-1.1221,-1.1111,-1.1082,-1.1234,-1.1547,-1.1628,-1.1514,-1.1003,-1.068,-1.0391,-0.9733,-0.905,-0.8355,-0.799,-0.7455,-0.6842,-0.6257,-0.6058,-0.635,-0.5817,-0.5309,-0.5041,-0.4957,-0.4689,-0.4152,-0.406,-0.4032,-0.4105,-0.4119,-0.4496,-0.5291,-0.5444,-0.5602,-0.5921,-0.5683,-0.5588,-0.5623,-0.5308,-0.5142,-0.5213,-0.5152,-0.5065,-0.506,-0.4987,-0.4936,-0.494,-0.4995,-0.5056,-0.5056,-0.5394,-0.5671,-0.5621,-0.5883,-0.6095,-0.6155,-0.6545,-0.6652,-0.6275,-0.6122,-0.6078,-0.6087,-0.6074,-0.5906,-0.5553,-0.5497,-0.5352,-0.5073,-0.4889,-0.4792,-0.4725,-0.4647,-0.4552,-0.4345,-0.4126,-0.3858,-0.3643,-0.3358,-0.3103,-0.3015,-0.2934,-0.2871,-1.1661,-1.1248,-1.082,-1.0455,-1.0185,-0.9845,-0.9482,-0.9208,-0.9987,-1.0317,-1.0248,-1.016,-1.0097,-1.0067,-0.9973,-0.9905,-0.9917,-1.0112,-1.0303,-1.0499,-1.0938,-1.1151,-1.1111,-1.1504,-1.1572,-1.1319,-1.1498,-1.1498,-1.1276,-1.1002,-1.0756,-1.0536,-1.0194,-0.998,-0.9908,-0.9781,-0.9679,-0.9673,-1.0584,-1.1007,-1.0936,-1.0397,-0.9996,-0.9772,-0.91,-0.8507,-0.7919,-0.7685,-0.7291,-0.6583,-0.6117,-0.5861,-0.5838,-0.5239,-0.4802,-0.4673,-0.449,-0.4225,-0.392,-0.395,-0.398,-0.4012,-0.4036,-0.4233,-0.4646,-0.4706,-0.475,-0.4938,-0.4817,-0.4734,-0.4766,-0.464,-0.464,-0.4833,-0.4672,-0.4613,-0.4681,-0.4539,-0.4418,-0.4394,-0.4533,-0.4564,-0.4379,-0.481,-0.5053,-0.493,-0.5145,-0.5298,-0.5141,-0.5266,-0.5497,-0.5552,-0.5479,-0.536,-0.536,-0.536,-0.5284,-0.5099,-0.4992,-0.4877,-0.4651,-0.4452,-0.4183,-0.4005,-0.381,-0.347,-0.3236,-0.2947,-0.275,-0.2664,-0.237,-0.2189,-0.2107,-0.1851,-0.1716,-1.0104,-0.9908,-0.9449,-0.91,-0.8897,-0.8621,-0.8446,-0.8335,-0.8255,-0.821,-0.8121,-0.8462,-0.8607,-0.8498,-0.8469,-0.8412,-0.8425,-0.8693,-0.9014,-0.9319,-0.9958,-1.0208,-1.019,-1.0743,-1.0778,-1.0462,-1.0684,-1.0635,-1.0347,-1.0095,-0.9807,-0.9471,-0.9066,-0.8834,-0.8704,-0.8599,-0.8528,-0.8545,-0.9494,-1.0085,-1.022,-0.9748,-0.9365,-0.9098,-0.8587,-0.8044,-0.7562,-0.7409,-0.7043,-0.6411,-0.5989,-0.5636,-0.5347,-0.475,-0.4405,-0.4368,-0.4142,-0.3958,-0.3961,-0.3999,-0.4045,-0.4088,-0.4107,-0.4112,-0.4115,-0.4126,-0.4126,-0.4118,-0.4177,-0.4153,-0.4202,-0.4169,-0.4264,-0.4491,-0.4296,-0.4271,-0.4357,-0.4181,-0.3996,-0.3936,-0.4133,-0.4164,-0.4074,-0.4352,-0.4564,-0.441,-0.4533,-0.4564,-0.4346,-0.4284,-0.4499,-0.4745,-0.4779,-0.4656,-0.4626,-0.4564,-0.4533,-0.4502,-0.4324,-0.4192,-0.4094,-0.3839,-0.3541,-0.3253,-0.2861,-0.2481,-0.2167,-0.1944,-0.1813,-0.1778,-0.1574,-0.1367,-0.1162,-0.0952,-0.0858,-0.9635,-0.9421,-0.8905,-0.8269,-0.7533,-0.7061,-0.6845,-0.672,-0.6619,-0.6569,-0.6733,-0.8098,-0.8716,-0.8736,-0.8568,-0.8478,-0.8498,-0.8498,-0.8459,-0.8487,-0.8567,-0.8605,-0.8623,-0.8642,-0.8587,-0.8563,-0.852,-0.8512,-0.844,-0.8367,-0.8295,-0.8259,-0.8213,-0.8162,-0.8138,-0.8083,-0.8025,-0.8051,-0.8001,-0.822,-0.8728,-0.8446,-0.824,-0.8207,-0.7703,-0.7285,-0.6954,-0.6513,-0.6086,-0.5668,-0.5097,-0.4743,-0.4678,-0.4345,-0.4149,-0.4149,-0.4112,-0.4077,-0.4077,-0.4082,-0.4088,-0.4096,-0.4147,-0.4174,-0.421,-0.4256,-0.4267,-0.4224,-0.4177,-0.4229,-0.4283,-0.4283,-0.4278,-0.4339,-0.4311,-0.4245,-0.4171,-0.4117,-0.4042,-0.39,-0.3951,-0.3951,-0.3951,-0.4013,-0.401,-0.401,-0.401,-0.4041,-0.3979,-0.3918,-0.3856,-0.3825,-0.3856,-0.3887,-0.3764,-0.364,-0.3609,-0.3323,-0.3095,-0.3131,-0.3099,-0.2813,-0.2356,-0.244,-0.2104,-0.1742,-0.1489,-0.135,-0.1217,-0.0945,-0.0828,-0.0762,-0.031,-0.0113,-0.0282,-0.7971,-0.7775,-0.7608,-0.7296,-0.6926,-0.6673,-0.6581,-0.6516,-0.6424,-0.6366,-0.6415,-0.704,-0.733,-0.733,-0.7251,-0.7212,-0.7126,-0.7176,-0.7267,-0.746,-0.7506,-0.7463,-0.7481,-0.7615,-0.7546,-0.726,-0.7359,-0.7353,-0.7095,-0.6877,-0.6736,-0.6736,-0.6736,-0.6709,-0.6697,-0.6658,-0.6591,-0.6527,-0.6507,-0.6554,-0.6779,-0.7041,-0.715,-0.7096,-0.6568,-0.618,-0.6033,-0.5796,-0.5518,-0.5155,-0.4859,-0.4628,-0.4433,-0.4265,-0.4147,-0.4177,-0.4112,-0.4109,-0.4145,-0.4147,-0.4164,-0.4229,-0.4256,-0.4237,-0.427,-0.4294,-0.4294,-0.4245,-0.427,-0.4283,-0.4303,-0.4305,-0.4305,-0.4305,-0.4305,-0.4259,-0.4107,-0.4093,-0.4047,-0.3942,-0.392,-0.392,-0.392,-0.392,-0.392,-0.3889,-0.3764,-0.3671,-0.364,-0.3486,-0.3332,-0.3271,-0.3301,-0.3301,-0.3207,-0.3207,-0.3145,-0.3007,-0.2885,-0.2798,-0.255,-0.2379,-0.2104,-0.1738,-0.1318,-0.0925,-0.0589,-0.0196,0.0056,0.0141,0.0141,0.0252,0.0505,0.0533,0.0393,-0.68,-0.6696,-0.656,-0.6518,-0.6514,-0.6334,-0.626,-0.6231,-0.6131,-0.6064,-0.6062,-0.5974,-0.5938,-0.5962,-0.6193,-0.6244,-0.6168,-0.6251,-0.6442,-0.6667,-0.6718,-0.6715,-0.6691,-0.6838,-0.6758,-0.6489,-0.6591,-0.6541,-0.6228,-0.597,-0.5789,-0.5789,-0.5789,-0.5762,-0.575,-0.5708,-0.5692,-0.56,-0.5621,-0.5607,-0.5632,-0.5902,-0.6138,-0.6202,-0.5782,-0.5468,-0.5417,-0.5326,-0.5111,-0.4839,-0.4708,-0.4574,-0.4305,-0.4264,-0.4207,-0.4237,-0.4169,-0.4161,-0.4204,-0.424,-0.4262,-0.43,-0.4305,-0.4305,-0.4305,-0.4305,-0.4305,-0.4305,-0.4305,-0.4305,-0.4305,-0.4305,-0.4305,-0.4305,-0.4305,-0.4223,-0.4112,-0.4093,-0.4047,-0.3942,-0.392,-0.392,-0.3889,-0.3825,-0.3764,-0.3764,-0.3548,-0.3363,-0.3332,-0.3145,-0.2991,-0.2868,-0.2868,-0.2868,-0.2868,-0.2868,-0.2837,-0.2666,-0.2526,-0.2268,-0.2113,-0.1918,-0.1599,-0.0897,-0.0449,-0.0112,0.014,0.0617,0.1065,0.1121,0.1149,0.1149,0.1262,0.1206,0.1234,-0.6795,-0.665,-0.6263,-0.6137,-0.6095,-0.5673,-0.543,-0.5465,-0.5407,-0.5299,-0.5248,-0.5186,-0.5113,-0.5181,-0.5883,-0.6271,-0.6268,-0.6232,-0.6229,-0.6261,-0.6271,-0.631,-0.6303,-0.6196,-0.6118,-0.6036,-0.5951,-0.5886,-0.5792,-0.5789,-0.5789,-0.5789,-0.5752,-0.5752,-0.5742,-0.5706,-0.5779,-0.5669,-0.5626,-0.5667,-0.5593,-0.5344,-0.535,-0.56,-0.5532,-0.5426,-0.5406,-0.5045,-0.4806,-0.4772,-0.4507,-0.4339,-0.4305,-0.4303,-0.43,-0.43,-0.4297,-0.4297,-0.4297,-0.4297,-0.43,-0.4305,-0.4305,-0.4305,-0.4305,-0.4305,-0.4305,-0.4305,-0.4305,-0.4305,-0.4305,-0.4305,-0.4305,-0.4305,-0.4305,-0.4218,-0.4107,-0.4093,-0.4039,-0.3947,-0.3889,-0.3859,-0.3859,-0.3671,-0.3548,-0.3455,-0.324,-0.3022,-0.3022,-0.2991,-0.2806,-0.259,-0.2498,-0.2498,-0.2498,-0.2529,-0.2407,-0.2179,-0.1933,-0.1533,-0.1253,-0.095,-0.0539,-0.0168,0.0168,0.0477,0.0785,0.1121,0.1458,0.1626,0.1738,0.1822,0.199,0.1878,0.1962,-0.5984,-0.5846,-0.572,-0.5636,-0.5636,-0.5468,-0.5413,-0.5391,-0.5311,-0.527,-0.5218,-0.5147,-0.5098,-0.5079,-0.5353,-0.5492,-0.5489,-0.5489,-0.545,-0.545,-0.545,-0.5492,-0.5441,-0.5346,-0.5249,-0.5249,-0.5151,-0.5125,-0.5104,-0.5101,-0.5101,-0.5101,-0.5098,-0.5101,-0.5098,-0.5101,-0.5081,-0.5042,-0.5051,-0.5045,-0.5009,-0.4898,-0.491,-0.4991,-0.4926,-0.483,-0.4713,-0.4552,-0.4473,-0.4473,-0.4375,-0.4305,-0.4305,-0.4305,-0.4305,-0.4305,-0.4305,-0.4305,-0.4305,-0.4305,-0.4305,-0.4305,-0.4305,-0.4305,-0.4305,-0.4305,-0.4305,-0.4305,-0.4305,-0.4305,-0.4305,-0.4305,-0.4305,-0.4305,-0.4305,-0.4259,-0.4128,-0.4091,-0.405,-0.3888,-0.3764,-0.364,-0.3579,-0.3363,-0.3176,-0.3145,-0.2899,-0.2714,-0.2621,-0.25,-0.2315,-0.216,-0.2006,-0.1852,-0.1852,-0.2068,-0.2066,-0.178,-0.1486,-0.1163,-0.0883,-0.0463,-0.0085,0.0253,0.0617,0.1093,0.1402,0.185,0.213,0.23,0.2412,0.255,0.2718,0.2662,0.283,-0.55,-0.539,-0.5384,-0.5384,-0.5384,-0.5384,-0.5384,-0.5379,-0.5341,-0.5313,-0.5278,-0.5185,-0.5131,-0.5104,-0.5049,-0.5022,-0.5022,-0.5022,-0.5022,-0.5022,-0.5022,-0.5022,-0.5008,-0.4902,-0.4842,-0.4796,-0.4722,-0.4701,-0.4701,-0.4701,-0.4701,-0.4701,-0.4701,-0.4701,-0.4701,-0.4701,-0.4677,-0.4655,-0.4679,-0.4679,-0.4649,-0.4679,-0.469,-0.4663,-0.4591,-0.4501,-0.4368,-0.4346,-0.4327,-0.4311,-0.4305,-0.4305,-0.4305,-0.4305,-0.4305,-0.4305,-0.4305,-0.4305,-0.4305,-0.4305,-0.4305,-0.4305,-0.4305,-0.4305,-0.4305,-0.4305,-0.4305,-0.4305,-0.4305,-0.4305,-0.4305,-0.4305,-0.4305,-0.4305,-0.4305,-0.4234,-0.4139,-0.4107,-0.4007,-0.3761,-0.3486,-0.3363,-0.3301,-0.3053,-0.2868,-0.2837,-0.2529,-0.2346,-0.216,-0.2006,-0.1791,-0.1668,-0.1483,-0.1328,-0.1235,-0.1296,-0.1482,-0.1292,-0.0946,-0.0691,-0.0414,0.0,0.0372,0.0677,0.1121,0.1626,0.2104,0.2524,0.2805,0.3001,0.3169,0.3281,0.339,0.3446,0.3586,-0.539,-0.5384,-0.5384,-0.5384,-0.5384,-0.5384,-0.5384,-0.5384,-0.5382,-0.5349,-0.53,-0.5232,-0.5172,-0.5115,-0.506,-0.4985,-0.5022,-0.5022,-0.5022,-0.5022,-0.5022,-0.5022,-0.5019,-0.5003,-0.486,-0.4731,-0.4728,-0.4673,-0.46,-0.4564,-0.46,-0.4631,-0.4592,-0.4556,-0.4665,-0.4556,-0.4629,-0.4587,-0.4589,-0.4662,-0.4701,-0.4701,-0.4677,-0.4627,-0.4611,-0.4581,-0.448,-0.4428,-0.4373,-0.4322,-0.4313,-0.4311,-0.4308,-0.4305,-0.4305,-0.4305,-0.4305,-0.4305,-0.4272,-0.4272,-0.4238,-0.4171,-0.4238,-0.4171,-0.4137,-0.4171,-0.4171,-0.4171,-0.4171,-0.4238,-0.4205,-0.4171,-0.4238,-0.4305,-0.4272,-0.4211,-0.4119,-0.4093,-0.392,-0.3479,-0.3145,-0.2991,-0.2899,-0.259,-0.2344,-0.2282,-0.2099,-0.1853,-0.1605,-0.1513,-0.1359,-0.1112,-0.0926,-0.0803,-0.0648,-0.0525,-0.0679,-0.074,-0.0366,-0.003,0.0149,0.0497,0.0864,0.1193,0.1685,0.2188,0.2578,0.2998,0.3337,0.3561,0.3757,0.3952,0.4061,0.4117,0.4229,-0.5465,-0.5387,-0.5384,-0.5384,-0.5384,-0.5384,-0.5384,-0.5384,-0.5384,-0.5415,-0.5346,-0.5292,-0.5232,-0.5172,-0.5112,-0.506,-0.5022,-0.5022,-0.5022,-0.4983,-0.4983,-0.4983,-0.4975,-0.4942,-0.4729,-0.4434,-0.4357,-0.4171,-0.3921,-0.3916,-0.3864,-0.3871,-0.3903,-0.3901,-0.3937,-0.3864,-0.3864,-0.3901,-0.4153,-0.4299,-0.4299,-0.4556,-0.469,-0.4677,-0.4671,-0.4644,-0.4583,-0.4523,-0.4431,-0.4371,-0.4371,-0.4352,-0.4316,-0.4305,-0.4305,-0.4305,-0.4305,-0.4171,-0.4003,-0.3969,-0.3835,-0.3631,-0.3564,-0.353,-0.353,-0.3564,-0.3564,-0.3564,-0.353,-0.353,-0.3564,-0.353,-0.3734,-0.4238,-0.4104,-0.378,-0.3489,-0.3194,-0.2965,-0.282,-0.2529,-0.2342,-0.219,-0.1882,-0.1574,-0.1543,-0.142,-0.1297,-0.1174,-0.1112,-0.1019,-0.0741,-0.0525,-0.0185,0.0062,0.0278,0.0278,0.0123,0.0337,0.0485,0.0658,0.1005,0.1367,0.1771,0.2259,0.2664,0.3082,0.339,0.3701,0.398,0.412,0.4372,0.4651,0.4763,0.4763,-0.5481,-0.5387,-0.5384,-0.5384,-0.5384,-0.5384,-0.5384,-0.5384,-0.5384,-0.5384,-0.5371,-0.5319,-0.5273,-0.5183,-0.4989,-0.4854,-0.4779,-0.4643,-0.4552,-0.4591,-0.4748,-0.4787,-0.474,-0.4536,-0.434,-0.4078,-0.3982,-0.3844,-0.3557,-0.3515,-0.3532,-0.3496,-0.3527,-0.3516,-0.3504,-0.3502,-0.3502,-0.3538,-0.3755,-0.3935,-0.4117,-0.4335,-0.4556,-0.4665,-0.4701,-0.4679,-0.4644,-0.4602,-0.4539,-0.4417,-0.4379,-0.4343,-0.4311,-0.4305,-0.4238,-0.4137,-0.407,-0.3969,-0.3631,-0.3564,-0.3463,-0.3262,-0.3194,-0.3228,-0.3194,-0.3194,-0.3194,-0.3194,-0.3228,-0.3194,-0.3194,-0.3094,-0.3262,-0.3631,-0.3497,-0.3201,-0.2784,-0.2382,-0.2177,-0.2081,-0.1851,-0.1666,-0.1511,-0.1358,-0.1019,-0.1019,-0.1019,-0.0833,-0.0741,-0.0617,-0.0401,-0.0123,0.0216,0.0525,0.0803,0.1019,0.1205,0.1112,0.108,0.1037,0.1085,0.1554,0.1948,0.2331,0.2804,0.3089,0.3446,0.3701,0.3952,0.4204,0.4484,0.4735,0.4959,0.507,0.5102,-0.5487,-0.5392,-0.5384,-0.5384,-0.5384,-0.5384,-0.5384,-0.5384,-0.5342,-0.53,-0.5329,-0.5164,-0.5132,-0.5062,-0.4659,-0.4453,-0.4389,-0.4073,-0.3931,-0.3966,-0.4162,-0.428,-0.4312,-0.4039,-0.3826,-0.366,-0.3589,-0.3529,-0.341,-0.341,-0.35,-0.3352,-0.3309,-0.3405,-0.3343,-0.3437,-0.3364,-0.3329,-0.3399,-0.3581,-0.391,-0.3987,-0.4202,-0.453,-0.453,-0.4525,-0.4511,-0.4457,-0.446,-0.4393,-0.4226,-0.4158,-0.4213,-0.4243,-0.4003,-0.3801,-0.3768,-0.3566,-0.3297,-0.3194,-0.3127,-0.306,-0.3026,-0.3127,-0.306,-0.2993,-0.2993,-0.3026,-0.306,-0.306,-0.2959,-0.2758,-0.2622,-0.2556,-0.2521,-0.2361,-0.2045,-0.171,-0.1527,-0.1402,-0.1174,-0.0988,-0.1019,-0.0926,-0.0864,-0.0803,-0.0772,-0.0463,-0.0123,0.0123,0.037,0.0617,0.0864,0.1081,0.1297,0.1421,0.1575,0.1606,0.1605,0.1656,0.1671,0.2111,0.2445,0.2851,0.3222,0.3531,0.379,0.4021,0.4295,0.4596,0.4847,0.507,0.5186,0.527,0.5298,-0.5547,-0.5492,-0.5403,-0.5384,-0.5384,-0.5384,-0.5384,-0.5342,-0.5004,-0.4878,-0.4831,-0.4486,-0.4376,-0.4259,-0.4153,-0.4025,-0.397,-0.3863,-0.3796,-0.3772,-0.3493,-0.365,-0.3885,-0.3836,-0.3593,-0.3315,-0.3224,-0.3057,-0.2803,-0.284,-0.2785,-0.2677,-0.2713,-0.2708,-0.2698,-0.271,-0.2701,-0.2662,-0.2625,-0.2847,-0.322,-0.3321,-0.347,-0.3775,-0.3844,-0.3864,-0.383,-0.3756,-0.387,-0.4072,-0.3735,-0.3552,-0.3616,-0.3553,-0.3501,-0.3396,-0.3362,-0.323,-0.2928,-0.2827,-0.2727,-0.249,-0.2524,-0.249,-0.2457,-0.2457,-0.2457,-0.2457,-0.2457,-0.2356,-0.212,-0.1952,-0.1682,-0.1211,-0.1379,-0.1403,-0.1051,-0.0844,-0.0801,-0.0756,-0.0684,-0.065,-0.0587,-0.0401,-0.0216,-0.0062,0.0062,0.0185,0.0525,0.071,0.0864,0.1143,0.1359,0.1544,0.173,0.1822,0.1915,0.1946,0.2068,0.2281,0.2415,0.2701,0.2962,0.3259,0.3585,0.3916,0.4148,0.4362,0.4655,0.495,0.5102,0.527,0.5298,0.5354,0.5354,-0.5569,-0.5511,-0.5409,-0.5258,-0.5132,-0.5088,-0.5004,-0.4794,-0.4542,-0.4414,-0.433,-0.412,-0.3981,-0.3916,-0.373,-0.3658,-0.3568,-0.3372,-0.3266,-0.3247,-0.2991,-0.3024,-0.3179,-0.326,-0.3101,-0.2866,-0.2826,-0.2737,-0.2568,-0.2488,-0.2472,-0.2448,-0.2251,-0.217,-0.2155,-0.1956,-0.191,-0.1872,-0.1872,-0.2135,-0.2699,-0.2754,-0.3043,-0.3391,-0.3493,-0.351,-0.3504,-0.3331,-0.3381,-0.3602,-0.347,-0.3283,-0.3296,-0.3273,-0.3183,-0.3032,-0.2995,-0.286,-0.2593,-0.2492,-0.2391,-0.2256,-0.2189,-0.2189,-0.2223,-0.2189,-0.2189,-0.2223,-0.2088,-0.1851,-0.1616,-0.1346,-0.0875,-0.0505,-0.0505,-0.0536,-0.0297,-0.0295,-0.029,-0.0317,-0.0282,-0.028,-0.0278,0.0,0.0247,0.0463,0.0556,0.0803,0.1081,0.1174,0.1327,0.1574,0.1759,0.1914,0.2068,0.2191,0.2346,0.2407,0.2592,0.2806,0.3009,0.3263,0.3437,0.3656,0.3986,0.429,0.453,0.4761,0.4953,0.5189,0.5326,0.5394,0.5426,0.5563,0.5555,-0.5488,-0.5351,-0.5285,-0.4962,-0.45,-0.4456,-0.4204,-0.391,-0.3742,-0.3742,-0.37,-0.3784,-0.353,-0.3698,-0.3166,-0.3147,-0.3096,-0.2638,-0.2571,-0.2552,-0.2534,-0.2639,-0.2632,-0.2671,-0.2632,-0.2553,-0.2514,-0.2473,-0.2391,-0.2393,-0.2383,-0.2207,-0.1894,-0.1768,-0.1719,-0.1444,-0.1213,-0.1289,-0.1327,-0.1669,-0.2203,-0.236,-0.2654,-0.314,-0.3224,-0.3244,-0.3181,-0.3057,-0.2972,-0.3262,-0.3219,-0.3147,-0.3147,-0.3174,-0.3015,-0.2721,-0.265,-0.2512,-0.2302,-0.2237,-0.223,-0.2196,-0.2193,-0.2189,-0.2189,-0.2189,-0.2155,-0.2054,-0.1784,-0.1582,-0.1313,-0.0842,-0.0438,0.0,0.0,0.0,0.0033,0.0,0.0,0.0032,0.0063,0.0063,0.0156,0.034,0.0587,0.0833,0.0988,0.1205,0.1421,0.1544,0.1729,0.1975,0.213,0.2191,0.2375,0.2529,0.2745,0.2899,0.3116,0.3299,0.3507,0.3732,0.3888,0.4088,0.4403,0.4699,0.4976,0.517,0.5286,0.5402,0.5529,0.5544,0.5543,0.5784,0.5882,-0.5163,-0.4452,-0.4367,-0.387,-0.3197,-0.3113,-0.3071,-0.2945,-0.2565,-0.2523,-0.2439,-0.2439,-0.2271,-0.1975,-0.2221,-0.2252,-0.2236,-0.189,-0.1712,-0.208,-0.2435,-0.2534,-0.2521,-0.2476,-0.2514,-0.2514,-0.2514,-0.2357,-0.2121,-0.2043,-0.1844,-0.1605,-0.1523,-0.1407,-0.1362,-0.1195,-0.1191,-0.1191,-0.1191,-0.1421,-0.1848,-0.2013,-0.2272,-0.2644,-0.2667,-0.2563,-0.2556,-0.2478,-0.2475,-0.2536,-0.2548,-0.2595,-0.2581,-0.2526,-0.2474,-0.2396,-0.2326,-0.2293,-0.2221,-0.2203,-0.2189,-0.2188,-0.2207,-0.2189,-0.2189,-0.219,-0.2054,-0.1818,-0.1616,-0.1346,-0.0808,-0.037,0.0,0.0,0.0,0.0134,0.0301,0.0166,0.0131,0.0326,0.0416,0.0473,0.0723,0.0777,0.0991,0.1206,0.139,0.1575,0.173,0.1884,0.213,0.2376,0.2436,0.2529,0.2777,0.296,0.3114,0.3332,0.3548,0.3733,0.394,0.4214,0.4371,0.4592,0.4808,0.5088,0.5335,0.5418,0.5498,0.5635,0.5739,0.5763,0.5828,0.6052,0.6187,-0.4301,-0.3857,-0.3521,-0.2987,-0.2439,-0.2355,-0.2229,-0.2018,-0.1808,-0.1682,-0.1682,-0.1682,-0.1514,-0.1346,-0.1556,-0.1676,-0.1626,-0.1451,-0.1394,-0.1696,-0.2046,-0.2232,-0.2298,-0.2403,-0.2514,-0.2514,-0.2514,-0.2278,-0.2003,-0.1846,-0.1728,-0.1296,-0.106,-0.0981,-0.0903,-0.078,-0.074,-0.0856,-0.0934,-0.1206,-0.1753,-0.1877,-0.2066,-0.2328,-0.2388,-0.2354,-0.2391,-0.2339,-0.2297,-0.2292,-0.2281,-0.2303,-0.2292,-0.2275,-0.2226,-0.2213,-0.221,-0.221,-0.2204,-0.2197,-0.2186,-0.2186,-0.2204,-0.2191,-0.2181,-0.221,-0.1997,-0.1686,-0.1414,-0.1077,-0.037,-0.0168,0.0,0.0,0.0168,0.0303,0.0437,0.0334,0.0365,0.0659,0.0781,0.0833,0.095,0.1129,0.1273,0.1426,0.1914,0.2068,0.2191,0.2346,0.2531,0.2716,0.2745,0.2868,0.3147,0.3363,0.3517,0.3702,0.3887,0.4071,0.422,0.4558,0.4896,0.5025,0.5152,0.5373,0.5589,0.5642,0.5679,0.5726,0.5802,0.5928,0.6057,0.6127,0.6289,-0.3342,-0.3158,-0.2673,-0.2188,-0.1725,-0.1683,-0.143,-0.1135,-0.1093,-0.1052,-0.1135,-0.1178,-0.1136,-0.1093,-0.1178,-0.1178,-0.1133,-0.1335,-0.1321,-0.1265,-0.1741,-0.1973,-0.2042,-0.2224,-0.2367,-0.2403,-0.2359,-0.216,-0.1846,-0.1689,-0.1335,-0.106,-0.0707,-0.055,-0.0432,-0.0314,-0.0353,-0.0627,-0.0902,-0.1215,-0.1843,-0.1963,-0.2224,-0.2384,-0.2417,-0.2386,-0.2379,-0.236,-0.2305,-0.2303,-0.2299,-0.2284,-0.2305,-0.2296,-0.2288,-0.2226,-0.223,-0.2233,-0.2232,-0.2222,-0.2217,-0.2217,-0.2209,-0.2197,-0.2213,-0.2096,-0.1844,-0.1526,-0.1148,-0.064,0.0,0.0,0.0,0.0135,0.037,0.0539,0.064,0.0673,0.0869,0.1061,0.1151,0.1201,0.1314,0.1489,0.1568,0.1708,0.2196,0.256,0.2652,0.2745,0.2899,0.3024,0.3083,0.3207,0.3486,0.364,0.3794,0.4071,0.4287,0.4533,0.4715,0.5176,0.5513,0.536,0.5441,0.5655,0.5739,0.5782,0.5772,0.579,0.5898,0.609,0.6179,0.6228,0.6493,-0.2464,-0.1713,-0.1607,-0.1094,0.0,0.0,0.0,-0.021,0.0,0.0,-0.0295,-0.0631,-0.0589,-0.0421,-0.0674,-0.0589,-0.0505,-0.0838,-0.1,-0.0951,-0.1438,-0.184,-0.1783,-0.1885,-0.1994,-0.1988,-0.1937,-0.173,-0.1375,-0.1021,-0.0785,-0.0314,0.0,0.0,-0.0275,-0.0314,-0.051,-0.0825,-0.1256,-0.1689,-0.1964,-0.2199,-0.2347,-0.2512,-0.2436,-0.2418,-0.2409,-0.2387,-0.2408,-0.2368,-0.231,-0.2296,-0.2291,-0.2288,-0.2283,-0.2277,-0.2273,-0.2271,-0.2271,-0.2257,-0.2286,-0.2278,-0.223,-0.2214,-0.213,-0.194,-0.1619,-0.1161,0.0,0.0,0.0,0.0,0.0,0.0337,0.0539,0.0774,0.1212,0.1379,0.1378,0.1505,0.1559,0.1579,0.1688,0.1827,0.1965,0.2134,0.2491,0.2785,0.2929,0.3022,0.3145,0.3271,0.3394,0.3579,0.3794,0.3918,0.4071,0.4438,0.4745,0.5206,0.5483,0.5912,0.6096,0.5912,0.5794,0.5882,0.5931,0.5949,0.5971,0.6068,0.6159,0.6285,0.6461,0.667,0.6974,-0.1473,-0.099,-0.072,-0.0379,0.0,0.0,0.0,0.0,0.0,0.0,0.0,-0.0211,-0.0211,-0.0126,-0.0211,-0.0168,0.0,-0.0337,-0.0461,-0.0459,-0.0955,-0.128,-0.1312,-0.1461,-0.1575,-0.1488,-0.1356,-0.1185,-0.0943,-0.0746,-0.0393,0.0,0.0,0.0,-0.0275,-0.0471,-0.0864,-0.1217,-0.1689,-0.2043,-0.22,-0.2435,-0.2503,-0.2489,-0.2465,-0.2448,-0.2439,-0.2399,-0.2424,-0.2388,-0.2358,-0.231,-0.231,-0.2305,-0.2296,-0.2296,-0.2296,-0.2296,-0.2296,-0.2283,-0.2277,-0.2275,-0.226,-0.2248,-0.2165,-0.1903,-0.1395,-0.0825,0.0,0.0,0.0,0.0,0.0337,0.0539,0.0808,0.1212,0.1515,0.1784,0.1851,0.1885,0.1909,0.1959,0.2006,0.2176,0.2342,0.2569,0.2794,0.302,0.3249,0.3401,0.3527,0.3671,0.3825,0.3979,0.4195,0.4379,0.4502,0.4838,0.5264,0.5728,0.6066,0.6464,0.653,0.6407,0.6346,0.6285,0.6311,0.6394,0.6372,0.6346,0.6482,0.6656,0.6914,0.7169,0.7388,-0.0566,-0.0519,-0.017,0.0,0.0,0.0,0.0,0.0,0.0,0.0,0.0,0.0,0.0,0.0,0.0,0.0,0.0,0.0,0.0,-0.0126,-0.0501,-0.0665,-0.0746,-0.0946,-0.1184,-0.11,-0.0726,-0.0558,-0.0632,-0.0511,-0.0275,0.0,0.0,-0.0236,-0.051,-0.0864,-0.1335,-0.1689,-0.2003,-0.2239,-0.2435,-0.2514,-0.2514,-0.2514,-0.2491,-0.2517,-0.2473,-0.247,-0.2453,-0.2413,-0.2352,-0.2361,-0.2371,-0.2354,-0.2303,-0.2297,-0.2296,-0.2296,-0.2296,-0.2296,-0.2292,-0.2291,-0.2295,-0.2246,-0.2052,-0.1641,-0.1131,-0.0518,0.0,0.0,0.0,0.0,0.0572,0.0842,0.1245,0.1649,0.1784,0.1987,0.2189,0.2223,0.229,0.2313,0.2391,0.2598,0.2793,0.2964,0.3222,0.3525,0.3722,0.3893,0.4043,0.4142,0.4287,0.441,0.4626,0.4933,0.5087,0.5333,0.5851,0.6368,0.6648,0.6929,0.6929,0.6959,0.6801,0.674,0.6775,0.6745,0.6653,0.6653,0.6841,0.6933,0.699,0.7174,0.7419,-0.0087,0.0,0.0,0.0,0.0,0.0,0.0,0.0,0.0,0.0,0.0,0.0,0.0,0.0,0.0,0.0,0.0,0.0,0.0,0.0,-0.042,-0.0587,-0.0629,-0.0706,-0.0744,-0.0701,-0.0327,-0.0323,-0.048,-0.0317,-0.0118,-0.0118,-0.0393,-0.0589,-0.0825,-0.1296,-0.1768,-0.1964,-0.2239,-0.2435,-0.2475,-0.2514,-0.2514,-0.2512,-0.251,-0.2506,-0.2499,-0.2505,-0.2494,-0.2495,-0.2431,-0.2401,-0.242,-0.2413,-0.2357,-0.2305,-0.2296,-0.2296,-0.2296,-0.2296,-0.2296,-0.2296,-0.226,-0.2148,-0.1739,-0.1221,-0.0673,-0.0138,0.0,0.0136,0.0338,0.0472,0.0842,0.1178,0.1548,0.1851,0.2054,0.2189,0.2391,0.2627,0.2726,0.2727,0.2749,0.2988,0.3224,0.343,0.363,0.3933,0.4175,0.435,0.4492,0.4599,0.478,0.4901,0.5243,0.5516,0.5815,0.5988,0.646,0.7009,0.7193,0.7388,0.7566,0.7566,0.7352,0.7138,0.7112,0.7021,0.6933,0.6995,0.7143,0.7051,0.6898,0.7143,0.7505,0.0,0.0,0.0,0.0,0.0,0.0,0.0,0.0,0.0,0.0,0.0,0.0,0.0,0.0,0.0,0.0,0.0,0.0,0.0,0.0,0.0,0.0,-0.0294,-0.0293,-0.0293,0.0,-0.0165,-0.0287,-0.0446,-0.0481,-0.0357,-0.0396,-0.0788,-0.1178,-0.1217,-0.1689,-0.2003,-0.22,-0.2396,-0.2475,-0.2514,-0.2514,-0.2514,-0.2514,-0.2514,-0.2514,-0.2507,-0.2485,-0.2518,-0.248,-0.2453,-0.242,-0.2402,-0.2387,-0.2365,-0.23,-0.2296,-0.2296,-0.2296,-0.2297,-0.2296,-0.2223,-0.2078,-0.175,-0.1236,-0.0829,-0.0428,-0.0035,0.0,0.0,0.0511,0.071,0.1079,0.1481,0.182,0.2122,0.2357,0.2458,0.2627,0.2896,0.3163,0.3163,0.323,0.3448,0.3649,0.3722,0.4027,0.4382,0.4596,0.476,0.4874,0.4988,0.5206,0.5428,0.5843,0.6223,0.6692,0.6922,0.7199,0.7624,0.7717,0.7892,0.7932,0.7924,0.7699,0.7546,0.7459,0.7327,0.7235,0.7357,0.748,0.7388,0.7296,0.7444,0.775,0.0,0.0,0.0,0.0,0.0,0.0,0.0,0.0,0.0,0.0,0.0,0.0,0.0,0.0,0.0,0.0,0.0,0.0,0.0,0.0,0.0,0.0,0.0,0.0,0.0,0.0,0.0,-0.0374,-0.0661,-0.0857,-0.0966,-0.08,-0.123,-0.1537,-0.1847,-0.2043,-0.2239,-0.2435,-0.2475,-0.2514,-0.2514,-0.2514,-0.2514,-0.2514,-0.2514,-0.2514,-0.251,-0.2496,-0.2496,-0.2496,-0.2477,-0.245,-0.2435,-0.2456,-0.2395,-0.2335,-0.2328,-0.2253,-0.2209,-0.2201,-0.2264,-0.2078,-0.1713,-0.1204,-0.0802,-0.0542,-0.0287,0.0178,0.0,0.0,0.0724,0.1126,0.1426,0.1795,0.2127,0.2394,0.2662,0.2765,0.2965,0.3264,0.3499,0.3701,0.3801,0.3969,0.408,0.4082,0.4391,0.4801,0.506,0.5246,0.5376,0.5518,0.5642,0.5898,0.6285,0.6746,0.7271,0.7682,0.7959,0.8074,0.8058,0.8026,0.804,0.7992,0.7943,0.7924,0.7801,0.7681,0.7566,0.7627,0.7689,0.778,0.7841,0.7903,0.7994,0.0,0.0,0.0,0.0,0.0,0.0,0.0,0.0,0.0,0.0,0.0,0.0,0.0,0.0,0.0,0.0,0.0,0.0,0.0,0.0,0.0,0.0,0.0,0.0,0.0,0.0,-0.042,-0.0672,-0.088,-0.1451,-0.1466,-0.1363,-0.172,-0.1826,-0.2011,-0.2241,-0.2357,-0.2514,-0.2514,-0.2514,-0.2514,-0.2514,-0.2514,-0.2514,-0.2514,-0.2514,-0.2514,-0.2508,-0.2507,-0.2514,-0.2502,-0.2481,-0.2461,-0.2491,-0.2432,-0.2296,-0.2252,-0.2101,-0.1946,-0.2032,-0.2081,-0.1714,-0.124,-0.0766,-0.0511,-0.0182,0.0145,0.0467,0.0498,0.0849,0.1295,0.1663,0.1752,0.2124,0.2426,0.269,0.2955,0.3109,0.331,0.3636,0.3869,0.4003,0.4205,0.4339,0.4403,0.4439,0.4799,0.5215,0.5606,0.5823,0.5976,0.6078,0.6106,0.6327,0.6616,0.7085,0.7552,0.7871,0.8108,0.8172,0.8188,0.8155,0.8127,0.8138,0.8111,0.8128,0.8145,0.7948,0.7851,0.7868,0.7903,0.7903,0.7903,0.7903,0.8055,0.0,0.0,0.0,0.0,0.0,0.0,0.0,0.0,0.0,0.0,0.0,0.0,0.0,0.0,0.0,0.0,0.0,0.0,0.0,0.0,0.0,0.0,0.0,-0.0295,0.0,-0.0505,-0.0842,-0.1262,-0.1555,-0.1882,-0.2073,-0.2129,-0.2191,-0.2288,-0.2429,-0.2409,-0.248,-0.2517,-0.2517,-0.2515,-0.2514,-0.2514,-0.2514,-0.2514,-0.2514,-0.2514,-0.2514,-0.2514,-0.2514,-0.2514,-0.2514,-0.2497,-0.2478,-0.2473,-0.2343,-0.2129,-0.205,-0.1821,-0.1589,-0.1715,-0.1692,-0.1131,-0.0766,-0.0511,-0.0255,0.0146,0.0364,0.0615,0.0863,0.1249,0.1563,0.172,0.1878,0.2362,0.2734,0.3032,0.3261,0.3452,0.3682,0.3988,0.4127,0.4272,0.4473,0.4675,0.4705,0.4769,0.5205,0.5596,0.5988,0.6225,0.6288,0.6398,0.646,0.6701,0.7033,0.7407,0.7853,0.8051,0.828,0.8296,0.8307,0.8215,0.8172,0.8199,0.822,0.8226,0.8199,0.8155,0.8073,0.8023,0.7952,0.7903,0.7903,0.7903,0.8152,0.0,0.0,0.0,0.0,0.0,0.0,0.0,0.0,0.0,0.0,0.0,0.0,0.0,0.0,0.0,0.0,0.0,0.0,0.0,0.0,0.0,-0.0168,-0.0379,-0.0589,-0.0884,-0.0968,-0.1304,-0.1682,-0.1893,-0.2103,-0.2342,-0.2491,-0.2639,-0.2612,-0.2574,-0.2553,-0.254,-0.254,-0.2541,-0.2533,-0.2532,-0.2529,-0.2519,-0.2518,-0.2514,-0.2514,-0.2514,-0.2514,-0.2514,-0.2514,-0.2512,-0.2503,-0.2452,-0.2362,-0.2162,-0.192,-0.1683,-0.1454,-0.122,-0.1168,-0.119,-0.0774,-0.0294,-0.0073,0.0183,0.0547,0.0838,0.102,0.1265,0.1546,0.1941,0.217,0.24,0.2924,0.3182,0.3445,0.3686,0.3882,0.4117,0.4353,0.4458,0.4638,0.4799,0.5036,0.5252,0.5349,0.5711,0.6012,0.6201,0.6385,0.6419,0.6577,0.671,0.706,0.7417,0.7716,0.8012,0.8277,0.8453,0.8443,0.8437,0.8318,0.8302,0.8388,0.8394,0.8318,0.8291,0.8301,0.8193,0.8099,0.8017,0.793,0.7964,0.7994,0.8275,0.0,0.0,0.0,0.0,0.0,0.0,0.0,0.0,0.0,0.0,0.0,0.0,0.0,0.0,0.0,0.0,0.0,0.0,0.0,0.0,-0.0505,-0.0631,-0.0842,-0.1052,-0.1304,-0.143,-0.1724,-0.2018,-0.2103,-0.2397,-0.2646,-0.2646,-0.2673,-0.2653,-0.2605,-0.26,-0.2598,-0.2597,-0.2593,-0.2578,-0.2603,-0.2555,-0.2538,-0.2527,-0.2515,-0.2514,-0.2514,-0.2514,-0.2514,-0.2514,-0.2435,-0.2392,-0.239,-0.2075,-0.1877,-0.1759,-0.1446,-0.1057,-0.0665,-0.0613,-0.0491,-0.0336,0.0112,0.0518,0.066,0.095,0.1351,0.1569,0.1782,0.2182,0.2538,0.2883,0.3081,0.3353,0.3612,0.3815,0.406,0.4215,0.4383,0.4617,0.4855,0.5046,0.5221,0.5406,0.5743,0.5998,0.6288,0.6455,0.6489,0.6489,0.6489,0.6656,0.6853,0.7158,0.7493,0.7894,0.8212,0.8484,0.8607,0.8552,0.8546,0.8503,0.8508,0.8546,0.8519,0.8465,0.847,0.8475,0.8329,0.8214,0.8055,0.7963,0.7991,0.8186,0.8509,-0.0299,0.0,0.0,0.0,0.0,0.0,0.0,0.0,0.0,0.0,0.0,0.0,0.0,0.0,0.0,0.0,0.0,-0.0421,-0.0463,-0.0505,-0.0926,-0.1052,-0.122,-0.1515,-0.1766,-0.1892,-0.2187,-0.2439,-0.2482,-0.265,-0.2692,-0.2692,-0.269,-0.2669,-0.2594,-0.2575,-0.2601,-0.2601,-0.26,-0.2596,-0.2587,-0.2613,-0.2597,-0.2584,-0.2527,-0.2518,-0.2517,-0.2517,-0.2475,-0.2435,-0.2318,-0.2121,-0.2043,-0.1728,-0.1374,-0.1178,-0.0825,-0.051,0.0078,0.0388,0.05,0.0532,0.0677,0.1011,0.1073,0.1404,0.1765,0.212,0.2375,0.2776,0.3165,0.327,0.3475,0.3765,0.4004,0.4184,0.4392,0.446,0.4613,0.4882,0.512,0.5516,0.5736,0.5863,0.613,0.6228,0.6453,0.6472,0.6493,0.6489,0.6522,0.6723,0.6924,0.7225,0.7593,0.7989,0.8289,0.8518,0.8617,0.8579,0.8617,0.8623,0.8617,0.8568,0.8579,0.8617,0.8552,0.8508,0.8421,0.8291,0.8208,0.8246,0.8381,0.8591,0.889,-0.0683,-0.0255,-0.0253,-0.0126,0.0,0.0,0.0,0.0,0.0,0.0,0.0,0.0,0.0,0.0,-0.0168,-0.0253,-0.0295,-0.0716,-0.0926,-0.0968,-0.1346,-0.1514,-0.1724,-0.1976,-0.2229,-0.2355,-0.2482,-0.2692,-0.265,-0.2692,-0.2692,-0.2692,-0.2691,-0.2682,-0.2661,-0.2646,-0.2638,-0.2641,-0.2641,-0.2631,-0.2619,-0.2602,-0.2587,-0.261,-0.2551,-0.2532,-0.2527,-0.2483,-0.2396,-0.2279,-0.2043,-0.1807,-0.161,-0.1296,-0.0942,-0.0668,-0.0236,0.0118,0.0706,0.1217,0.1204,0.1154,0.1377,0.1515,0.1688,0.2096,0.246,0.278,0.3018,0.3341,0.3635,0.3706,0.3944,0.4272,0.4522,0.4701,0.4947,0.5048,0.5066,0.5301,0.5577,0.5965,0.6235,0.6372,0.6572,0.6562,0.659,0.6533,0.6509,0.6501,0.6527,0.6723,0.6991,0.7326,0.7727,0.8156,0.8423,0.859,0.8623,0.8623,0.8623,0.8623,0.8623,0.8623,0.8623,0.8617,0.8573,0.8524,0.8475,0.8514,0.8568,0.8652,0.877,0.8988,0.923,-0.1148,-0.0759,-0.0716,-0.0463,0.0,0.0,0.0,0.0,0.0,0.0,0.0,0.0,0.0,0.0,-0.0547,-0.0716,-0.08,-0.1178,-0.1304,-0.1472,-0.1808,-0.1934,-0.2145,-0.2439,-0.2524,-0.2608,-0.2692,-0.2692,-0.2692,-0.2692,-0.2692,-0.2692,-0.2692,-0.2688,-0.2684,-0.268,-0.2676,-0.2675,-0.2673,-0.2662,-0.2649,-0.2598,-0.2581,-0.2601,-0.2577,-0.2563,-0.2553,-0.246,-0.2249,-0.2047,-0.1808,-0.1571,-0.1256,-0.0825,-0.0668,-0.0314,0.0275,0.0825,0.1256,0.1689,0.1963,0.1909,0.1977,0.2148,0.2397,0.2765,0.3132,0.3379,0.3621,0.3871,0.4124,0.4319,0.4512,0.4836,0.5122,0.5378,0.5637,0.5726,0.5716,0.5887,0.617,0.6461,0.665,0.6815,0.6743,0.6737,0.6692,0.6635,0.6608,0.6534,0.6585,0.6719,0.702,0.7426,0.7822,0.8261,0.8456,0.8623,0.8623,0.8623,0.8623,0.8623,0.8623,0.8623,0.8623,0.8617,0.8579,0.8612,0.8607,0.8679,0.8811,0.8968,0.9092,0.9303,0.9561,-0.1622,-0.1191,-0.114,-0.1051,-0.0926,-0.0926,-0.0589,0.0,0.0,-0.0168,-0.0505,-0.0505,-0.0631,-0.0926,-0.1094,-0.1135,-0.1304,-0.1557,-0.1724,-0.1976,-0.2229,-0.2439,-0.2524,-0.2608,-0.2692,-0.2692,-0.2692,-0.2692,-0.2692,-0.2692,-0.2692,-0.2692,-0.2692,-0.2692,-0.2692,-0.2692,-0.2692,-0.2692,-0.2692,-0.2684,-0.2672,-0.2618,-0.2603,-0.2587,-0.2605,-0.2592,-0.2499,-0.2239,-0.2028,-0.1866,-0.1261,-0.0904,-0.0825,-0.0157,0.0353,0.0785,0.1217,0.161,0.1807,0.2356,0.2709,0.2787,0.297,0.2991,0.3159,0.3335,0.3708,0.3955,0.4197,0.4409,0.4662,0.4897,0.5097,0.5385,0.5672,0.5884,0.6101,0.6103,0.6129,0.6294,0.6586,0.6704,0.6933,0.6921,0.688,0.6839,0.6794,0.6737,0.6668,0.6628,0.6694,0.6825,0.7161,0.7579,0.7942,0.8361,0.849,0.8623,0.8623,0.8623,0.8623,0.8623,0.8623,0.8623,0.8623,0.8623,0.8617,0.8623,0.8623,0.8884,0.9022,0.923,0.9399,0.9639,0.9902,-0.2056,-0.1656,-0.1603,-0.1472,-0.1346,-0.1304,-0.0968,-0.0547,-0.0505,-0.0715,-0.0926,-0.0926,-0.1094,-0.1262,-0.1472,-0.1598,-0.164,-0.2018,-0.2271,-0.2355,-0.2566,-0.2608,-0.2692,-0.2692,-0.2692,-0.2692,-0.2692,-0.2692,-0.2692,-0.2692,-0.2692,-0.2692,-0.2692,-0.2692,-0.2692,-0.2692,-0.2692,-0.2692,-0.2692,-0.2692,-0.2684,-0.2673,-0.2668,-0.2615,-0.2593,-0.2537,-0.2359,-0.2014,-0.1758,-0.1472,-0.0748,-0.0432,-0.0196,0.051,0.106,0.1413,0.165,0.2042,0.2395,0.2746,0.3099,0.3415,0.3768,0.3795,0.3782,0.3882,0.4217,0.4506,0.4711,0.4954,0.5211,0.5465,0.5717,0.5968,0.6176,0.6346,0.6418,0.6411,0.6533,0.6697,0.6824,0.6954,0.7007,0.6998,0.6982,0.6933,0.6928,0.6883,0.6774,0.6692,0.6812,0.6948,0.7335,0.7757,0.8109,0.8437,0.8577,0.8667,0.8623,0.8623,0.8623,0.8623,0.8623,0.8623,0.8623,0.8623,0.8623,0.8623,0.869,0.895,0.9289,0.9537,0.9757,0.9943,1.0234,-0.249,-0.2065,-0.2062,-0.185,-0.143,-0.1472,-0.143,-0.143,-0.1388,-0.1388,-0.1388,-0.1346,-0.143,-0.164,-0.1892,-0.2061,-0.2145,-0.2439,-0.2566,-0.2692,-0.265,-0.2692,-0.2692,-0.2692,-0.2692,-0.2692,-0.2692,-0.2692,-0.2692,-0.2692,-0.2692,-0.2692,-0.2692,-0.2692,-0.2692,-0.2692,-0.2692,-0.2692,-0.2692,-0.2692,-0.2692,-0.2691,-0.2691,-0.2686,-0.2581,-0.2393,-0.2084,-0.1777,-0.1436,-0.091,-0.0394,-0.0039,0.0628,0.106,0.1531,0.1885,0.2082,0.2434,0.2866,0.3219,0.3493,0.3846,0.4201,0.4353,0.4383,0.4381,0.4636,0.4787,0.4954,0.5174,0.5435,0.5765,0.6058,0.6385,0.6629,0.6819,0.6926,0.6897,0.6902,0.6989,0.701,0.7092,0.7011,0.6998,0.7015,0.6994,0.6966,0.6965,0.6991,0.6869,0.7057,0.7207,0.7477,0.7864,0.8297,0.8567,0.8658,0.8698,0.8655,0.8628,0.8655,0.8628,0.8623,0.8623,0.8623,0.8623,0.8623,0.869,0.8856,0.9189,0.9522,0.9861,1.0093,1.0259,1.0392,-0.2655,-0.2554,-0.2533,-0.244,-0.2355,-0.2355,-0.2355,-0.2355,-0.2355,-0.2145,-0.1892,-0.185,-0.2018,-0.2271,-0.2355,-0.2482,-0.2524,-0.2608,-0.265,-0.2692,-0.2692,-0.2692,-0.2692,-0.2692,-0.2692,-0.2692,-0.2692,-0.2692,-0.2692,-0.2692,-0.2692,-0.2692,-0.2692,-0.2692,-0.2692,-0.2692,-0.2692,-0.2692,-0.2692,-0.2692,-0.2692,-0.2692,-0.2691,-0.2564,-0.2427,-0.213,-0.1784,-0.1319,-0.102,-0.0647,0.004,0.0714,0.1533,0.1689,0.1964,0.2318,0.2591,0.2905,0.3297,0.3729,0.4121,0.4356,0.463,0.4787,0.4863,0.4865,0.4904,0.5056,0.5245,0.5471,0.5731,0.6104,0.6439,0.6764,0.7049,0.7227,0.7401,0.735,0.7248,0.7215,0.7199,0.7141,0.7056,0.7023,0.7035,0.7023,0.6998,0.7006,0.7183,0.7227,0.75,0.7624,0.7643,0.7976,0.8414,0.8679,0.8816,0.8845,0.8823,0.8785,0.8736,0.8704,0.8671,0.8611,0.8623,0.8633,0.8745,0.8895,0.9128,0.9413,0.9728,1.006,1.0326,1.0525,1.0585,-0.2688,-0.2673,-0.2699,-0.2692,-0.2692,-0.2692,-0.2692,-0.2692,-0.2692,-0.2566,-0.2313,-0.2313,-0.2482,-0.2692,-0.2692,-0.2692,-0.2692,-0.2692,-0.2692,-0.2692,-0.2692,-0.2692,-0.2692,-0.2692,-0.2692,-0.2692,-0.2692,-0.2692,-0.2692,-0.2692,-0.2692,-0.2692,-0.2692,-0.2692,-0.2692,-0.2692,-0.2692,-0.2692,-0.2692,-0.2692,-0.2692,-0.2692,-0.2524,-0.2355,-0.2145,-0.1847,-0.1377,-0.0913,-0.0659,-0.0244,0.0442,0.1113,0.1733,0.2043,0.2356,0.2669,0.2983,0.3336,0.3846,0.4356,0.4868,0.51,0.5335,0.5606,0.5648,0.5648,0.5453,0.5606,0.5997,0.6264,0.6417,0.6718,0.6948,0.7205,0.7305,0.7386,0.7425,0.7419,0.7317,0.7277,0.7281,0.7297,0.7211,0.7092,0.717,0.7398,0.7331,0.7402,0.7507,0.7624,0.7899,0.8083,0.8096,0.8263,0.8644,0.8839,0.8957,0.8952,0.8946,0.8881,0.8851,0.8767,0.8719,0.8731,0.8731,0.8769,0.886,0.9103,0.9304,0.9603,0.9917,1.0259,1.0532,1.0751,1.0711,-0.2673,-0.2694,-0.2692,-0.2692,-0.2692,-0.2692,-0.2692,-0.2692,-0.2692,-0.2692,-0.265,-0.265,-0.2692,-0.2692,-0.2692,-0.2692,-0.2692,-0.2692,-0.2692,-0.2692,-0.2692,-0.2692,-0.2692,-0.2692,-0.2692,-0.2692,-0.2692,-0.2692,-0.2692,-0.2692,-0.2692,-0.2692,-0.2692,-0.2692,-0.2692,-0.2692,-0.2692,-0.2692,-0.2692,-0.2692,-0.2692,-0.265,-0.2439,-0.2187,-0.1849,-0.1464,-0.0957,-0.058,-0.0371,0.0285,0.1008,0.1678,0.2218,0.2604,0.2952,0.3306,0.3536,0.4123,0.4706,0.51,0.5609,0.5997,0.6235,0.6314,0.6275,0.6239,0.6082,0.6242,0.6637,0.679,0.6943,0.7096,0.7252,0.7443,0.747,0.7497,0.7484,0.7476,0.7425,0.7368,0.7427,0.746,0.7385,0.7298,0.7446,0.7712,0.7819,0.7925,0.8047,0.8175,0.8329,0.8528,0.8627,0.8784,0.8965,0.9011,0.9076,0.9071,0.9054,0.8995,0.893,0.887,0.8843,0.8865,0.8876,0.8899,0.9084,0.9342,0.9558,0.9841,1.0291,1.0651,1.0712,1.0887,1.0819,-0.2698,-0.2692,-0.2692,-0.2692,-0.2692,-0.2692,-0.2692,-0.2692,-0.2692,-0.2692,-0.2692,-0.2692,-0.2692,-0.2692,-0.2692,-0.2692,-0.2692,-0.2692,-0.2692,-0.2692,-0.2692,-0.2692,-0.2692,-0.2692,-0.2692,-0.2692,-0.2692,-0.2692,-0.2692,-0.2692,-0.2692,-0.2692,-0.2692,-0.2692,-0.2692,-0.2692,-0.2692,-0.2692,-0.2692,-0.2692,-0.2692,-0.2608,-0.2397,-0.2061,-0.1598,-0.1176,-0.0755,-0.0336,0.0083,0.0782,0.1662,0.2417,0.2882,0.3259,0.3605,0.3996,0.4264,0.4802,0.5389,0.5772,0.6239,0.6406,0.6523,0.6474,0.6516,0.6723,0.6609,0.6659,0.6895,0.684,0.6911,0.6982,0.7178,0.7408,0.7517,0.7556,0.7548,0.7579,0.7537,0.7654,0.7851,0.7851,0.7835,0.7895,0.814,0.8286,0.8225,0.8339,0.8516,0.8644,0.8798,0.8909,0.9055,0.9143,0.9237,0.9198,0.9231,0.9226,0.9168,0.9114,0.9044,0.8957,0.8946,0.8989,0.9032,0.904,0.9296,0.9596,0.9971,1.0291,1.0739,1.1063,1.1097,1.1057,1.0962]},{"header":{"parameterUnit":"m.s-1","parameterCategory":1,"la1":31.0,"la2":29.5877,"lo1":-88.7671,"lo2":-86.6584,"dy":0.0162,"dx":0.0185,"nx":115,"ny":88,"refTime":"2023-10-02T06:00:00:Z","depth":0,"parameterNumber":3,"parameterNumberName":"V-component_of_WINDS"},"data":[0.0,0.0,0.0,0.0,0.0,0.0,0.0,0.0,0.0,0.0,0.0,0.0,0.0,0.0,0.0,0.0,0.0,0.0,0.0,0.0,0.0,0.0,0.0,0.0,0.0,0.0,0.0,0.0,0.0,0.0,0.0,0.0,0.0,0.0,0.0,0.0,0.0,0.0,0.0,0.0,0.0,0.0,0.0,0.0,0.0,0.0,0.0,0.0,0.0,0.0,0.0,0.0,0.0,0.0,0.0,0.0,0.0,0.0,0.0,0.0,0.0,0.0,0.0,0.0,0.0,0.0,0.0,0.0,0.0,0.0,0.0,0.0,0.0,0.0,0.0,0.0,0.0,0.0,0.0,0.0,0.0,0.0,0.0,0.0,0.0,0.0,0.0,0.0,0.0,0.0,0.0,0.0,0.0,0.0,0.0,0.0,0.0,0.0,0.0,0.0,0.0,0.0,0.0,0.0,0.0,0.0,0.0,0.0,0.0,0.0,0.0,0.0,0.0,0.0,0.0,0.0,0.0,0.0,0.0,0.0,0.0,0.0,0.0,0.0,0.0,0.0,0.0,0.0,0.0,0.0,0.0,0.0,0.0,0.0,0.0,0.0,0.0,0.0,0.0,0.0,0.0,0.0,0.0,0.0,0.0,0.0,0.0,0.0,0.0,0.0,0.0,0.0,0.0,0.0,0.0,0.0,0.0,0.0,0.0,0.0,0.0,0.0,0.0,0.0,0.0,0.0,0.0,0.0,0.0,0.0,0.0,0.0,0.0,0.0,0.0,0.0,0.0,0.0,0.0,0.0,0.0,0.0,0.0,0.0,0.0,0.0,0.0,0.0,0.0,0.0,0.0,0.0,0.0,0.0,0.0,0.0,0.0,0.0,0.0,0.0,0.0,0.0,0.0,0.0,0.0,0.0,0.0,0.0,0.0,0.0,0.0,0.0,0.0,0.0,0.0,0.0,0.0,0.0,0.0,0.0,0.0,0.0,0.0,0.0,0.0,0.0,0.0,0.0,0.0,0.0,0.0,0.0,0.0,0.0,0.0,0.0,0.0,0.0,0.0,0.0,0.0,0.0,0.0,0.0,0.0,0.0,0.0,0.0,0.0,0.0,0.0,0.0,0.0,0.0,0.0,0.0,0.0,0.0,0.0,0.0,0.0,0.0,0.0,0.0,0.0,0.0,0.0,0.0,0.0,0.0,0.0,0.0,0.0,0.0,0.0,0.0,0.0,0.0,0.0,0.0,0.0,0.0,0.0,0.0,0.0,0.0,0.0,0.0,0.0,0.0,0.0,0.0,0.0,0.0,0.0,0.0,0.0,0.0,0.0,0.0,0.0,0.0,0.0,0.0,0.0,0.0,0.0,0.0,0.0,0.0,0.0,0.0,0.0,0.0,0.0,0.0,0.0,0.0,0.0,0.0,0.0,0.0,0.0,0.0,0.0,0.0,0.0,0.0,0.0,0.0,0.0,0.0,0.0,0.0,0.0,0.0,0.0,0.0,0.0,0.0,0.0,0.0,0.0,0.0,0.0,0.0,0.0,0.0,0.0,0.0,0.0,0.0,0.0,0.0,0.0,0.0,0.0,0.0,0.0,0.0,0.0,0.0,0.0,0.0,0.0,0.0,0.0,0.0,0.0,0.0,0.0,0.0,0.0,0.0,0.0,0.0,0.0,0.0,0.0,0.0,0.0,0.0,0.0,0.0,0.0,0.0,0.0,0.0,0.0,0.0,0.0,0.0,0.0,0.0,0.0,0.0,0.0,0.0,0.0,0.0,0.0,0.0,0.0,0.0,0.0,0.0,0.0,0.0,0.0,0.0,0.0,0.0,0.0,0.0,0.0,0.0,0.0,0.0,0.0,0.0,0.0,0.0,0.0,0.0,0.0,0.0,0.0,0.0,0.0,0.0,0.0,0.0,0.0,0.0,0.0,0.0,0.0,0.0,0.0,0.0,0.0,0.0,0.0,0.0,0.0,0.0,0.0,0.0,0.0,0.0,0.0,0.0,0.0,0.0,0.0,0.0,0.0,0.0,0.0,0.0,0.0,0.0,0.0,0.0,0.0,0.0,0.0,0.0,0.0,0.0,0.0,0.0,0.0,0.0,0.0,0.0,0.0,0.0,0.0,0.0,0.0,0.0,0.0,0.0,0.0,0.0,0.0,0.0,0.0,0.0,0.0,0.0,0.0,0.0,0.0,0.0,0.0,0.0,0.0,0.0,0.0,0.0,0.0,0.0,0.0,0.0,0.0,0.0,0.0,0.0,0.0,0.0,0.0,0.0,0.0,0.0,0.0,0.0,0.0,0.0,0.0,0.0,0.0,0.0,0.0,0.0,0.0,0.0,0.0,0.0,0.0,0.0,0.0,0.0,0.0,0.0,0.0,0.0,0.0,0.0,0.0,0.0,0.0,0.0,0.0,0.0,0.0,0.0,0.0,0.0,0.0,0.0,0.0,0.0,0.0,0.0,0.0,0.0,0.0,0.0,0.0,0.0,0.0,0.0,0.0,0.0,0.0,0.0,0.0,0.0,0.0,0.0,0.0,0.0,0.0,0.0,0.0,0.0,0.0,0.0,0.0,0.0,0.0,0.0,0.0,0.0,0.0,0.0,0.0,0.0,0.0,0.0,0.0,0.0,0.0,0.0,0.0,0.0,0.0,0.0,0.0,0.0,0.0,0.0,0.0,0.0,0.0,0.0,0.0,0.0,0.0,0.0,0.0,0.0,0.0,0.0,0.0,0.0,0.0,0.0,0.0,0.0,0.0,0.0,0.0,0.0,0.0,0.0,0.0,0.0,0.0,0.0,0.0,0.0,0.0,0.0,0.0,0.0,0.0,0.0,0.0,0.0,0.0,0.0,0.0,0.0,0.0,0.0,0.0,0.0,0.0,0.0,0.0,0.0,0.0,0.0,0.0,0.0,0.0,0.0,0.0,0.0,0.0,0.0,0.0,0.0,0.0,0.0,0.0,0.0,0.0,0.0,0.0,0.0,0.0,0.0,0.0,0.0,0.0,0.0,0.0,0.0,0.0,0.0,0.0,0.0,0.0,0.0,0.0,0.0,0.0,0.0,0.0,0.0,0.0,0.0,0.0,0.0,0.0,0.0,0.0,0.0,0.0,0.0,0.0,0.0,0.0,0.0,0.0,0.0,0.0,0.0,0.0,0.0,0.0,0.0,0.0,0.0,0.0,0.0,0.0,0.0,0.0,0.0,0.0,0.0,0.0,0.0,0.0,0.0,0.0,0.0,0.0,0.0,0.0,0.0,0.0,0.0,0.0,0.0,0.0,0.0,0.0,0.0,0.0,0.0,0.0,0.0,0.0,0.0,0.0,0.0,0.0,0.0,0.0,0.0,0.0,0.0,0.0,0.0,0.0,0.0,0.0,0.0,0.0,0.0,0.0,0.0,0.0,0.0,0.0,0.0,0.0,0.0,0.0,0.0,0.0,0.0,0.0,0.0,0.0,0.0,0.0,0.0,0.0,0.0,0.0,0.0,0.0,0.0,0.0,0.0,0.0,0.0,0.0,0.0,0.0,0.0,0.0,0.0,0.0,0.0,0.0,0.0,0.0,0.0,0.0,0.0,0.0,0.0,0.0,0.0,0.0,0.0,0.0,0.0,0.0,0.0,0.0,0.0,0.0,0.0,0.0,0.0,0.0,0.0,0.0,0.0,0.0,0.0,0.0,0.0,0.0,0.0,0.0,0.0,0.0,0.0,0.0,0.0,0.0,0.0,0.0,0.0,0.0,0.0,0.0,0.0,0.0,0.0,0.0,0.0,0.0,0.0,0.0,0.0,0.0,0.0,0.0,0.0,0.0,0.0,0.0,0.0,0.0,0.0,0.0,0.0,0.0,0.0,0.0,0.0,0.0,0.0,0.0,0.0,0.0,0.0,0.0,0.0,0.0,0.0,0.0,0.0,0.0,0.0,0.0,0.0,0.0,0.0,0.0,0.0,0.0,0.0,0.0,0.0,0.0,0.0,0.0,0.0,0.0,0.0,0.0,0.0,0.0,0.0,0.0,0.0,0.0,0.0,0.0,0.0,0.0,0.0,0.0,0.0,0.0,0.0,0.0,0.0,0.0,0.0,0.0,0.0,0.0,0.0,0.0,0.0,0.0,0.0,0.0,0.0,0.0,0.0,0.0,0.0,0.0,0.0,0.0,0.0,0.0,0.0,0.0,0.0,0.0,0.0,0.0,0.0,0.0,0.0,0.0,0.0,0.0,0.0,0.0,0.0,0.0,0.0,0.0,0.0,0.0,0.0,0.0,0.0,0.0,0.0,3.5908,0.0,0.0,0.0,0.0,0.0,0.0,0.0,0.0,0.0,0.0,0.0,0.0,0.0,0.0,0.0,0.0,0.0,0.0,0.0,0.0,0.0,0.0,0.0,0.0,0.0,0.0,0.0,0.0,0.0,0.0,0.0,0.0,0.0,0.0,0.0,0.0,0.0,0.0,0.0,0.0,0.0,0.0,0.0,0.0,0.0,0.0,0.0,0.0,0.0,0.0,0.0,0.0,0.0,0.0,0.0,0.0,0.0,0.0,0.0,0.0,0.0,0.0,0.0,0.0,0.0,0.0,0.0,0.0,0.0,0.0,0.0,0.0,0.0,0.0,0.0,0.0,0.0,0.0,0.0,0.0,0.0,0.0,0.0,0.0,0.0,0.0,0.0,0.0,0.0,0.0,0.0,0.0,0.0,0.0,0.0,0.0,0.0,0.0,0.0,0.0,0.0,0.0,0.0,0.0,0.0,0.0,0.0,0.0,0.0,0.0,3.5841,3.584,3.5897,3.5873,3.5887,0.0,0.0,0.0,0.0,0.0,0.0,0.0,0.0,0.0,0.0,0.0,0.0,0.0,0.0,0.0,0.0,0.0,0.0,0.0,0.0,0.0,0.0,0.0,0.0,0.0,0.0,0.0,0.0,0.0,0.0,0.0,0.0,0.0,0.0,0.0,0.0,0.0,0.0,0.0,0.0,0.0,0.0,0.0,0.0,0.0,0.0,0.0,0.0,0.0,0.0,0.0,0.0,0.0,0.0,0.0,0.0,0.0,0.0,0.0,0.0,0.0,0.0,0.0,0.0,0.0,0.0,0.0,0.0,0.0,0.0,0.0,0.0,0.0,0.0,0.0,0.0,0.0,0.0,0.0,0.0,0.0,0.0,0.0,0.0,0.0,0.0,0.0,0.0,0.0,0.0,0.0,0.0,0.0,0.0,0.0,0.0,0.0,0.0,0.0,0.0,0.0,0.0,0.0,0.0,0.0,0.0,0.0,0.0,0.0,0.0,0.0,0.0,3.5857,3.5877,3.5897,0.0,0.0,0.0,0.0,0.0,0.0,0.0,0.0,0.0,0.0,0.0,0.0,0.0,0.0,0.0,0.0,0.0,0.0,0.0,0.0,0.0,0.0,0.0,0.0,0.0,0.0,0.0,0.0,0.0,0.0,0.0,0.0,0.0,0.0,0.0,0.0,0.0,0.0,0.0,0.0,0.0,0.0,0.0,0.0,0.0,0.0,0.0,0.0,0.0,0.0,0.0,0.0,0.0,0.0,0.0,0.0,0.0,0.0,0.0,0.0,0.0,0.0,0.0,0.0,0.0,0.0,0.0,0.0,0.0,0.0,0.0,0.0,0.0,0.0,0.0,0.0,0.0,0.0,0.0,0.0,0.0,0.0,0.0,0.0,0.0,0.0,0.0,0.0,0.0,0.0,0.0,0.0,0.0,0.0,0.0,0.0,0.0,0.0,0.0,0.0,0.0,0.0,0.0,0.0,0.0,0.0,0.0,0.0,0.0,0.0,3.5788,3.5788,3.581,0.0,3.5818,0.0,0.0,0.0,0.0,0.0,0.0,0.0,0.0,0.0,0.0,0.0,0.0,0.0,0.0,0.0,0.0,0.0,0.0,0.0,0.0,0.0,0.0,0.0,0.0,0.0,0.0,0.0,0.0,0.0,0.0,0.0,0.0,0.0,0.0,0.0,0.0,0.0,0.0,0.0,0.0,0.0,0.0,0.0,0.0,0.0,0.0,0.0,0.0,0.0,0.0,0.0,0.0,0.0,0.0,0.0,0.0,0.0,0.0,0.0,0.0,0.0,0.0,0.0,0.0,0.0,0.0,0.0,0.0,0.0,0.0,0.0,0.0,0.0,0.0,0.0,0.0,0.0,0.0,0.0,0.0,0.0,0.0,0.0,0.0,0.0,0.0,0.0,0.0,0.0,0.0,0.0,0.0,0.0,0.0,0.0,0.0,0.0,0.0,0.0,0.0,0.0,0.0,0.0,0.0,0.0,0.0,0.0,0.0,0.0,0.0,3.5692,3.5692,3.5708,3.5786,0.0,0.0,0.0,0.0,0.0,0.0,0.0,0.0,0.0,0.0,0.0,0.0,0.0,0.0,0.0,0.0,0.0,0.0,0.0,0.0,0.0,0.0,0.0,0.0,0.0,0.0,0.0,0.0,0.0,0.0,0.0,0.0,0.0,0.0,0.0,0.0,0.0,0.0,0.0,0.0,0.0,0.0,0.0,0.0,0.0,0.0,0.0,0.0,0.0,0.0,0.0,0.0,0.0,0.0,0.0,0.0,0.0,0.0,0.0,0.0,0.0,0.0,0.0,0.0,0.0,0.0,0.0,0.0,0.0,0.0,0.0,0.0,0.0,0.0,0.0,0.0,0.0,0.0,0.0,0.0,0.0,0.0,0.0,0.0,0.0,0.0,0.0,0.0,0.0,0.0,0.0,0.0,0.0,0.0,0.0,0.0,0.0,0.0,0.0,0.0,0.0,0.0,0.0,0.0,0.0,0.0,0.0,0.0,0.0,0.0,3.5547,3.5534,3.5549,3.5618,3.5666,3.5691,0.0,0.0,0.0,0.0,0.0,0.0,0.0,0.0,0.0,0.0,0.0,0.0,0.0,0.0,0.0,0.0,0.0,0.0,0.0,0.0,0.0,0.0,0.0,0.0,0.0,0.0,0.0,0.0,0.0,0.0,0.0,0.0,0.0,0.0,0.0,0.0,0.0,0.0,0.0,0.0,0.0,0.0,0.0,0.0,0.0,0.0,0.0,0.0,0.0,0.0,0.0,0.0,0.0,0.0,0.0,0.0,0.0,0.0,0.0,0.0,0.0,0.0,0.0,0.0,0.0,0.0,0.0,0.0,0.0,0.0,0.0,0.0,0.0,0.0,0.0,0.0,0.0,0.0,0.0,0.0,0.0,0.0,0.0,0.0,0.0,0.0,0.0,0.0,0.0,0.0,0.0,0.0,0.0,0.0,0.0,0.0,0.0,0.0,0.0,0.0,0.0,0.0,0.0,0.0,0.0,0.0,0.0,0.0,3.5304,3.538,3.5399,3.5402,3.5477,3.5515,0.0,0.0,0.0,0.0,0.0,0.0,0.0,0.0,0.0,0.0,0.0,0.0,0.0,0.0,0.0,0.0,0.0,0.0,0.0,0.0,0.0,0.0,0.0,0.0,0.0,0.0,0.0,0.0,0.0,0.0,0.0,0.0,0.0,0.0,0.0,0.0,0.0,0.0,0.0,0.0,0.0,0.0,0.0,0.0,0.0,0.0,0.0,0.0,0.0,0.0,0.0,0.0,0.0,0.0,0.0,0.0,0.0,0.0,0.0,0.0,0.0,0.0,0.0,0.0,0.0,0.0,0.0,0.0,0.0,0.0,0.0,0.0,0.0,0.0,0.0,0.0,0.0,0.0,0.0,0.0,0.0,0.0,0.0,0.0,0.0,0.0,0.0,0.0,0.0,0.0,0.0,0.0,0.0,0.0,0.0,0.0,0.0,0.0,0.0,0.0,0.0,0.0,0.0,0.0,0.0,0.0,0.0,0.0,0.0,3.509,3.5186,3.5246,3.5277,3.5318,3.542,0.0,0.0,0.0,0.0,0.0,0.0,0.0,0.0,0.0,0.0,0.0,0.0,0.0,0.0,0.0,0.0,0.0,0.0,0.0,0.0,0.0,0.0,0.0,0.0,0.0,0.0,0.0,0.0,0.0,0.0,0.0,0.0,0.0,0.0,0.0,0.0,0.0,0.0,0.0,0.0,0.0,0.0,0.0,0.0,0.0,0.0,0.0,0.0,0.0,0.0,0.0,0.0,0.0,0.0,0.0,0.0,0.0,0.0,0.0,0.0,0.0,0.0,0.0,0.0,0.0,0.0,0.0,0.0,0.0,0.0,0.0,0.0,0.0,0.0,0.0,0.0,0.0,0.0,0.0,0.0,0.0,0.0,0.0,0.0,0.0,0.0,0.0,0.0,0.0,0.0,0.0,0.0,0.0,0.0,0.0,0.0,0.0,0.0,0.0,0.0,0.0,0.0,0.0,0.0,0.0,0.0,0.0,0.0,0.0,3.4921,0.0,3.5054,3.5102,3.5198,3.5274,0.0,0.0,0.0,0.0,0.0,0.0,0.0,0.0,0.0,0.0,0.0,0.0,0.0,0.0,0.0,0.0,0.0,0.0,0.0,0.0,0.0,0.0,0.0,0.0,0.0,0.0,0.0,0.0,0.0,0.0,0.0,0.0,0.0,0.0,0.0,0.0,0.0,0.0,0.0,0.0,0.0,0.0,0.0,0.0,0.0,0.0,0.0,0.0,0.0,0.0,0.0,0.0,0.0,0.0,0.0,0.0,0.0,0.0,0.0,0.0,0.0,0.0,0.0,0.0,0.0,0.0,0.0,0.0,0.0,0.0,0.0,0.0,0.0,0.0,0.0,0.0,0.0,0.0,0.0,0.0,0.0,0.0,0.0,0.0,0.0,0.0,0.0,0.0,0.0,0.0,0.0,0.0,0.0,0.0,0.0,0.0,0.0,0.0,0.0,0.0,0.0,0.0,0.0,0.0,0.0,0.0,0.0,0.0,3.4674,3.4821,3.4826,3.4881,3.4908,3.5081,3.5131,0.0,0.0,0.0,0.0,0.0,0.0,0.0,0.0,0.0,0.0,0.0,0.0,0.0,0.0,0.0,0.0,0.0,0.0,0.0,0.0,0.0,0.0,0.0,0.0,0.0,0.0,0.0,0.0,0.0,0.0,0.0,0.0,0.0,0.0,0.0,0.0,0.0,0.0,0.0,0.0,0.0,0.0,0.0,0.0,0.0,0.0,0.0,0.0,0.0,0.0,0.0,0.0,0.0,0.0,0.0,0.0,0.0,0.0,0.0,0.0,0.0,0.0,0.0,0.0,0.0,0.0,0.0,0.0,0.0,0.0,0.0,0.0,0.0,0.0,0.0,0.0,0.0,0.0,0.0,0.0,0.0,0.0,0.0,0.0,0.0,0.0,0.0,0.0,0.0,0.0,0.0,0.0,0.0,0.0,0.0,0.0,0.0,0.0,0.0,0.0,0.0,0.0,0.0,0.0,0.0,0.0,0.0,0.0,0.0,3.5348,3.5356,3.5414,3.556,3.567,3.5514,0.0,0.0,0.0,0.0,0.0,0.0,0.0,0.0,0.0,0.0,0.0,0.0,0.0,0.0,0.0,0.0,0.0,0.0,0.0,0.0,0.0,0.0,0.0,0.0,0.0,0.0,0.0,0.0,0.0,0.0,0.0,0.0,0.0,0.0,0.0,0.0,0.0,0.0,0.0,0.0,0.0,0.0,0.0,0.0,0.0,0.0,0.0,0.0,0.0,0.0,0.0,0.0,0.0,0.0,0.0,0.0,0.0,0.0,0.0,0.0,0.0,0.0,0.0,0.0,0.0,0.0,0.0,0.0,0.0,0.0,0.0,0.0,0.0,0.0,0.0,0.0,0.0,0.0,0.0,0.0,0.0,0.0,0.0,0.0,0.0,0.0,0.0,0.0,0.0,0.0,0.0,0.0,0.0,0.0,0.0,0.0,0.0,0.0,0.0,0.0,0.0,0.0,0.0,0.0,0.0,0.0,0.0,0.0,0.0,3.6149,3.6004,3.5957,3.6133,3.5961,3.5743,3.5401,0.0,0.0,0.0,0.0,0.0,0.0,0.0,0.0,0.0,0.0,0.0,0.0,0.0,0.0,0.0,0.0,0.0,0.0,0.0,0.0,0.0,0.0,0.0,0.0,0.0,0.0,0.0,0.0,0.0,0.0,0.0,0.0,0.0,0.0,0.0,0.0,0.0,0.0,0.0,0.0,0.0,0.0,0.0,0.0,0.0,0.0,0.0,0.0,0.0,0.0,0.0,0.0,0.0,0.0,0.0,0.0,0.0,0.0,0.0,0.0,0.0,0.0,0.0,0.0,0.0,0.0,0.0,0.0,0.0,0.0,0.0,0.0,0.0,0.0,0.0,0.0,0.0,0.0,0.0,0.0,0.0,0.0,0.0,0.0,0.0,0.0,0.0,0.0,0.0,0.0,0.0,0.0,0.0,0.0,0.0,0.0,0.0,0.0,0.0,0.0,0.0,0.0,0.0,0.0,0.0,0.0,0.0,0.0,3.7122,3.6714,3.65,3.6522,3.61,3.5849,0.0,0.0,0.0,0.0,0.0,0.0,0.0,0.0,0.0,0.0,0.0,0.0,0.0,0.0,0.0,0.0,0.0,0.0,0.0,0.0,0.0,0.0,0.0,0.0,0.0,0.0,0.0,0.0,0.0,0.0,0.0,0.0,0.0,0.0,0.0,0.0,0.0,0.0,0.0,0.0,0.0,0.0,0.0,0.0,0.0,0.0,0.0,0.0,0.0,0.0,0.0,0.0,0.0,0.0,0.0,0.0,0.0,0.0,0.0,0.0,0.0,0.0,0.0,0.0,0.0,0.0,0.0,0.0,0.0,0.0,0.0,0.0,0.0,0.0,0.0,0.0,0.0,0.0,0.0,0.0,0.0,0.0,0.0,0.0,0.0,0.0,0.0,0.0,0.0,0.0,0.0,0.0,0.0,0.0,0.0,0.0,0.0,0.0,0.0,0.0,0.0,0.0,0.0,0.0,0.0,0.0,0.0,0.0,0.0,3.673,3.7255,3.741,3.7162,3.7133,3.6643,0.0,0.0,0.0,0.0,0.0,0.0,0.0,0.0,0.0,0.0,0.0,0.0,0.0,0.0,0.0,0.0,0.0,0.0,0.0,0.0,0.0,0.0,0.0,0.0,0.0,0.0,0.0,0.0,0.0,0.0,0.0,0.0,0.0,0.0,0.0,0.0,0.0,0.0,0.0,0.0,0.0,0.0,0.0,0.0,0.0,0.0,0.0,0.0,0.0,0.0,0.0,0.0,0.0,0.0,0.0,0.0,0.0,0.0,0.0,0.0,0.0,0.0,0.0,0.0,0.0,0.0,0.0,0.0,0.0,0.0,0.0,0.0,0.0,0.0,0.0,0.0,0.0,0.0,0.0,0.0,0.0,0.0,0.0,0.0,0.0,0.0,0.0,0.0,0.0,0.0,0.0,0.0,0.0,0.0,0.0,0.0,0.0,0.0,0.0,0.0,0.0,0.0,0.0,0.0,0.0,0.0,0.0,0.0,3.6097,3.7524,3.7632,3.7782,3.8003,3.7704,3.7107,0.0,0.0,0.0,0.0,0.0,0.0,0.0,0.0,0.0,0.0,0.0,0.0,0.0,0.0,0.0,0.0,0.0,0.0,0.0,0.0,0.0,0.0,0.0,0.0,0.0,0.0,0.0,0.0,0.0,0.0,0.0,0.0,0.0,0.0,0.0,0.0,0.0,0.0,0.0,0.0,0.0,0.0,0.0,0.0,0.0,0.0,0.0,0.0,0.0,0.0,0.0,0.0,0.0,0.0,0.0,0.0,0.0,0.0,0.0,0.0,0.0,0.0,0.0,0.0,0.0,0.0,0.0,0.0,0.0,0.0,0.0,0.0,0.0,0.0,0.0,0.0,0.0,0.0,0.0,0.0,0.0,0.0,0.0,0.0,0.0,0.0,0.0,0.0,0.0,0.0,0.0,0.0,0.0,0.0,0.0,0.0,0.0,0.0,0.0,0.0,0.0,0.0,0.0,0.0,0.0,0.0,0.0,0.0,3.6647,3.891,3.8099,3.8028,3.8821,3.8053,3.7291,0.0,0.0,0.0,0.0,0.0,0.0,0.0,0.0,0.0,0.0,0.0,0.0,0.0,0.0,0.0,0.0,0.0,0.0,0.0,0.0,0.0,0.0,0.0,0.0,0.0,0.0,0.0,0.0,0.0,0.0,0.0,0.0,0.0,0.0,0.0,0.0,0.0,0.0,0.0,0.0,0.0,0.0,0.0,0.0,0.0,0.0,0.0,0.0,0.0,0.0,0.0,0.0,0.0,0.0,0.0,0.0,0.0,0.0,0.0,0.0,0.0,0.0,0.0,0.0,0.0,0.0,0.0,0.0,0.0,0.0,0.0,0.0,0.0,0.0,0.0,0.0,0.0,0.0,0.0,0.0,0.0,0.0,0.0,0.0,0.0,0.0,0.0,0.0,0.0,0.0,0.0,0.0,0.0,0.0,0.0,0.0,0.0,0.0,0.0,0.0,0.0,0.0,0.0,0.0,0.0,0.0,0.0,0.0,3.7971,3.9559,3.9413,3.9084,3.8695,3.8355,3.7668,0.0,0.0,0.0,0.0,0.0,0.0,0.0,0.0,0.0,0.0,0.0,0.0,0.0,0.0,0.0,0.0,0.0,0.0,0.0,0.0,0.0,0.0,0.0,0.0,0.0,0.0,0.0,0.0,0.0,0.0,0.0,0.0,0.0,0.0,0.0,0.0,0.0,0.0,0.0,0.0,0.0,0.0,0.0,0.0,0.0,0.0,0.0,0.0,4.7558,0.0,0.0,0.0,0.0,0.0,0.0,0.0,0.0,0.0,0.0,0.0,0.0,0.0,0.0,0.0,0.0,0.0,0.0,0.0,0.0,0.0,0.0,0.0,0.0,0.0,0.0,0.0,0.0,0.0,0.0,0.0,0.0,0.0,0.0,0.0,0.0,0.0,0.0,0.0,0.0,0.0,0.0,0.0,0.0,0.0,0.0,0.0,0.0,0.0,0.0,0.0,0.0,0.0,0.0,0.0,0.0,0.0,0.0,0.0,3.8486,4.0237,3.9863,3.9518,3.9203,3.8967,3.8023,0.0,0.0,0.0,0.0,0.0,0.0,0.0,0.0,0.0,0.0,0.0,0.0,0.0,0.0,0.0,0.0,0.0,0.0,0.0,0.0,0.0,0.0,0.0,0.0,0.0,0.0,0.0,0.0,0.0,0.0,0.0,0.0,0.0,0.0,0.0,0.0,0.0,0.0,0.0,0.0,0.0,0.0,0.0,0.0,0.0,0.0,0.0,0.0,0.0,0.0,0.0,0.0,0.0,0.0,0.0,0.0,0.0,0.0,0.0,0.0,0.0,0.0,0.0,0.0,0.0,0.0,0.0,0.0,0.0,0.0,0.0,0.0,0.0,0.0,0.0,0.0,0.0,0.0,0.0,0.0,0.0,0.0,0.0,0.0,0.0,0.0,0.0,0.0,0.0,0.0,0.0,0.0,0.0,0.0,0.0,0.0,0.0,0.0,0.0,0.0,0.0,0.0,0.0,0.0,0.0,0.0,0.0,3.8034,3.8899,4.0856,4.0251,3.9904,4.0012,3.9661,3.8513,3.6493,0.0,0.0,0.0,0.0,0.0,0.0,0.0,0.0,0.0,0.0,0.0,0.0,0.0,0.0,0.0,0.0,0.0,0.0,0.0,0.0,0.0,0.0,0.0,0.0,0.0,0.0,0.0,0.0,0.0,0.0,0.0,0.0,0.0,0.0,0.0,0.0,0.0,0.0,4.5246,4.7152,0.0,0.0,0.0,0.0,0.0,0.0,0.0,0.0,4.9178,0.0,0.0,0.0,0.0,0.0,0.0,0.0,0.0,0.0,0.0,0.0,0.0,0.0,0.0,0.0,0.0,0.0,0.0,0.0,0.0,0.0,0.0,0.0,0.0,0.0,0.0,0.0,0.0,0.0,0.0,0.0,0.0,0.0,0.0,0.0,0.0,0.0,0.0,0.0,0.0,0.0,0.0,0.0,0.0,0.0,0.0,0.0,0.0,0.0,0.0,0.0,0.0,0.0,0.0,0.0,0.0,3.957,3.9549,4.0152,4.1446,4.1441,4.1149,4.0668,4.0426,3.9336,3.7331,0.0,0.0,0.0,0.0,0.0,0.0,0.0,0.0,0.0,0.0,0.0,0.0,0.0,0.0,0.0,0.0,0.0,0.0,0.0,0.0,0.0,0.0,0.0,0.0,0.0,0.0,0.0,0.0,0.0,0.0,0.0,0.0,0.0,0.0,0.0,0.0,0.0,0.0,0.0,4.8422,4.9364,0.0,0.0,0.0,0.0,0.0,0.0,0.0,0.0,5.0586,0.0,0.0,0.0,0.0,0.0,0.0,0.0,0.0,0.0,0.0,0.0,0.0,0.0,0.0,0.0,0.0,0.0,0.0,0.0,0.0,0.0,0.0,0.0,0.0,0.0,0.0,0.0,0.0,0.0,0.0,0.0,0.0,0.0,0.0,0.0,0.0,0.0,0.0,0.0,0.0,0.0,0.0,0.0,0.0,0.0,0.0,0.0,0.0,0.0,0.0,0.0,0.0,0.0,0.0,0.0,3.9773,4.0166,4.0763,4.1545,4.1659,4.1413,4.0866,4.0558,3.9478,0.0,0.0,0.0,0.0,0.0,0.0,0.0,0.0,0.0,0.0,0.0,0.0,0.0,0.0,0.0,0.0,0.0,0.0,0.0,0.0,0.0,0.0,0.0,0.0,0.0,0.0,0.0,0.0,0.0,0.0,0.0,0.0,0.0,0.0,0.0,0.0,0.0,0.0,0.0,0.0,4.9469,5.0748,5.0464,0.0,0.0,0.0,0.0,0.0,0.0,5.2785,5.1976,0.0,0.0,0.0,0.0,0.0,0.0,0.0,0.0,0.0,0.0,0.0,0.0,0.0,0.0,0.0,0.0,0.0,0.0,0.0,0.0,0.0,0.0,0.0,0.0,0.0,0.0,0.0,0.0,0.0,0.0,0.0,0.0,0.0,0.0,0.0,0.0,0.0,0.0,0.0,0.0,0.0,0.0,0.0,0.0,0.0,0.0,0.0,0.0,0.0,0.0,0.0,0.0,0.0,0.0,0.0,3.9833,4.058,4.1267,4.1913,4.1831,4.1611,4.1317,4.0671,3.9457,0.0,0.0,0.0,0.0,0.0,0.0,0.0,0.0,0.0,0.0,0.0,0.0,0.0,0.0,0.0,0.0,0.0,0.0,0.0,0.0,0.0,0.0,0.0,0.0,0.0,0.0,0.0,0.0,0.0,0.0,0.0,0.0,0.0,0.0,0.0,0.0,0.0,0.0,0.0,0.0,0.0,5.1906,5.1915,5.2881,0.0,0.0,0.0,0.0,5.5397,5.3952,0.0,0.0,0.0,0.0,0.0,0.0,0.0,0.0,0.0,0.0,0.0,0.0,0.0,0.0,0.0,0.0,0.0,0.0,0.0,0.0,0.0,0.0,0.0,0.0,0.0,0.0,0.0,0.0,0.0,0.0,0.0,0.0,0.0,0.0,0.0,0.0,0.0,0.0,0.0,0.0,0.0,0.0,0.0,0.0,0.0,0.0,0.0,0.0,0.0,0.0,0.0,0.0,0.0,0.0,0.0,0.0,4.0313,4.1032,4.195,4.2991,4.2577,4.2439,4.2648,4.118,3.9747,0.0,0.0,0.0,0.0,0.0,0.0,0.0,0.0,0.0,0.0,0.0,0.0,0.0,0.0,0.0,0.0,0.0,0.0,0.0,0.0,0.0,0.0,0.0,0.0,0.0,0.0,0.0,0.0,0.0,0.0,0.0,0.0,0.0,0.0,0.0,0.0,0.0,0.0,0.0,0.0,0.0,5.2326,5.2252,5.3235,5.3516,0.0,0.0,5.2786,5.3374,5.3304,0.0,0.0,0.0,0.0,0.0,0.0,0.0,0.0,0.0,0.0,0.0,0.0,0.0,0.0,0.0,0.0,0.0,0.0,0.0,0.0,0.0,0.0,0.0,0.0,0.0,0.0,0.0,0.0,0.0,0.0,0.0,0.0,0.0,0.0,0.0,0.0,0.0,0.0,0.0,0.0,0.0,0.0,0.0,0.0,0.0,0.0,0.0,0.0,0.0,0.0,0.0,0.0,0.0,0.0,0.0,3.9716,4.0424,4.1539,4.2498,4.3264,4.3108,4.2987,4.2921,4.1538,3.9995,0.0,0.0,0.0,0.0,0.0,0.0,0.0,0.0,0.0,0.0,0.0,0.0,0.0,0.0,0.0,0.0,0.0,0.0,0.0,0.0,0.0,0.0,0.0,0.0,0.0,0.0,0.0,0.0,0.0,0.0,0.0,0.0,0.0,0.0,0.0,0.0,0.0,0.0,0.0,0.0,0.0,0.0,5.2491,5.376,0.0,0.0,0.0,5.4405,5.5365,0.0,0.0,0.0,0.0,0.0,0.0,0.0,0.0,0.0,0.0,0.0,0.0,0.0,0.0,0.0,0.0,0.0,0.0,0.0,0.0,0.0,0.0,0.0,0.0,0.0,0.0,0.0,0.0,0.0,0.0,0.0,0.0,0.0,0.0,0.0,0.0,0.0,0.0,0.0,0.0,0.0,0.0,0.0,0.0,0.0,0.0,0.0,0.0,0.0,0.0,0.0,0.0,0.0,0.0,0.0,0.0,0.0,4.0674,4.2288,4.3355,4.3815,4.3826,4.3685,4.3404,4.2111,0.0,0.0,0.0,0.0,0.0,0.0,0.0,0.0,0.0,0.0,0.0,0.0,0.0,0.0,0.0,0.0,0.0,0.0,0.0,0.0,0.0,0.0,0.0,0.0,0.0,0.0,0.0,3.9266,0.0,0.0,0.0,0.0,0.0,0.0,0.0,0.0,0.0,0.0,0.0,0.0,0.0,0.0,5.2722,5.2767,5.4127,5.497,0.0,0.0,5.5132,5.6307,5.5217,5.4205,0.0,0.0,0.0,0.0,0.0,0.0,0.0,0.0,0.0,0.0,0.0,0.0,0.0,0.0,0.0,0.0,0.0,0.0,0.0,0.0,0.0,0.0,0.0,0.0,0.0,0.0,0.0,0.0,0.0,0.0,0.0,0.0,0.0,0.0,0.0,0.0,0.0,0.0,0.0,0.0,0.0,0.0,0.0,0.0,0.0,0.0,0.0,0.0,0.0,0.0,0.0,0.0,0.0,0.0,0.0,4.1392,4.345,4.4773,4.5216,4.4852,4.4696,4.4822,4.308,4.1541,0.0,0.0,0.0,0.0,0.0,0.0,0.0,0.0,0.0,0.0,0.0,0.0,0.0,0.0,0.0,0.0,0.0,0.0,0.0,0.0,0.0,0.0,0.0,0.0,0.0,0.0,0.0,0.0,0.0,0.0,0.0,0.0,0.0,0.0,0.0,0.0,0.0,0.0,0.0,0.0,0.0,5.264,5.3182,5.4073,5.4496,0.0,0.0,5.3511,5.4207,5.4433,5.4107,5.3086,0.0,0.0,0.0,0.0,0.0,0.0,0.0,0.0,0.0,0.0,0.0,0.0,0.0,0.0,0.0,0.0,0.0,0.0,0.0,0.0,0.0,0.0,0.0,0.0,0.0,0.0,0.0,0.0,0.0,0.0,0.0,0.0,0.0,0.0,0.0,0.0,0.0,0.0,0.0,0.0,0.0,0.0,0.0,0.0,0.0,0.0,0.0,0.0,0.0,0.0,0.0,0.0,0.0,4.1463,4.233,4.4061,4.5172,4.5637,4.5449,4.5291,4.514,4.4031,4.2688,0.0,0.0,0.0,0.0,0.0,0.0,0.0,0.0,0.0,0.0,0.0,0.0,0.0,0.0,0.0,0.0,0.0,0.0,0.0,0.0,0.0,0.0,0.0,0.0,0.0,0.0,0.0,0.0,3.9693,3.9708,3.9684,0.0,0.0,0.0,0.0,0.0,0.0,0.0,0.0,0.0,0.0,5.2534,5.3094,5.4291,0.0,0.0,5.4698,5.4807,5.4324,5.467,5.4474,5.2713,5.2288,0.0,0.0,0.0,0.0,0.0,0.0,0.0,0.0,0.0,0.0,0.0,0.0,0.0,0.0,0.0,0.0,0.0,0.0,0.0,0.0,0.0,0.0,0.0,0.0,0.0,0.0,0.0,0.0,0.0,0.0,0.0,0.0,0.0,0.0,0.0,0.0,0.0,0.0,0.0,0.0,0.0,0.0,0.0,0.0,0.0,0.0,0.0,0.0,0.0,0.0,0.0,0.0,4.2182,4.2954,4.4624,4.5616,4.5917,4.5955,4.5872,4.5623,4.4951,4.3846,0.0,0.0,0.0,0.0,0.0,0.0,0.0,0.0,0.0,0.0,0.0,0.0,0.0,0.0,0.0,0.0,0.0,0.0,0.0,0.0,0.0,0.0,0.0,0.0,0.0,0.0,0.0,0.0,3.9958,4.0097,4.0097,0.0,0.0,0.0,0.0,0.0,0.0,0.0,0.0,0.0,0.0,5.2895,5.3428,5.4356,5.4812,5.4211,5.4677,5.4792,5.4041,5.4469,5.4343,5.2748,0.0,0.0,0.0,0.0,0.0,0.0,0.0,0.0,0.0,0.0,0.0,0.0,0.0,0.0,0.0,0.0,0.0,0.0,0.0,0.0,0.0,0.0,0.0,0.0,0.0,0.0,0.0,0.0,0.0,0.0,4.5856,0.0,0.0,0.0,0.0,0.0,0.0,0.0,0.0,0.0,0.0,0.0,0.0,0.0,0.0,0.0,0.0,0.0,0.0,0.0,0.0,0.0,0.0,4.3255,4.3147,4.5258,4.6303,4.6216,4.6338,4.6423,4.6519,4.5927,4.5002,4.3755,0.0,0.0,0.0,0.0,0.0,0.0,0.0,0.0,0.0,0.0,0.0,0.0,0.0,0.0,0.0,0.0,0.0,0.0,0.0,0.0,0.0,0.0,0.0,0.0,0.0,0.0,3.986,4.0521,4.0976,0.0,0.0,0.0,0.0,0.0,0.0,0.0,0.0,0.0,0.0,5.2758,5.3749,5.4261,5.4289,5.4048,5.3504,5.2942,5.2688,5.3161,5.3568,5.3665,0.0,0.0,0.0,0.0,0.0,0.0,0.0,0.0,0.0,0.0,0.0,0.0,0.0,0.0,0.0,0.0,0.0,0.0,0.0,0.0,0.0,0.0,0.0,0.0,0.0,0.0,0.0,5.0378,5.0194,0.0,0.0,0.0,0.0,0.0,0.0,0.0,0.0,0.0,0.0,0.0,5.0055,5.1114,0.0,0.0,0.0,0.0,0.0,0.0,0.0,0.0,0.0,0.0,0.0,0.0,4.3862,4.4166,4.5785,4.6602,4.6483,4.6518,4.6637,4.6836,4.6632,4.5738,4.4038,0.0,0.0,0.0,0.0,0.0,0.0,0.0,0.0,0.0,0.0,0.0,0.0,0.0,0.0,0.0,0.0,0.0,0.0,0.0,0.0,0.0,0.0,0.0,0.0,0.0,4.0922,0.0,0.0,0.0,0.0,0.0,0.0,0.0,0.0,0.0,0.0,0.0,4.9316,5.0973,5.1887,5.2803,5.3868,5.3966,5.4291,0.0,0.0,0.0,0.0,0.0,0.0,0.0,0.0,0.0,0.0,0.0,0.0,0.0,0.0,5.5758,5.3676,5.3366,5.3312,5.3112,0.0,0.0,0.0,0.0,0.0,0.0,0.0,0.0,0.0,0.0,0.0,0.0,0.0,0.0,5.3487,0.0,5.2599,0.0,0.0,0.0,0.0,0.0,0.0,0.0,0.0,5.3645,5.3477,5.2354,5.3361,5.3529,0.0,5.1352,4.9546,0.0,0.0,0.0,0.0,0.0,0.0,0.0,0.0,4.459,4.493,4.6583,4.74,4.7355,4.7559,4.764,4.7584,4.7124,4.6322,4.5111,4.4044,4.2856,0.0,0.0,0.0,0.0,0.0,0.0,0.0,0.0,0.0,0.0,0.0,0.0,0.0,0.0,0.0,0.0,0.0,0.0,0.0,0.0,0.0,0.0,0.0,4.1851,0.0,0.0,0.0,0.0,0.0,0.0,0.0,0.0,0.0,4.8198,4.9094,5.045,5.2213,5.2639,5.3114,5.3942,0.0,0.0,0.0,0.0,0.0,0.0,0.0,5.4941,5.3947,5.4088,5.4261,5.4095,5.5142,5.6151,5.6754,0.0,0.0,5.4759,5.4513,5.4405,5.3923,5.3438,5.2984,5.2767,5.2305,5.1994,0.0,0.0,0.0,0.0,0.0,0.0,0.0,0.0,5.6723,5.6678,0.0,5.5316,0.0,0.0,0.0,0.0,0.0,5.4904,0.0,0.0,5.7624,5.755,5.5987,5.6715,5.6435,5.4973,5.4164,5.3079,5.1571,4.8406,0.0,0.0,0.0,0.0,0.0,0.0,4.5583,4.5576,4.76,4.872,4.8745,4.9365,4.9401,4.8731,4.7508,4.6875,4.6851,4.4865,4.3766,4.3926,4.2663,0.0,0.0,0.0,0.0,0.0,0.0,0.0,0.0,0.0,0.0,0.0,0.0,0.0,0.0,0.0,0.0,0.0,0.0,0.0,0.0,4.2645,0.0,0.0,0.0,0.0,0.0,0.0,0.0,0.0,0.0,0.0,5.09,5.1405,5.2617,5.4847,0.0,0.0,0.0,0.0,5.398,5.334,5.338,5.3617,5.3849,5.4773,5.5485,5.5498,0.0,0.0,5.5064,5.5032,5.5202,5.5227,5.547,5.567,5.6567,5.6696,5.6345,5.4945,5.4621,5.4413,5.3723,5.3456,5.3483,6.2951,0.0,0.0,0.0,0.0,5.7687,5.8164,5.8752,5.8974,5.899,5.8872,5.8234,0.0,0.0,0.0,0.0,0.0,0.0,5.6453,5.6556,5.7464,5.7269,5.6223,5.709,5.7252,5.6772,5.5613,5.4744,5.4175,5.2269,4.9947,4.7255,0.0,0.0,0.0,0.0,4.6965,4.7424,4.8395,4.9187,4.9778,4.9897,4.9967,4.9933,4.9131,4.8505,4.8051,4.7063,4.5708,4.4098,4.384,0.0,0.0,0.0,0.0,0.0,0.0,0.0,0.0,0.0,0.0,0.0,0.0,0.0,0.0,0.0,0.0,0.0,0.0,0.0,4.3504,4.4182,4.4875,0.0,0.0,0.0,0.0,0.0,0.0,0.0,0.0,0.0,5.3887,5.3383,5.3085,0.0,0.0,5.3591,5.4007,5.3551,5.3533,5.4501,0.0,0.0,0.0,5.49,5.4777,5.4811,5.5569,5.608,5.5874,5.6483,5.6983,5.7003,5.7077,5.7092,5.6797,5.6349,5.5857,5.5427,5.4957,5.4535,5.4317,5.3877,5.3522,6.7173,6.4705,6.1969,6.0907,6.1072,6.1249,6.1612,6.2075,6.1776,6.1715,6.1731,6.0763,5.9919,5.9217,5.8492,0.0,0.0,0.0,5.8637,5.8857,5.9206,5.9063,5.8612,5.9033,5.9071,5.8744,5.7631,5.688,5.6413,5.4647,5.2779,5.0731,0.0,0.0,4.7512,4.8107,4.8596,4.8974,4.9855,5.0519,5.0926,5.09,5.0931,5.1046,5.0194,4.95,4.9122,4.825,4.7135,4.5722,4.5615,4.5036,0.0,0.0,0.0,0.0,0.0,0.0,0.0,0.0,0.0,0.0,0.0,4.6098,4.5568,0.0,0.0,0.0,4.4892,4.4973,4.5028,4.5908,0.0,0.0,0.0,0.0,0.0,0.0,0.0,5.1655,5.2797,5.392,5.4854,5.4853,5.4631,5.4349,5.3891,5.3711,5.4129,0.0,5.376,5.4856,5.4663,5.4589,5.5233,5.5255,5.5221,5.5291,5.5858,5.6185,5.5933,5.6438,5.6856,5.6913,5.6976,5.6895,5.6521,5.6038,5.5708,5.5708,5.534,5.5045,5.5099,5.4734,5.4456,7.0729,7.0374,6.6349,6.4629,6.4682,6.5424,6.5687,6.5557,6.4833,6.4507,6.4396,6.2909,6.1795,6.1085,6.0383,0.0,6.1123,6.1114,6.1449,6.2124,6.2033,6.1996,6.1986,6.1864,6.145,6.0689,5.9954,5.9171,5.822,5.6082,5.4923,5.4726,5.2288,5.0469,4.9508,5.0027,5.0302,5.0244,5.1519,5.2225,5.2227,5.2227,5.22,5.2136,5.0833,5.0128,5.0106,4.8812,4.8128,4.8273,4.7744,4.7098,4.6449,0.0,0.0,0.0,0.0,0.0,0.0,0.0,0.0,0.0,0.0,0.0,0.0,0.0,0.0,0.0,4.6753,0.0,4.6992,4.7939,0.0,0.0,0.0,5.1331,5.2141,5.3063,5.3603,5.3608,0.0,0.0,5.4655,0.0,5.674,5.6473,5.5549,5.4842,5.4842,5.4772,5.4685,5.4953,5.4879,5.4942,5.5345,5.5934,5.6409,5.6408,5.6554,5.6346,5.5588,5.5459,5.5511,5.5692,5.5682,5.5784,5.5885,5.5895,5.588,5.5756,5.5776,5.5793,5.5807,5.5822,5.5844,7.2278,7.162,6.9964,6.852,6.7386,6.7527,6.7301,6.6736,6.6509,6.6067,6.5407,6.4464,6.3345,6.205,6.1877,6.1915,6.2079,6.201,6.2089,6.2251,6.2124,6.2088,6.2079,6.2023,6.1938,6.1712,6.0938,6.0126,5.9267,5.8136,5.6968,5.5712,5.5015,5.3267,5.0537,5.061,5.0928,5.1398,5.1622,5.2298,5.3364,5.3392,5.3124,5.2559,5.1682,5.0968,5.0426,4.9685,4.931,4.9324,4.8771,4.8378,4.8269,4.7079,0.0,0.0,0.0,0.0,0.0,0.0,0.0,0.0,0.0,4.7232,4.6511,0.0,4.8209,0.0,4.8347,4.882,4.8872,5.0236,0.0,0.0,5.2292,5.2889,5.3155,5.4477,5.5357,5.5393,5.6057,5.6792,5.7424,5.722,5.723,5.7735,5.7346,5.6918,5.6898,5.6861,5.6823,5.6778,5.6822,5.6985,5.6951,5.7291,5.7263,5.6754,5.6783,5.662,5.5736,5.5703,5.5815,5.584,5.585,5.589,5.5904,5.5918,5.5927,5.5898,5.5923,5.5879,5.5943,5.6029,5.592,7.3838,7.3434,7.2574,7.1474,7.0223,6.9408,6.8849,6.8433,6.8091,6.7637,6.7106,6.5985,6.4777,6.3643,6.3651,6.3651,6.3643,6.3601,6.3575,6.3575,6.3533,6.3477,6.3469,6.3469,6.3279,6.2862,6.2058,6.1225,6.0362,5.9227,5.8181,5.7316,5.6892,5.5564,5.3361,5.2802,5.2502,5.2477,5.234,5.2845,5.4026,5.4055,5.3689,5.2945,5.2178,5.148,5.077,5.018,4.9859,4.9872,4.9645,4.936,4.9049,4.8187,4.7775,0.0,0.0,0.0,0.0,0.0,0.0,0.0,0.0,0.0,0.0,0.0,4.9639,4.9245,5.0132,5.0705,5.0705,5.1974,5.2913,5.3308,5.3801,5.4208,5.4642,5.5547,5.6072,5.6037,5.6446,5.688,5.7303,5.727,5.7463,5.8261,5.8471,5.84,5.7875,5.7776,5.7711,5.7749,5.7798,5.7724,5.7449,5.7152,5.6673,5.5944,5.5813,5.5661,5.4813,5.5012,5.5326,5.5388,5.5682,5.5946,5.599,5.602,5.6042,5.6058,5.6066,5.6024,5.6032,5.6106,5.5912,7.5095,7.5142,7.4285,7.3495,7.2628,7.0966,7.0234,7.0147,6.9386,6.8929,6.8662,6.6996,6.5854,6.5207,6.5207,6.5207,6.5207,6.5207,6.5207,6.5207,6.5207,6.5207,6.5207,6.5207,6.4788,6.4065,6.3182,6.2413,6.1689,6.0023,5.9147,5.9033,5.8196,5.7358,5.6552,5.5572,5.4546,5.3537,5.3494,5.3791,5.4439,5.4364,5.387,5.2956,5.2296,5.1661,5.0939,5.0436,5.0215,5.0303,5.0394,5.021,4.9736,4.9557,4.9327,0.0,4.8784,0.0,0.0,0.0,0.0,0.0,0.0,0.0,0.0,5.0974,5.1051,5.1051,5.1945,5.2532,5.2536,5.3367,5.4226,5.4894,5.5024,5.5359,5.6106,5.6296,5.6319,5.628,5.628,5.6286,5.6484,5.6887,5.752,5.8298,5.8953,5.9017,5.8283,5.8143,5.8195,5.8167,5.8144,5.7916,5.7401,5.6696,5.6,5.5075,5.4931,5.4423,5.3583,5.4012,5.4489,5.4607,5.5268,5.5809,5.5932,5.6052,5.6194,5.6205,5.6192,5.6202,5.6132,5.5991,5.5796,7.5199,7.5216,7.4458,7.3726,7.2961,7.2024,7.1052,7.0185,6.9995,6.9195,6.7825,6.6159,6.5321,6.5207,6.5207,6.5207,6.5207,6.5207,6.5207,6.5207,6.5207,6.5207,6.5207,6.5207,6.5093,6.4903,6.4065,6.357,6.338,6.1735,6.0593,5.9962,5.9078,5.8234,5.7396,0.0,0.0,0.0,5.5231,5.5291,5.4784,5.4103,5.3006,5.1582,5.1489,0.0,5.0418,5.0415,5.0763,5.1426,5.0922,0.0,0.0,0.0,0.0,0.0,0.0,0.0,0.0,0.0,0.0,0.0,5.3061,5.2686,5.1989,5.2579,5.2962,5.3005,5.3785,5.4316,5.432,5.518,5.5788,5.5901,5.5951,5.6032,5.6218,5.6757,5.718,5.7172,5.7172,5.7397,5.7919,5.7735,5.7671,5.8359,5.864,5.865,5.8456,5.8863,5.9215,5.9187,5.8616,5.8242,5.8135,5.7926,5.7159,5.6182,5.5771,5.5155,5.3867,5.3604,5.3801,5.3813,5.4518,5.5118,5.5158,5.574,5.6243,5.6268,5.6341,5.6347,5.6249,5.5715,5.4971,7.5931,0.0,7.474,7.4221,0.0,7.2615,7.1735,7.1159,7.0691,6.9589,6.8013,6.714,6.6298,6.5494,6.5494,6.5494,6.5494,6.5457,6.5435,6.5466,6.5352,6.536,6.536,6.5313,6.529,6.5252,6.442,6.4047,6.4001,6.278,6.1962,6.1588,6.1165,6.053,5.9727,5.93,5.8127,5.6268,5.623,5.626,5.6177,5.5417,5.4389,5.3241,0.0,0.0,0.0,0.0,0.0,0.0,0.0,0.0,0.0,0.0,0.0,5.3508,5.3239,5.3388,5.4197,5.4343,5.4555,5.5022,5.5078,5.466,5.3666,5.4333,5.4826,5.4826,5.5232,5.5472,5.5514,5.5969,5.6258,5.6241,5.6272,5.6285,5.6311,5.6628,5.6903,5.6883,5.6869,5.7049,5.7395,5.711,5.7164,5.7913,5.8019,5.8088,5.854,5.8872,5.9025,5.9021,5.837,5.7871,5.7855,5.7529,5.697,5.5761,5.5122,5.437,5.3191,5.3014,5.3025,5.3067,5.3708,5.4401,5.4925,5.5387,5.5841,5.6208,5.6391,5.6368,5.6347,5.5986,5.5283,7.6617,7.5787,7.5221,7.4879,7.4623,7.3135,7.2333,7.1987,0.0,0.0,0.0,6.8475,6.7628,6.6244,6.609,6.6013,6.6013,6.5801,6.5691,6.5691,6.5615,6.5559,6.5559,6.5494,6.5496,6.5419,6.4776,6.447,6.4439,6.3692,6.3298,6.3267,6.3174,6.2816,6.2126,6.1275,6.0053,5.8415,5.742,5.7177,5.7634,5.6886,5.6108,5.5377,5.4599,5.3934,5.3413,5.3282,5.3302,5.3363,5.3413,5.3548,5.3731,5.3811,5.3958,5.4134,5.4202,5.453,5.52,5.5299,5.5655,5.6292,5.6508,5.6233,5.5294,5.5811,5.6298,5.6408,5.6453,5.6495,5.6654,5.6721,5.6769,5.6783,5.6825,5.6767,5.6589,5.6567,5.6606,5.6353,5.6365,5.631,5.6307,5.6297,5.6453,5.7095,5.7229,5.7397,5.8079,5.8269,5.8264,5.8066,5.7521,5.716,5.7086,5.6737,5.5892,5.5165,5.4234,5.3342,5.2576,5.2246,5.2185,5.2191,5.2894,5.3658,5.4372,5.4708,5.5198,5.602,5.604,5.6024,5.6158,5.6061,5.5419,7.6775,7.6069,7.6023,7.5588,7.4879,7.3962,7.2778,7.1452,7.026,6.9629,6.9405,6.8712,6.8289,6.7981,6.725,6.6904,6.6859,6.6154,6.5769,0.0,6.5788,6.5737,6.5776,6.5769,6.5763,6.5724,6.5609,6.5577,6.55,6.4782,6.4366,6.4295,6.3648,6.3225,6.3032,6.2219,6.1668,6.1363,5.9754,5.8623,5.8049,5.7273,5.642,5.556,5.4846,5.4448,5.448,5.3864,5.3467,5.3549,5.362,5.3958,5.4671,5.477,5.5135,5.5867,5.5953,5.6054,5.6292,5.6299,5.634,5.6492,5.7117,5.7128,5.6236,5.6221,5.6559,5.7233,5.7375,5.7699,5.8402,5.847,5.8407,5.8479,5.8524,5.8257,5.7473,5.7362,5.7131,5.6464,5.6381,5.6375,5.6375,5.6344,5.6317,5.6439,5.657,5.6508,5.6777,5.7166,5.7271,5.6724,5.6466,5.6353,5.643,5.6314,5.59,5.5151,5.4293,5.3443,5.2686,5.1958,5.1535,5.1424,5.2137,5.2694,5.2986,5.3552,5.4316,5.5114,5.4897,5.4638,5.523,5.4843,5.4221,7.7447,7.6403,7.6386,7.62,7.5764,7.4469,7.3256,7.207,7.1059,7.0341,6.9877,6.9535,6.911,6.8641,6.8259,6.7796,6.736,6.741,6.7183,6.6757,6.7162,6.7087,6.6619,6.6512,6.6263,6.587,6.5839,6.5839,6.5838,6.5528,6.5371,6.5367,6.4591,6.3913,6.345,6.2639,6.1983,6.1509,6.0606,5.9935,5.9551,5.8775,5.8171,5.7813,5.7052,5.6709,5.6794,5.6471,5.6327,5.6414,5.6427,5.6651,5.7046,5.6672,5.6672,5.6996,5.6658,5.6443,5.6505,5.6933,5.7362,5.783,5.818,5.8245,5.7821,5.7777,5.793,5.8268,5.8356,5.852,5.8909,5.8958,5.8958,5.8943,5.8956,5.8608,5.7858,5.7673,5.733,5.6626,5.642,5.6417,5.6432,5.6397,5.6336,5.6347,5.6328,5.6314,5.6289,5.6631,5.6766,5.6368,5.6257,5.6308,5.6308,5.6308,5.6158,5.5822,5.4655,5.3724,5.3156,5.2193,5.1353,5.125,5.1656,5.2072,5.2439,5.2926,5.3601,5.4231,5.4284,5.4213,5.4373,5.3835,5.3293,7.806,7.6549,7.6607,7.6531,7.624,7.4935,7.3776,7.2805,7.2107,7.1365,7.0589,7.0509,7.0098,6.9521,6.9289,6.8824,6.831,6.8631,6.8472,6.7918,6.842,6.8304,6.7675,6.7352,6.6871,6.6289,6.6055,6.5984,6.603,6.6069,6.6112,6.6082,6.5548,6.4909,6.4217,6.3443,6.2664,6.2031,6.1458,6.1087,6.0867,6.0271,5.9976,5.9978,5.9224,5.8867,5.8931,5.8753,5.868,5.8831,5.8836,5.8871,5.8898,5.8322,5.7997,5.7921,5.7429,5.705,5.7089,5.7635,5.8297,5.8921,5.9194,5.9271,5.931,5.9466,5.9466,5.9349,5.9267,5.9386,5.9618,5.962,5.9574,5.9557,5.9572,5.9221,5.8196,5.7974,5.7596,5.6738,5.645,5.6448,5.6494,5.6473,5.6417,5.6429,5.642,5.6417,5.6395,5.64,5.6383,5.6363,5.6399,5.641,5.6412,5.6417,5.642,5.6422,5.4947,5.4017,5.3515,5.2438,5.1441,5.1342,5.1366,5.1659,5.226,5.2386,5.2742,5.3408,5.3414,5.3303,5.3268,5.2882,5.2415,7.8119,7.6728,7.6672,7.6272,7.5641,7.5491,7.4491,7.3129,7.2903,7.2358,7.1559,7.1417,7.1305,7.1145,7.0418,6.9996,6.9836,6.9207,6.8897,6.8814,6.8844,6.8839,6.8679,6.7929,6.7503,6.7309,6.6684,6.6331,6.634,6.6349,6.6358,6.6363,6.629,6.6178,6.5984,6.5243,6.4778,6.4696,6.3167,6.1918,6.1138,6.1059,6.1048,6.1052,6.0291,5.9871,5.9871,5.9174,5.8827,5.8868,5.8999,5.9028,5.9034,5.8902,5.8877,5.8877,5.8802,5.8765,5.8765,5.8843,5.8921,5.9038,5.9778,6.0168,6.0204,6.0867,6.1023,6.0399,6.0207,6.0477,6.1257,6.1257,6.1179,6.1096,6.1176,6.0711,5.9189,5.888,5.8258,5.6663,5.6503,5.6503,5.6503,5.6498,5.6459,5.6459,5.6459,5.6457,5.6461,5.6466,5.647,5.6472,5.647,5.6468,5.6476,5.6484,5.6486,5.6347,5.503,5.4089,5.3543,5.2581,5.1391,5.1387,5.1402,5.1494,5.1502,5.1545,5.1861,5.2491,5.2337,5.1752,5.1679,5.1679,5.164,7.8306,7.6795,7.6812,7.6646,7.6288,7.58,7.522,7.4481,7.343,7.2769,7.2412,7.1882,7.1618,7.1618,7.1233,7.0845,7.0382,7.0495,7.025,6.9876,7.0303,7.0269,6.9717,6.8838,6.8217,6.7658,6.6862,6.6469,6.6458,6.6481,6.6535,6.6535,6.6535,6.6263,6.5793,6.5404,6.4743,6.3768,6.3574,6.3019,6.221,6.2102,6.1854,6.1388,6.1525,6.1369,6.0913,6.0543,6.0412,6.0444,6.0469,6.0487,6.0541,6.0044,5.9778,5.9737,5.9271,5.9232,5.9739,5.9778,6.0012,6.0477,6.0867,6.1064,6.1062,6.1412,6.1412,6.1181,6.1062,6.1257,6.1529,6.1568,6.1568,6.1568,6.1568,6.0906,5.9194,5.8999,5.8336,5.6816,5.6505,5.6505,5.6505,5.6505,5.6505,5.6507,5.6476,5.6482,5.6484,5.6494,5.6503,5.6507,5.6505,5.6505,5.6471,5.6471,5.6475,5.6209,5.5042,5.3951,5.3689,5.2524,5.1402,5.1377,5.1389,5.1398,5.1403,5.1406,5.1562,5.1875,5.1836,5.1406,5.1404,5.1403,5.1405,7.822,7.7014,7.6908,7.6912,7.6873,7.6222,7.5836,7.5485,7.4278,7.3461,7.2952,7.2371,7.1943,7.1745,7.1686,7.1368,7.0943,7.1446,7.1389,7.0859,7.1403,7.1364,7.07,6.9822,6.9006,6.8168,6.7295,6.679,6.6584,6.6569,6.6585,6.6585,6.6585,6.6273,6.5725,6.5651,6.5064,6.4013,6.4247,6.4091,6.3579,6.3476,6.3022,6.227,6.2546,6.2496,6.1912,6.1645,6.1507,6.1489,6.1539,6.1549,6.1568,6.0984,6.0635,6.0594,6.009,5.9973,6.0596,6.0633,6.0945,6.149,6.1568,6.1568,6.1568,6.1568,6.1568,6.1568,6.1568,6.1568,6.1568,6.1568,6.1568,6.1568,6.1568,6.0869,5.9271,5.8999,5.8336,5.6816,5.6505,5.6505,5.6507,5.6472,5.6476,5.6476,5.649,5.6501,5.6503,5.6475,5.6483,5.649,5.649,5.649,5.649,5.649,5.6491,5.6148,5.5098,5.3976,5.3787,5.2465,5.142,5.1398,5.1404,5.1406,5.1406,5.1402,5.1395,5.1394,5.1393,5.1393,5.1391,5.1392,5.1391,7.7672,7.6979,7.6894,7.6904,7.6907,7.69,7.6448,7.578,7.5549,7.4617,7.3328,7.3019,7.2554,7.1844,7.1751,7.1679,7.164,7.1683,7.1644,7.1562,7.1679,7.1676,7.1598,7.0823,6.9928,6.8994,6.8021,6.7282,6.6624,6.6585,6.6585,6.6585,6.6588,6.6588,6.6471,6.6474,6.6468,6.6046,6.554,6.5184,6.5151,6.5172,6.4818,6.4013,6.3235,6.2813,6.2579,6.1943,6.1492,6.1495,6.1554,6.1566,6.1568,6.1529,6.149,6.149,6.1451,6.1451,6.1451,6.1451,6.149,6.1568,6.1568,6.1568,6.1568,6.1568,6.1568,6.1568,6.1568,6.1568,6.1568,6.1568,6.1568,6.1568,6.1568,6.0791,5.9194,5.8999,5.8219,5.6894,5.6507,5.6509,5.6509,5.6482,5.649,5.6496,5.6509,5.6482,5.6482,5.6483,5.6493,5.6503,5.6507,5.6507,5.6507,5.6506,5.655,5.6247,5.5357,5.4041,5.3423,5.2765,5.1989,5.1406,5.1406,5.1404,5.14,5.1394,5.1385,5.138,5.1377,5.1374,5.1368,5.1372,5.1369,7.8209,7.6966,7.6975,7.6981,7.6981,7.6993,7.6802,7.649,7.5947,7.5363,7.4622,7.3609,7.2908,7.2635,7.2028,7.1782,7.1743,7.1743,7.1746,7.1746,7.1746,7.1782,7.1629,7.0383,6.9607,6.9098,6.7812,6.6992,6.6719,6.668,6.668,6.668,6.6641,6.668,6.6641,6.668,6.6407,6.5901,6.6018,6.594,6.5473,6.5912,6.6068,6.5709,6.4382,6.3136,6.2048,6.1707,6.1556,6.1556,6.1602,6.1568,6.1568,6.1568,6.1568,6.1568,6.1568,6.1568,6.1568,6.1568,6.1568,6.1568,6.1568,6.1568,6.1568,6.1568,6.1568,6.1568,6.1568,6.1568,6.1568,6.1568,6.1568,6.1568,6.1568,6.0906,5.9505,5.896,5.8375,5.6938,5.6476,5.6484,5.6488,5.6501,5.6473,5.6475,5.6488,5.6497,5.6502,5.6546,5.6554,5.656,5.6566,5.6571,5.6571,5.6564,5.6525,5.6261,5.5605,5.4675,5.3938,5.3045,5.2226,5.1484,5.1402,5.1395,5.1387,5.1373,5.1362,5.1394,5.1389,5.1343,5.1334,5.1337,5.1328,7.8048,7.7077,7.6999,7.6999,7.6999,7.6999,7.6999,7.6921,7.6376,7.5986,7.548,7.4155,7.3375,7.2986,7.2206,7.1817,7.1817,7.1817,7.1817,7.1817,7.1817,7.1817,7.1622,7.065,6.9793,6.9131,6.753,6.6709,6.6709,6.6709,6.6709,6.6709,6.6709,6.6709,6.6709,6.6709,6.6359,6.6047,6.6398,6.6398,6.5969,6.6398,6.6554,6.6164,6.5151,6.3865,6.2465,6.2153,6.188,6.1646,6.1568,6.1568,6.1568,6.1568,6.1568,6.1568,6.1568,6.1568,6.1568,6.1568,6.1568,6.1568,6.1568,6.1568,6.1568,6.1568,6.1568,6.1568,6.1568,6.1568,6.1568,6.1568,6.1568,6.1568,6.1568,6.1025,5.9661,5.9194,5.8221,5.6907,5.6494,5.6501,5.6505,5.648,5.649,5.6491,5.6506,5.6553,5.656,5.6566,5.6612,5.6616,5.6621,5.6625,5.6588,5.6587,5.6582,5.6391,5.5929,5.5074,5.4256,5.3359,5.2499,5.1753,5.1394,5.138,5.1402,5.1383,5.1369,5.1358,5.1348,5.134,5.1294,5.129,5.1281,7.7077,7.6999,7.6999,7.6999,7.6999,7.6999,7.6999,7.6999,7.696,7.6493,7.5791,7.4817,7.396,7.3142,7.2362,7.1858,7.1817,7.1817,7.1817,7.1817,7.1817,7.1817,7.1778,7.1544,7.0614,6.9292,6.7608,6.6829,6.6834,6.6836,6.6834,6.6753,6.6717,6.6719,6.6712,6.6719,6.6714,6.6639,6.6678,6.6673,6.6709,6.6709,6.6359,6.5657,6.5424,6.4995,6.4062,6.3322,6.2542,6.1802,6.1685,6.1646,6.1607,6.1568,6.1568,6.1568,6.1568,6.1568,6.1571,6.1571,6.1573,6.1578,6.1573,6.1578,6.158,6.1578,6.1578,6.1578,6.1578,6.1573,6.1575,6.1578,6.1573,6.1568,6.1571,6.1183,6.0328,5.9469,5.8345,5.6886,5.6475,5.6483,5.6488,5.6503,5.6514,5.6516,5.6563,5.661,5.6579,5.6581,5.6624,5.663,5.6594,5.6596,5.6598,5.6599,5.6597,5.6518,5.5975,5.5273,5.4492,5.363,5.2805,5.2057,5.1457,5.1399,5.1341,5.1319,5.1337,5.1322,5.1308,5.1293,5.1245,5.1241,5.1232,7.7542,7.7038,7.6999,7.6999,7.6999,7.6999,7.6999,7.6999,7.6999,7.684,7.6454,7.5674,7.4817,7.396,7.3103,7.2362,7.1817,7.1817,7.1817,7.1819,7.1819,7.1819,7.1702,7.1235,7.0388,6.939,6.8768,6.8193,6.7738,6.766,6.7389,6.688,6.68,6.6761,6.6759,6.6763,6.6763,6.6761,6.6707,6.6697,6.6697,6.6719,6.6554,6.6359,6.6281,6.5891,6.5034,6.4177,6.3361,6.2503,6.2503,6.2231,6.1724,6.1568,6.1568,6.1568,6.1568,6.1578,6.1589,6.1591,6.1599,6.1573,6.1576,6.1578,6.1578,6.1576,6.1576,6.1576,6.1578,6.1578,6.1576,6.1578,6.1606,6.1573,6.1582,6.1251,6.029,5.9093,5.7775,5.6766,5.6506,5.6475,5.652,5.6531,5.658,5.658,5.6584,5.6626,5.6628,5.663,5.6631,5.6597,5.6599,5.6601,5.6601,5.6601,5.6601,5.6601,5.621,5.5623,5.484,5.417,5.3303,5.2353,5.1747,5.1376,5.1314,5.1294,5.1312,5.1291,5.128,5.1259,5.1234,5.1224,5.1224,7.7776,7.7038,7.6999,7.6999,7.6999,7.6999,7.6999,7.6999,7.6999,7.6999,7.6804,7.6064,7.5402,7.4703,7.3659,7.2846,7.2303,7.2038,7.1848,7.1845,7.1835,7.1833,7.1718,7.0988,7.0335,6.9803,6.9456,6.9033,6.858,6.8503,6.8111,6.7409,6.729,6.7095,6.6861,6.6822,6.6822,6.682,6.6769,6.672,6.6709,6.6695,6.6719,6.6712,6.6709,6.6398,6.5891,6.5307,6.441,6.3166,6.262,6.2114,6.1646,6.1568,6.1573,6.158,6.1584,6.1591,6.1573,6.1576,6.1582,6.1593,6.1597,6.1595,6.1597,6.1597,6.1597,6.1597,6.1595,6.1597,6.1597,6.1602,6.1593,6.1573,6.158,6.1088,6.0013,5.8975,5.781,5.6915,5.6532,5.6538,5.6542,5.6585,5.6592,5.6592,5.6592,5.6595,5.6597,5.6598,5.66,5.6601,5.6601,5.6599,5.6596,5.6592,5.6628,5.663,5.6552,5.5928,5.5263,5.4783,5.4105,5.2722,5.1877,5.1431,5.129,5.1312,5.1293,5.1273,5.1249,5.1227,5.1206,5.1195,5.1231,7.7854,7.7116,7.6999,7.6999,7.6999,7.6999,7.6999,7.6999,7.7002,7.7005,7.6807,7.6231,7.5764,7.5338,7.419,7.3459,7.3071,7.2424,7.2002,7.1922,7.1911,7.1904,7.1785,7.1135,7.0795,7.0569,6.9947,6.952,6.9408,6.9408,6.8935,6.8238,6.8123,6.7805,6.73,6.6982,6.6986,6.7027,6.6945,6.6935,6.6917,6.6991,6.6899,6.6878,6.6878,6.68,6.6605,6.6335,6.5317,6.3324,6.2396,6.1892,6.1692,6.1651,6.1589,6.1601,6.1603,6.1615,6.163,6.1597,6.16,6.1604,6.1605,6.16,6.1604,6.1607,6.1607,6.1605,6.1604,6.1604,6.1609,6.1618,6.1585,6.1627,6.1589,6.0931,5.9496,5.9155,5.83,5.7092,5.6628,5.6593,5.6592,5.6594,5.6595,5.6596,5.6596,5.66,5.6601,5.6601,5.66,5.6598,5.6595,5.663,5.6626,5.6623,5.6619,5.6618,5.6579,5.6225,5.5678,5.5272,5.4633,5.3283,5.2205,5.1715,5.1384,5.1445,5.1344,5.124,5.1216,5.1195,5.1222,5.1214,5.1211,7.8711,7.7932,7.7272,7.6999,7.6999,7.6999,7.6999,7.7002,7.6986,7.6994,7.6919,7.6783,7.632,7.574,7.5315,7.4461,7.3447,7.2944,7.2439,7.1971,7.1907,7.1899,7.1887,7.1694,7.155,7.1446,7.1177,7.0911,7.0374,7.0333,6.9905,6.9089,6.9048,6.8931,6.8658,6.8032,6.7798,6.776,6.7762,6.7753,6.7814,6.8357,6.8349,6.7785,6.7703,6.7389,6.6804,6.6143,6.5628,6.4833,6.3327,6.2555,6.2473,6.1968,6.1658,6.1586,6.1588,6.1634,6.1649,6.1654,6.1697,6.1668,6.1667,6.1668,6.167,6.167,6.167,6.167,6.167,6.1674,6.1682,6.1688,6.1657,6.1668,6.1664,6.1234,6.0225,5.9486,5.8705,5.7729,5.7027,5.6754,5.6598,5.66,5.6601,5.6601,5.6601,5.6601,5.6599,5.6597,5.6595,5.6629,5.6624,5.6619,5.6614,5.6611,5.6608,5.6607,5.6564,5.6477,5.6003,5.5598,5.4803,5.3768,5.2925,5.2314,5.1983,5.1809,5.1587,5.1403,5.1231,5.1214,5.1211,5.1205,5.1205,7.9023,7.8204,7.735,7.7008,7.7017,7.698,7.6986,7.6999,7.7014,7.6983,7.6988,7.6999,7.6772,7.6306,7.5924,7.5302,7.4289,7.3555,7.2974,7.2544,7.2125,7.1968,7.1922,7.1957,7.1925,7.1935,7.1937,7.1666,7.1321,7.1245,7.0777,7.0113,6.9925,6.9771,6.9302,6.8956,6.8645,6.8646,6.8646,6.8639,6.8697,6.9125,6.8839,6.8275,6.8074,6.7682,6.6861,6.6323,6.589,6.533,6.4203,6.3313,6.2882,6.2453,6.2028,6.1722,6.1646,6.1652,6.1703,6.1707,6.1711,6.1716,6.1719,6.1719,6.1718,6.1719,6.1719,6.1718,6.1722,6.1691,6.1697,6.1704,6.1712,6.1717,6.1717,6.1365,6.0507,5.9999,5.914,5.8202,5.746,5.6952,5.6679,5.6601,5.6601,5.66,5.6599,5.6596,5.663,5.6628,5.6586,5.658,5.6574,5.6569,5.6564,5.6559,5.6553,5.655,5.6542,5.6493,5.6248,5.5842,5.5205,5.4408,5.3641,5.303,5.2775,5.244,5.203,5.1811,5.1483,5.1319,5.1355,5.1576,5.1498,7.9107,7.8372,7.7398,7.6989,7.7017,7.698,7.6995,7.701,7.7018,7.7018,7.702,7.7016,7.6989,7.6981,7.634,7.5872,7.564,7.4367,7.3627,7.308,7.2573,7.2178,7.1983,7.1982,7.1983,7.1986,7.1987,7.195,7.1835,7.1913,7.1601,7.0981,7.0834,7.0446,7.0018,6.9672,6.9521,6.9519,6.9518,6.955,6.9613,6.9765,6.948,6.8483,6.7892,6.7539,6.6995,6.6688,6.6418,6.5661,6.4803,6.4063,6.3359,6.3201,6.2779,6.2323,6.2248,6.2215,6.2027,6.2108,6.1913,6.1914,6.1836,6.1719,6.1719,6.1719,6.172,6.1723,6.1693,6.1698,6.1705,6.1713,6.1717,6.1719,6.1719,6.1289,6.0742,6.0469,5.9805,5.8398,5.8125,5.75,5.7031,5.6679,5.6598,5.6595,5.6593,5.6628,5.6623,5.6619,5.6575,5.6567,5.6561,5.6559,5.6513,5.6506,5.6496,5.6488,5.6516,5.6466,5.6336,5.6008,5.5606,5.5004,5.4431,5.4054,5.3833,5.3383,5.2783,5.2496,5.2326,5.1931,5.1656,5.2023,5.213,7.9442,7.9172,7.7651,7.7051,7.7082,7.7085,7.7087,7.7092,7.7067,7.7068,7.7071,7.7071,7.7076,7.7045,7.6804,7.6451,7.5904,7.5328,7.4707,7.333,7.3162,7.2573,7.2182,7.2028,7.1987,7.1987,7.1987,7.1993,7.2,7.2002,7.1929,7.174,7.1585,7.1627,7.1315,7.0654,7.0419,7.0419,7.0419,7.0415,7.0562,7.0948,7.0588,6.9207,6.7877,6.7099,6.6904,6.679,6.6712,6.6397,6.5771,6.5143,6.4792,6.4286,6.3858,6.3627,6.3629,6.367,6.3594,6.3086,6.2696,6.2657,6.2226,6.1719,6.1719,6.1758,6.1723,6.1692,6.1697,6.1704,6.1713,6.1717,6.1719,6.1719,6.168,6.164,6.1366,6.082,6.0273,5.9686,5.8709,5.7849,5.7613,5.6948,5.6788,5.6667,5.6623,5.6619,5.6614,5.6609,5.6561,5.6552,5.651,5.6506,5.6533,5.6485,5.6477,5.6503,5.649,5.6478,5.6347,5.6288,5.5923,5.5631,5.5299,5.5039,5.478,5.4104,5.3429,5.3336,5.3207,5.289,5.2686,5.2858,5.2763,7.9571,7.9398,7.7733,7.709,7.7071,7.7073,7.7077,7.7083,7.7088,7.7091,7.7091,7.7091,7.7094,7.7097,7.7093,7.6817,7.6428,7.6002,7.5182,7.4043,7.3526,7.3052,7.262,7.2186,7.1987,7.1987,7.1987,7.1995,7.2003,7.2007,7.1971,7.198,7.1984,7.1946,7.1986,7.1519,7.1363,7.1323,7.1322,7.1318,7.1424,7.1694,7.1454,6.9961,6.8396,6.742,6.7418,6.699,6.6835,6.6679,6.6367,6.5936,6.5624,6.5155,6.4766,6.4376,6.4298,6.4298,6.4103,6.3907,6.3595,6.3595,6.3125,6.2735,6.2462,6.2304,6.2038,6.1813,6.1702,6.1709,6.1717,6.1718,6.1719,6.1719,6.1718,6.1718,6.1639,6.1288,6.0819,6.0426,5.9643,5.8744,5.8078,5.7489,5.6939,5.6818,5.6569,5.6564,5.6559,5.6553,5.6545,5.6536,5.6496,5.649,5.6514,5.6501,5.6492,5.648,5.6468,5.6455,5.6366,5.6339,5.6311,5.6025,5.5739,5.5796,5.55,5.4828,5.4313,5.419,5.4064,5.3854,5.3683,5.3517,5.3381,7.9539,7.9273,7.7766,7.7117,7.7129,7.713,7.7096,7.7101,7.7101,7.7141,7.7101,7.7139,7.714,7.7101,7.71,7.71,7.6906,7.6473,7.5652,7.4833,7.4237,7.3802,7.3409,7.2778,7.2305,7.2186,7.2071,7.1999,7.2007,7.2011,7.198,7.1984,7.1989,7.199,7.1991,7.1991,7.1874,7.1872,7.1869,7.1865,7.189,7.1965,7.1528,7.0467,6.9215,6.8318,6.8122,6.7576,6.707,6.6992,6.6874,6.6445,6.6014,6.5741,6.5507,6.4766,6.4883,6.4961,6.4922,6.4649,6.4493,6.4493,6.4259,6.3907,6.336,6.2973,6.259,6.2169,6.1903,6.1715,6.1719,6.1719,6.1719,6.1718,6.1717,6.1716,6.1715,6.1715,6.1283,6.0811,6.0262,5.9519,5.8735,5.8067,5.7478,5.6927,5.6676,5.6504,5.65,5.6496,5.6488,5.6521,5.6478,5.6471,5.6494,5.6484,5.6474,5.6455,5.6439,5.642,5.6366,5.6325,5.6293,5.6308,5.6182,5.6161,5.6074,5.5598,5.5207,5.5087,5.4958,5.478,5.4494,5.4135,5.4104,7.9219,7.8497,7.7522,7.7141,7.7187,7.7187,7.7187,7.7187,7.7187,7.7187,7.7187,7.7185,7.7185,7.7186,7.7184,7.7185,7.7108,7.6831,7.64,7.5775,7.5299,7.4938,7.4275,7.353,7.3098,7.2863,7.2474,7.2088,7.2018,7.1985,7.1988,7.1991,7.1992,7.1992,7.1991,7.1991,7.199,7.1987,7.1981,7.2011,7.2004,7.1958,7.168,7.0815,6.9762,6.9255,6.8981,6.8357,6.7887,6.781,6.7187,6.6796,6.664,6.6562,6.6406,6.625,6.6133,6.6055,6.6055,6.5664,6.5468,6.5234,6.4883,6.4415,6.3988,6.3486,6.3143,6.2606,6.207,6.1719,6.1719,6.1719,6.1719,6.1718,6.1716,6.1714,6.1707,6.1664,6.1625,6.131,6.08,6.0292,5.9507,5.8761,5.8092,5.7499,5.7055,5.6689,5.6486,5.6482,5.6475,5.6507,5.65,5.6488,5.6474,5.6466,5.6455,5.6388,5.6363,5.6322,5.6296,5.6253,5.6233,5.6253,5.6304,5.6256,5.6133,5.6013,5.5932,5.5686,5.5676,5.5701,5.5366,5.5066,5.5304,7.9439,7.8939,7.7692,7.7186,7.7187,7.7226,7.7226,7.7226,7.7226,7.7226,7.7226,7.7226,7.7226,7.7226,7.7226,7.7226,7.7187,7.7148,7.6912,7.6522,7.6088,7.5692,7.5184,7.44,7.4046,7.3735,7.3112,7.2412,7.2064,7.1988,7.1991,7.1992,7.1992,7.1992,7.1991,7.199,7.1987,7.1982,7.2011,7.2002,7.1997,7.199,7.1675,7.1285,7.0582,7.0113,6.984,6.8708,6.8355,6.8396,6.7537,6.7187,6.7187,6.707,6.6796,6.6796,6.6796,6.6796,6.6796,6.6406,6.625,6.6172,6.5742,6.5391,6.5042,6.4581,6.393,6.3041,6.2226,6.1719,6.1719,6.1719,6.1718,6.1716,6.1713,6.1707,6.17,6.1693,6.1691,6.169,6.1376,6.0867,6.0279,5.953,5.8781,5.8107,5.751,5.7029,5.6665,5.6617,5.6648,5.6482,5.6472,5.6461,5.6446,5.6432,5.6422,5.6355,5.6278,5.6272,5.6236,5.6192,5.6223,5.6238,5.6245,5.6251,5.6209,5.6121,5.6202,5.6245,5.6072,5.5973,5.6059,5.6106,5.6117,7.9763,7.9334,7.8007,7.7383,7.7226,7.7226,7.7226,7.7226,7.7226,7.7226,7.7226,7.7226,7.7226,7.7226,7.7226,7.7226,7.7226,7.7187,7.7148,7.7031,7.6561,7.6169,7.5934,7.5385,7.4873,7.4718,7.3981,7.3123,7.2458,7.2107,7.1991,7.1992,7.1992,7.1992,7.199,7.1987,7.198,7.2011,7.2003,7.1996,7.199,7.1987,7.1987,7.1987,7.1324,7.0971,7.0816,6.9644,6.9175,6.9098,6.8436,6.7615,6.7888,6.742,6.6992,6.6835,6.6796,6.6796,6.6796,6.6796,6.6679,6.664,6.6757,6.6407,6.5984,6.5409,6.4795,6.3318,6.25,6.1875,6.1758,6.1719,6.1716,6.1713,6.1706,6.1697,6.1693,6.1726,6.1719,6.1718,6.1715,6.1441,6.0851,6.0256,5.9505,5.9027,5.8427,5.7627,5.7262,5.7016,5.6927,5.6567,5.6439,5.6429,5.6412,5.6386,5.6372,5.635,5.6259,5.6163,5.617,5.6176,5.6176,5.6172,5.6152,5.6159,5.6194,5.6198,5.6209,5.6209,5.6226,5.6215,5.6168,5.6145,5.6113,8.0,7.8633,7.8398,7.789,7.7265,7.7226,7.7226,7.7226,7.7226,7.7226,7.7226,7.7226,7.7226,7.7226,7.7226,7.7226,7.7226,7.7226,7.7226,7.7148,7.6991,7.6912,7.6872,7.6129,7.5816,7.5583,7.4882,7.4023,7.328,7.2538,7.207,7.2109,7.2069,7.199,7.1987,7.198,7.2009,7.2004,7.1996,7.199,7.1989,7.1987,7.1987,7.1948,7.187,7.1753,7.1558,7.0619,7.0307,7.0346,6.9606,6.8747,6.8238,6.8043,6.7498,6.707,6.6796,6.6796,6.6796,6.6796,6.6796,6.6796,6.6798,6.6723,6.6422,6.5848,6.4918,6.3203,6.2812,6.25,6.1991,6.1756,6.1713,6.1707,6.1699,6.1691,6.1723,6.1719,6.1711,6.1702,6.1658,6.1697,6.1423,6.0825,6.0265,5.9824,5.9342,5.854,5.7896,5.7688,5.7481,5.7237,5.7144,5.7095,5.7064,5.696,5.6812,5.6677,5.6428,5.6323,5.63,5.6354,5.6054,5.6054,5.6082,5.611,5.6153,5.6164,5.6215,5.6207,5.6149,5.6161,5.618,5.6149,5.6062,8.0273,7.9101,7.8164,7.7578,7.7226,7.7226,7.7226,7.7226,7.7226,7.7226,7.7226,7.7226,7.7226,7.7226,7.7226,7.7226,7.7226,7.7226,7.7226,7.7226,7.7226,7.7226,7.7109,7.6835,7.664,7.6367,7.582,7.5273,7.4413,7.3475,7.2733,7.2655,7.2261,7.1982,7.1982,7.2011,7.2003,7.1997,7.1991,7.1989,7.1987,7.1987,7.1987,7.1987,7.1987,7.1987,7.1792,7.1167,7.101,7.1011,7.023,6.9294,6.8786,6.8357,6.7732,6.6913,6.6796,6.6796,6.6796,6.6835,6.6796,6.6799,6.6803,6.6813,6.6668,6.6088,6.5428,6.4609,6.3515,6.289,6.242,6.1988,6.1787,6.1701,6.177,6.1721,6.1713,6.1709,6.1702,6.169,6.1638,6.1638,6.1634,6.1309,6.075,6.0315,5.9943,5.9409,5.8805,5.8439,5.8273,5.8106,5.8048,5.8028,5.8027,5.7987,5.7896,5.7672,5.7087,5.6953,5.6704,5.6601,5.6437,5.6162,5.6115,5.6136,5.6187,5.6125,5.6137,5.6121,5.6105,5.6117,5.6129,5.607,5.6029,8.0156,7.9258,7.8047,7.7422,7.7226,7.7226,7.7226,7.7226,7.7226,7.7226,7.7226,7.7226,7.7226,7.7226,7.7226,7.7226,7.7226,7.7226,7.7226,7.7226,7.7226,7.7226,7.7187,7.7148,7.7148,7.7187,7.6562,7.621,7.5739,7.48,7.3822,7.3316,7.2724,7.2249,7.2046,7.2002,7.1996,7.199,7.1989,7.1987,7.1987,7.1987,7.1987,7.1987,7.1987,7.1987,7.187,7.148,7.148,7.148,7.0933,7.0152,6.9723,6.9253,6.8591,6.7928,6.7733,6.7697,6.7464,6.7229,6.6915,6.6803,6.6814,6.6864,6.6831,6.6248,6.5702,6.5429,6.4609,6.3789,6.3199,6.2568,6.2249,6.2083,6.1877,6.1789,6.1739,6.1774,6.1726,6.1632,6.1619,6.1608,6.1601,6.1591,6.1231,6.0761,6.0426,6.016,5.9708,5.9221,5.8856,5.8647,5.8596,5.8571,5.857,5.8637,5.8692,5.86,5.8011,5.768,5.7564,5.7331,5.7211,5.6863,5.6515,5.6833,5.7323,5.6669,5.6054,5.6046,5.6037,5.6025,5.6016,5.6008,5.5995,7.9297,7.8555,7.8437,7.789,7.7226,7.7226,7.7226,7.7226,7.7226,7.7226,7.7226,7.7226,7.7226,7.7226,7.7226,7.7226,7.7226,7.7226,7.7226,7.7226,7.7226,7.7226,7.7226,7.7226,7.7226,7.7226,7.6952,7.695,7.687,7.6002,7.4673,7.3503,7.3339,7.275,7.2277,7.2074,7.1993,7.1987,7.1987,7.1987,7.1987,7.1987,7.1987,7.1987,7.1987,7.1987,7.1987,7.1831,7.1792,7.1987,7.1636,7.105,7.0465,7.0229,6.9645,6.8985,6.8791,6.8757,6.8605,6.7704,6.6921,6.6853,6.6863,6.687,6.6873,6.6875,6.6445,6.5819,6.5193,6.4838,6.4166,6.3494,6.2983,6.2776,6.2609,6.2403,6.2234,6.1914,6.1865,6.1651,6.1597,6.1589,6.1575,6.1566,6.1522,6.1089,6.0983,6.0753,6.0287,5.9795,5.9348,5.9063,5.9021,5.8958,5.8926,5.9029,5.9365,5.9284,5.8858,5.8613,5.8492,5.826,5.783,5.7907,5.7714,5.8067,5.8183,5.7461,5.6764,5.621,5.6008,5.6008,5.6008,5.6008,5.5986,7.9531,7.914,7.8125,7.75,7.7226,7.7226,7.7226,7.7226,7.7226,7.7226,7.7226,7.7226,7.7226,7.7226,7.7226,7.7226,7.7226,7.7226,7.7226,7.7226,7.7226,7.7226,7.7226,7.7226,7.7226,7.7186,7.7183,7.7138,7.7054,7.6656,7.5987,7.5048,7.4382,7.3558,7.2967,7.2382,7.2145,7.2065,7.2065,7.2026,7.1987,7.1987,7.1987,7.1987,7.1987,7.1987,7.1987,7.1987,7.1987,7.1987,7.1987,7.1519,7.0972,7.0816,7.0391,6.9694,6.9579,6.9546,6.9357,6.8338,6.744,6.6904,6.691,6.6912,6.6913,6.6914,6.6796,6.6364,6.5893,6.5418,6.5137,6.4352,6.3761,6.3667,6.3417,6.313,6.2884,6.26,6.243,6.2412,6.1933,6.1571,6.1556,6.1541,6.15,6.1456,6.142,6.1268,6.0799,6.0501,6.0141,5.9933,5.9887,5.9978,5.998,6.0053,6.0154,5.9891,5.9623,5.9502,5.9343,5.8685,5.8376,5.8569,5.8724,5.8763,5.8569,5.8023,5.7443,5.6859,5.6356,5.6008,5.6008,5.6008,5.6011,7.918,7.8828,7.7695,7.7226,7.7226,7.7226,7.7226,7.7226,7.7226,7.7226,7.7226,7.7226,7.7226,7.7226,7.7226,7.7226,7.7226,7.7226,7.7226,7.7226,7.7226,7.7226,7.7186,7.7185,7.7182,7.7181,7.7137,7.7091,7.7125,7.7081,7.6644,7.6092,7.5579,7.4798,7.3705,7.3119,7.2729,7.2729,7.2768,7.2534,7.2495,7.2417,7.2143,7.2104,7.1987,7.1987,7.1987,7.1987,7.1987,7.1987,7.1948,7.1675,7.1325,7.0976,7.0748,7.0403,7.0136,7.0141,6.9911,6.9092,6.8154,6.7534,6.7382,6.7226,6.6992,6.6912,6.6831,6.6789,6.6277,6.5919,6.587,6.5198,6.4682,6.4543,6.4061,6.3735,6.3682,6.3475,6.3343,6.3249,6.2771,6.2406,6.1845,6.1826,6.1573,6.1526,6.1415,6.1386,6.1249,6.1073,6.107,6.0974,6.096,6.1078,6.1232,6.0919,6.0605,6.057,6.0388,6.031,6.0035,5.942,5.9304,5.9687,5.9725,5.942,5.9227,5.9068,5.8294,5.74,5.682,5.6201,5.5999,5.5995,5.5993,7.8086,7.7305,7.7226,7.7226,7.7226,7.7226,7.7226,7.7226,7.7226,7.7226,7.7226,7.7226,7.7226,7.7226,7.7226,7.7226,7.7226,7.7226,7.7226,7.7226,7.7186,7.7185,7.7183,7.7141,7.7137,7.7096,7.709,7.7083,7.7081,7.7072,7.6986,7.6986,7.6555,7.5969,7.4603,7.4447,7.4408,7.4369,7.4251,7.3822,7.3391,7.3158,7.269,7.2378,7.2026,7.1987,7.1987,7.1987,7.1987,7.1987,7.199,7.1874,7.1796,7.1767,7.1694,7.1658,7.1665,7.175,7.1716,7.0232,6.9178,6.8358,6.8164,6.7849,6.7223,6.6985,6.6939,6.6896,6.6656,6.6644,6.6436,6.6031,6.5631,6.5344,6.486,6.4692,6.4638,6.4315,6.4186,6.4013,6.3917,6.3667,6.283,6.2187,6.1765,6.1583,6.1437,6.1419,6.1416,6.1416,6.1416,6.1398,6.1337,6.1341,6.1301,6.1251,6.1091,6.1093,6.0997,6.0847,6.0809,6.0499,6.0538,6.0809,6.0615,6.0228,6.0267,6.0306,5.9261,5.8212,5.7091,5.6433,5.6192,5.6243,5.6511,7.828,7.8008,7.7461,7.7226,7.7226,7.7226,7.7226,7.7226,7.7226,7.7226,7.7226,7.7226,7.7226,7.7226,7.7226,7.7226,7.7226,7.7225,7.7225,7.7186,7.7143,7.7141,7.7139,7.7133,7.7089,7.7086,7.7078,7.7071,7.7108,7.7103,7.7101,7.7101,7.7023,7.6438,7.5463,7.4917,7.4486,7.4486,7.4447,7.433,7.4095,7.3664,7.3235,7.2845,7.2378,7.2104,7.2065,7.2065,7.1989,7.199,7.1994,7.2,7.2002,7.201,7.1979,7.1982,7.1987,7.199,7.1953,7.121,7.0467,6.9607,6.8981,6.8625,6.7843,6.772,6.7399,6.6998,6.695,6.6934,6.6643,6.656,6.6315,6.6299,6.605,6.6039,6.5908,6.5317,6.4953,6.4738,6.4602,6.4256,6.357,6.3048,6.2591,6.2189,6.2048,6.1575,6.1455,6.1416,6.1412,6.1391,6.1368,6.1334,6.1289,6.1199,6.1159,6.1089,6.1075,6.1041,6.1075,6.1113,6.1075,6.0963,6.1041,6.1075,6.0847,6.0538,5.9919,5.899,5.8174,5.7537,5.736,5.7486,5.7757,7.8278,7.7968,7.7421,7.7226,7.7226,7.7226,7.7226,7.7226,7.7226,7.7226,7.7226,7.7226,7.7226,7.7226,7.7226,7.7226,7.7226,7.7184,7.7182,7.7142,7.7137,7.7094,7.709,7.7084,7.7077,7.7073,7.7108,7.7101,7.7103,7.7101,7.7101,7.7101,7.7062,7.6789,7.6203,7.5774,7.554,7.5618,7.5618,7.5345,7.4993,7.4525,7.4095,7.3586,7.3041,7.2495,7.2378,7.2223,7.1991,7.2034,7.2002,7.2008,7.1974,7.198,7.1986,7.1989,7.1992,7.1992,7.1949,7.1943,7.1201,7.0537,7.0104,6.9436,6.8768,6.8601,6.8315,6.7912,6.7432,6.7261,6.7245,6.7202,6.6876,6.6856,6.6761,6.6709,6.6574,6.5979,6.5742,6.5528,6.5387,6.4922,6.4386,6.398,6.3528,6.3097,6.2701,6.2157,6.161,6.1532,6.1451,6.1391,6.1361,6.1322,6.1272,6.1177,6.1141,6.1118,6.1113,6.1113,6.1113,6.1113,6.1113,6.1113,6.1113,6.1075,6.1002,6.0654,6.0306,6.0103,5.978,5.9215,5.8684,5.8612,5.8693,7.796,7.7301,7.7223,7.7186,7.7187,7.7187,7.7187,7.7226,7.7226,7.7226,7.7226,7.7226,7.7187,7.7187,7.7185,7.7184,7.7183,7.7139,7.7098,7.7095,7.7088,7.7085,7.7079,7.7071,7.7107,7.7104,7.7101,7.7101,7.7101,7.7101,7.7101,7.7101,7.7101,7.6984,7.6867,7.675,7.6633,7.6594,7.6555,7.6242,7.5852,7.558,7.5073,7.4486,7.3783,7.3393,7.3119,7.2732,7.2309,7.2158,7.2047,7.2014,7.1981,7.1987,7.1989,7.1991,7.1991,7.1987,7.1981,7.2011,7.1965,7.142,7.1066,7.0319,6.9724,6.9398,6.9148,6.8784,6.8381,6.8171,6.8039,6.7596,6.7153,6.7052,6.6953,6.6933,6.695,6.6708,6.6591,6.6458,6.6354,6.5973,6.5326,6.4838,6.4492,6.41,6.3673,6.3129,6.2542,6.1843,6.1681,6.1352,6.1318,6.131,6.1221,6.1203,6.1137,6.1113,6.1113,6.1113,6.1113,6.1113,6.1113,6.1113,6.1113,6.1075,6.1041,6.1036,6.0997,6.079,6.0534,6.0234,5.9505,5.9156,5.9114,7.8264,7.7999,7.7413,7.7102,7.7143,7.7143,7.7146,7.7187,7.7226,7.7226,7.7225,7.7225,7.7185,7.7143,7.7141,7.7101,7.7137,7.7133,7.709,7.7084,7.7077,7.7071,7.7107,7.7104,7.7101,7.7101,7.7101,7.7101,7.7101,7.7101,7.7101,7.7101,7.7101,7.7101,7.7101,7.7101,7.7101,7.7101,7.7101,7.6867,7.6516,7.6166,7.5736,7.5268,7.4603,7.4212,7.3864,7.3286,7.2901,7.2788,7.2254,7.2025,7.1987,7.1992,7.1991,7.1988,7.1982,7.1974,7.2008,7.1953,7.1941,7.1938,7.1618,7.1187,7.0593,7.0233,7.0019,6.9653,6.9248,6.9,6.8827,6.8419,6.8091,6.7951,6.781,6.7674,6.7616,6.7223,6.7103,6.6892,6.6864,6.6577,6.5965,6.5848,6.546,6.5071,6.4644,6.41,6.3439,6.2737,6.2062,6.1694,6.1656,6.1724,6.1363,6.1189,6.1132,6.1113,6.1113,6.1113,6.1113,6.1113,6.1113,6.1113,6.1113,6.1113,6.1075,6.1113,6.1113,6.1036,6.0819,6.0629,6.0406,6.0012,5.9771,7.8528,7.7834,7.7327,7.7095,7.7097,7.7098,7.7142,7.7146,7.7186,7.7145,7.7143,7.7143,7.7141,7.7099,7.7095,7.7093,7.7092,7.7083,7.7076,7.7073,7.7106,7.7104,7.7101,7.7101,7.7101,7.7101,7.7101,7.7101,7.7101,7.7101,7.7101,7.7101,7.7101,7.7101,7.7101,7.7101,7.7101,7.7101,7.7101,7.7101,7.6867,7.6555,7.6399,7.6088,7.5424,7.4996,7.4533,7.384,7.326,7.2915,7.2144,7.203,7.1992,7.199,7.1984,7.1978,7.2012,7.1963,7.1952,7.1901,7.1886,7.1911,7.1893,7.1657,7.1423,7.1105,7.0851,7.052,7.0115,6.9746,6.961,6.9434,6.9256,6.9078,6.8864,6.8652,6.8214,6.7744,6.7458,6.7245,6.7036,6.6866,6.6664,6.6586,6.6431,6.5965,6.5572,6.5145,6.445,6.3673,6.2835,6.2191,6.2265,6.2332,6.1853,6.1494,6.1514,6.1423,6.1113,6.1113,6.1113,6.1113,6.1113,6.1113,6.1113,6.1113,6.1113,6.1113,6.1104,6.1027,6.1016,6.0859,6.0745,6.0635,6.0547,7.8671,7.7238,7.7121,7.7087,7.7096,7.7095,7.7096,7.7096,7.7097,7.7097,7.7097,7.7097,7.7096,7.7092,7.7086,7.7082,7.7079,7.7071,7.7106,7.7101,7.7103,7.7101,7.7101,7.7101,7.7101,7.7101,7.7101,7.7101,7.7101,7.7101,7.7101,7.7101,7.7101,7.7101,7.7101,7.7101,7.7101,7.7101,7.7101,7.7101,7.7101,7.7062,7.7062,7.6906,7.6284,7.5626,7.4893,7.4041,7.3111,7.2572,7.2186,7.2226,7.1989,7.1984,7.1976,7.1967,7.2001,7.1951,7.1935,7.192,7.1907,7.1889,7.1908,7.1821,7.1663,7.1624,7.1334,7.1245,7.0842,7.067,7.0533,7.0311,7.0129,6.9904,6.9646,6.9628,6.9539,6.8874,6.8167,6.7922,6.7763,6.748,6.6703,6.6586,6.6742,6.6547,6.6275,6.5922,6.5487,6.4675,6.379,6.2948,6.2877,6.2909,6.2498,6.2186,6.2095,6.1892,6.1582,6.1389,6.1582,6.1389,6.1113,6.1113,6.1113,6.1113,6.1113,6.1104,6.108,6.1031,6.098,6.0965,6.0927,6.09,6.0877,7.8471,7.8005,7.738,7.711,7.7073,7.7073,7.7073,7.7073,7.7073,7.7079,7.7086,7.7087,7.7083,7.7076,7.7073,7.7108,7.7107,7.7104,7.7103,7.7101,7.7101,7.7101,7.7101,7.7101,7.7101,7.7101,7.7101,7.7101,7.7101,7.7101,7.7101,7.7101,7.7101,7.7101,7.7101,7.7101,7.7101,7.7101,7.7101,7.7101,7.7101,7.7101,7.7062,7.7027,7.668,7.6572,7.6034,7.5574,7.4798,7.4138,7.332,7.2731,7.2054,7.2011,7.2004,7.1994,7.1945,7.1933,7.1916,7.1895,7.1874,7.186,7.1843,7.1833,7.1788,7.1827,7.1825,7.1736,7.1644,7.151,7.1332,7.1106,7.0919,7.0653,7.039,7.0608,7.0786,6.9927,6.8956,6.8645,6.849,6.7946,6.713,6.6819,6.6936,6.6819,6.6586,6.631,6.6252,6.5658,6.488,6.4118,6.3683,6.3525,6.3113,6.2999,6.298,6.2936,6.2781,6.2511,6.2162,6.193,6.1698,6.1273,6.1113,6.1427,6.1491,6.1114,6.1079,6.1155,6.0987,6.0933,6.0888,6.0854,6.0804,7.8196,7.7766,7.7296,7.7101,7.7101,7.7101,7.7101,7.7101,7.7101,7.7106,7.7075,7.7075,7.7108,7.7101,7.7101,7.7101,7.7101,7.7101,7.7101,7.7101,7.7101,7.7101,7.7101,7.7101,7.7101,7.7101,7.7101,7.7101,7.7101,7.7101,7.7101,7.7101,7.7101,7.7101,7.7101,7.7101,7.7101,7.7101,7.7101,7.7101,7.7101,7.7101,7.7107,7.7073,7.7079,7.697,7.6511,7.6049,7.5466,7.4609,7.3709,7.2843,7.2206,7.2002,7.1953,7.1943,7.193,7.1915,7.1889,7.186,7.1866,7.1811,7.1794,7.1734,7.177,7.177,7.1785,7.1734,7.1703,7.1601,7.1549,7.1403,7.1342,7.1159,7.0992,7.1023,7.1019,7.0588,6.9616,6.8874,6.8913,6.9069,6.8253,6.748,6.7511,6.7211,6.6943,6.6582,6.6531,6.6596,6.5817,6.5243,6.4769,6.4118,6.3516,6.3647,6.3985,6.3947,6.3908,6.3444,6.2975,6.2631,6.2283,6.2124,6.2124,6.2394,6.2303,6.1833,6.1566,6.1718,6.1312,6.09,6.0893,6.0973,6.0941,7.7766,7.714,7.7101,7.7101,7.7101,7.7101,7.7101,7.7101,7.7101,7.7101,7.7103,7.7103,7.7101,7.7101,7.7101,7.7101,7.7101,7.7101,7.7101,7.7101,7.7101,7.7101,7.7101,7.7101,7.7101,7.7101,7.7101,7.7101,7.7101,7.7101,7.7101,7.7101,7.7101,7.7101,7.7101,7.7101,7.7101,7.7101,7.7101,7.7101,7.7101,7.7103,7.7071,7.7078,7.7048,7.6705,7.6283,7.5935,7.5585,7.4726,7.3938,7.3223,7.2583,7.2297,7.2127,7.2112,7.1983,7.1913,7.1799,7.1811,7.1773,7.1703,7.1721,7.1715,7.1718,7.176,7.1774,7.1799,7.1803,7.175,7.1696,7.1642,7.1626,7.1567,7.1446,7.1326,7.1209,7.1131,7.0273,6.9375,6.9565,6.9876,6.9177,6.8361,6.7992,6.7687,6.7321,6.6954,6.6743,6.6885,6.663,6.6171,6.5804,6.5074,6.43,6.4372,6.4836,6.4798,6.4682,6.4256,6.3792,6.3366,6.3173,6.3328,6.3405,6.3323,6.3139,6.2746,6.2555,6.2353,6.2122,6.1784,6.1734,6.1743,6.1358,7.7257,7.7101,7.7101,7.7101,7.7101,7.7101,7.7101,7.7101,7.7101,7.7101,7.7101,7.7101,7.7101,7.7101,7.7101,7.7101,7.7101,7.7101,7.7101,7.7101,7.7101,7.7101,7.7101,7.7101,7.7101,7.7101,7.7101,7.7101,7.7101,7.7101,7.7101,7.7101,7.7101,7.7101,7.7101,7.7101,7.7101,7.7101,7.7101,7.7101,7.7101,7.7104,7.7072,7.7082,7.7093,7.7022,7.6949,7.6952,7.6445,7.5504,7.4317,7.3827,7.3342,7.2818,7.2567,7.2468,7.2296,7.2067,7.1986,7.1839,7.176,7.1863,7.1853,7.174,7.1775,7.1874,7.1923,7.2036,7.2014,7.1862,7.1777,7.1692,7.1673,7.161,7.152,7.1516,7.1438,7.1356,7.0968,7.0602,7.0619,7.0266,6.9442,6.8963,6.8778,6.8406,6.7902,6.7613,6.7827,6.7653,6.7397,6.7106,6.6811,6.6365,6.5721,6.545,6.5682,6.5644,6.5494,6.5107,6.4604,6.3985,6.3908,6.4217,6.4014,6.3816,6.3621,6.3735,6.34,6.3191,6.3116,6.2941,6.2737,6.2506,6.2166]}]]